[[[{"header":{"parameterUnit":"kt","parameterCategory":2,"dx":1,"dy":1,"la1":29.285339999999998,"la2":30.599998999999997,"lo1":-89.70041500000002,"lo2":-87.6738589999976,"nx":112,"ny":82,"refTime":"2022-10-03T00:00:00:Z","depth":0,"parameterNumber":1,"parameterNumberName":"U-component_of_WINDS"},"data":[5.2212,5.3663,0.0,4.4454,4.3116,0.0,3.3085,0.0,0.0,0.0,0.0,0.0,0.0,0.0,0.0,0.0,0.0,0.0,0.0,0.0,0.0,0.0,0.0,0.0,0.0,0.0,0.0,0.0,0.0,0.0,0.0,0.0,6.6564,6.7003,6.8385,6.9044,6.9044,6.9588,7.025,7.1158,7.222,7.3978,7.6403,7.9535,8.1651,8.3049,8.5598,8.667,8.667,8.667,8.667,8.667,8.667,8.667,8.691,8.8798,8.9745,9.0342,9.1831,9.2682,9.3295,9.419,9.4835,9.5284,9.5284,9.5284,9.5284,9.5284,9.5284,9.5284,9.5284,9.5284,9.5284,9.5284,9.5284,9.5284,9.5284,9.5284,9.5284,9.5284,9.5284,9.5601,9.6446,9.7082,9.8358,10.1212,10.2521,10.3439,10.3964,10.403,10.403,10.403,10.403,10.403,10.403,10.403,10.403,10.403,10.403,10.403,10.403,10.403,10.403,10.403,10.403,10.403,10.403,10.403,10.403,10.403,10.403,10.449,0.0,0.0,4.9886,3.9739,0.0,0.0,0.0,0.0,0.0,0.0,0.0,0.0,0.0,0.0,0.0,0.0,0.0,0.0,0.0,0.0,0.0,0.0,0.0,0.0,0.0,0.0,0.0,0.0,0.0,0.0,0.0,6.6053,6.7244,6.7727,6.8501,6.9044,6.9044,6.9044,6.9403,7.0367,7.135,7.3047,7.5481,7.8522,8.092,8.281,8.4921,8.6166,8.667,8.667,8.667,8.667,8.7283,8.7414,8.7678,9.0097,9.1266,9.1861,9.2813,9.3426,9.3939,9.4901,9.5284,9.5284,9.5284,9.5284,9.5284,9.5284,9.5284,9.5284,9.5284,9.5284,9.5284,9.5284,9.5284,9.5284,9.5284,9.5667,9.593,9.593,9.6314,9.7082,9.793,9.848,9.9624,10.2062,10.3373,10.403,10.403,10.403,10.403,10.403,10.403,10.403,10.403,10.403,10.403,10.403,10.403,10.403,10.403,10.403,10.403,10.403,10.403,10.403,10.403,10.403,10.403,10.403,10.5016,10.62,0.0,0.0,0.0,3.3727,0.0,0.0,0.0,0.0,2.9195,0.0,0.0,0.0,0.0,0.0,0.0,0.0,0.0,0.0,0.0,0.0,0.0,0.0,0.0,0.0,0.0,0.0,0.0,0.0,0.0,0.0,6.6475,6.7129,6.7727,6.8986,6.9044,6.9044,6.9044,6.9044,6.9044,6.9102,7.1731,7.3791,7.5288,7.8185,8.1204,8.4026,8.418,8.5161,8.667,8.6779,8.6844,8.691,8.8359,8.8931,8.9152,9.0575,9.2021,9.323,9.323,9.4005,9.5284,9.5284,9.5284,9.5284,9.5284,9.5284,9.5284,9.5284,9.5284,9.5284,9.5284,9.5284,9.5284,9.5284,9.5284,9.5284,9.5284,9.6314,9.7346,9.7413,9.8513,9.955,9.955,10.0803,10.2324,10.3701,10.403,10.403,10.403,10.403,10.403,10.403,10.403,10.403,10.403,10.403,10.403,10.403,10.403,10.403,10.403,10.403,10.403,10.403,10.403,10.403,10.403,10.403,10.4096,10.4161,10.7055,10.9093,3.8668,0.0,0.0,0.0,0.0,0.0,0.0,0.0,0.0,0.0,0.0,0.0,0.0,0.0,0.0,0.0,0.0,0.0,0.0,0.0,0.0,0.0,0.0,0.0,0.0,0.0,0.0,0.0,0.0,6.1099,6.6773,6.7901,6.8685,6.8986,6.9044,6.9044,6.9044,6.9044,6.9509,7.0382,7.1216,7.2748,7.4939,7.8146,8.0597,8.25,8.487,8.6232,8.6844,8.7853,8.8292,8.8359,8.9811,9.1002,9.2157,9.36,9.4321,9.4704,9.4704,9.4901,9.5284,9.5284,9.5284,9.5284,9.5284,9.5284,9.5284,9.5284,9.5284,9.5284,9.5284,9.5284,9.5284,9.5284,9.5284,9.5284,9.5284,9.6314,9.7435,9.7365,9.8602,9.9772,10.0943,10.2388,10.3504,10.3964,10.403,10.403,10.403,10.403,10.403,10.403,10.403,10.403,10.403,10.403,10.403,10.403,10.403,10.403,10.403,10.403,10.403,10.403,10.403,10.403,10.403,10.5016,10.5542,10.5608,10.8501,11.0014,0.0,0.0,0.0,0.0,0.0,0.0,2.9432,0.0,2.7992,0.0,0.0,0.0,0.0,0.0,0.0,0.0,0.0,0.0,0.0,0.0,0.0,0.0,0.0,0.0,0.0,0.0,0.0,0.0,0.0,6.3204,6.7601,6.8627,6.9044,6.9044,6.9044,6.9044,6.9044,6.9044,6.9695,7.1001,7.1456,7.2749,7.4722,7.8042,8.0271,8.1725,8.452,8.6407,8.7721,8.8425,8.9239,8.991,9.1993,9.3282,9.419,9.4901,9.5284,9.5284,9.5284,9.5284,9.5284,9.5284,9.5284,9.5284,9.5284,9.5284,9.5284,9.5284,9.5284,9.5284,9.5284,9.5284,9.5284,9.5284,9.5284,9.535,9.605,9.728,9.848,9.8995,10.0428,10.1604,10.2521,10.3439,10.403,10.403,10.403,10.403,10.403,10.403,10.403,10.403,10.403,10.403,10.403,10.403,10.403,10.403,10.403,10.403,10.403,10.403,10.403,10.403,10.403,10.4293,10.4885,10.5739,10.6726,10.7975,11.0277,11.1329,0.0,0.0,0.0,0.0,3.4646,0.0,0.0,0.0,0.0,0.0,0.0,0.0,0.0,0.0,0.0,0.0,0.0,0.0,0.0,0.0,0.0,0.0,0.0,0.0,0.0,0.0,6.2672,6.8501,6.468,6.4089,6.8743,6.9044,6.9044,6.9044,6.9044,6.9044,6.9044,6.9044,6.9763,7.1139,7.221,7.3537,7.5291,7.8101,8.0272,8.2008,8.3919,8.6232,8.8864,8.9152,9.0107,9.1511,9.4256,9.5284,9.5284,9.5284,9.5284,9.5284,9.5284,9.5284,9.5284,9.5284,9.5284,9.5284,9.5284,9.5284,9.5284,9.5284,9.5284,9.5284,9.5284,9.5284,9.5284,9.5415,9.5415,9.5865,9.728,9.8778,10.0179,10.1407,10.2914,10.403,10.403,10.403,10.403,10.403,10.403,10.403,10.403,10.403,10.403,10.403,10.403,10.403,10.403,10.403,10.403,10.403,10.403,10.403,10.403,10.403,10.403,10.403,10.4161,10.4885,10.6134,10.6463,10.7975,11.0671,11.1921,11.2513,0.0,0.0,0.0,0.0,0.0,3.134,0.0,0.0,0.0,0.0,0.0,0.0,0.0,0.0,0.0,0.0,0.0,0.0,0.0,0.0,0.0,0.0,0.0,0.0,0.0,6.5777,6.659,6.8801,6.8085,6.7901,6.8986,6.9044,6.9044,6.9044,6.9044,6.9044,6.9044,6.9044,7.0091,7.2375,7.2572,7.469,7.8359,8.024,8.2083,8.3854,8.667,8.8292,8.9063,9.1289,9.2445,9.2914,9.4638,9.5284,9.5284,9.5284,9.5284,9.5284,9.5284,9.5284,9.5284,9.5284,9.5284,9.5284,9.5284,9.5284,9.5284,9.5284,9.5284,9.5284,9.5284,9.5284,9.5601,9.6698,9.6896,9.7346,9.8766,10.0204,10.1276,10.167,10.2914,10.403,10.403,10.403,10.403,10.403,10.403,10.403,10.403,10.403,10.403,10.403,10.403,10.403,10.403,10.403,10.403,10.403,10.403,10.403,10.403,10.403,10.403,10.403,10.5148,10.5871,10.6134,10.8436,11.0474,11.2118,11.2381,11.2513,0.0,0.0,0.0,3.0505,0.0,0.0,0.0,0.0,0.0,0.0,0.0,0.0,0.0,0.0,0.0,0.0,0.0,0.0,0.0,0.0,0.0,0.0,0.0,0.0,0.0,6.8085,6.8385,6.8986,6.9044,6.9044,6.9044,6.9044,6.9044,6.9044,6.9044,6.9044,6.9044,6.9646,7.0894,7.2736,7.3443,7.5605,7.9191,8.0891,8.2995,8.5358,8.7787,8.9635,9.1075,9.2564,9.3492,9.4256,9.4901,9.5284,9.5284,9.5284,9.5284,9.5284,9.5284,9.5284,9.535,9.6116,9.6314,9.6314,9.6314,9.6314,9.6182,9.5415,9.5284,9.5284,9.5284,9.5799,9.6446,9.7214,9.7971,9.8782,10.0276,10.1077,10.1931,10.2652,10.3504,10.403,10.403,10.403,10.403,10.403,10.403,10.403,10.403,10.403,10.403,10.403,10.403,10.403,10.403,10.403,10.403,10.403,10.403,10.403,10.403,10.403,10.403,10.403,10.5411,10.6792,10.8304,11.0408,11.1855,11.2513,11.2513,11.2513,0.0,0.0,0.0,0.0,0.0,0.0,0.0,3.3253,0.0,0.0,0.0,0.0,0.0,0.0,0.0,0.0,0.0,0.0,0.0,0.0,0.0,0.0,0.0,0.0,0.0,6.9044,6.9044,6.9044,6.9044,6.9044,6.9044,6.9044,6.9044,6.9044,6.9044,6.9044,6.9044,7.0308,7.1502,7.2748,7.4006,7.6349,7.9707,8.1009,8.3549,8.691,8.8535,9.0747,9.3045,9.3426,9.4256,9.5284,9.5284,9.5284,9.5284,9.5284,9.5284,9.5284,9.5284,9.5481,9.5876,9.6962,9.7556,9.783,9.783,9.7754,9.7533,9.6116,9.5613,9.5678,9.5733,9.671,9.782,9.8216,9.9114,10.0363,10.1866,10.2062,10.2521,10.3701,10.403,10.403,10.403,10.403,10.403,10.403,10.403,10.403,10.403,10.403,10.403,10.403,10.403,10.403,10.403,10.403,10.403,10.403,10.403,10.403,10.403,10.403,10.4161,10.4424,10.5542,10.7515,11.0408,11.1855,11.2513,11.2513,11.2513,11.2513,0.0,0.0,0.0,0.0,0.0,0.0,4.3342,4.6493,0.0,0.0,0.0,0.0,0.0,0.0,0.0,0.0,0.0,0.0,0.0,0.0,0.0,0.0,0.0,0.0,6.8986,6.9044,6.9044,6.9044,6.9044,6.9044,6.9044,6.9044,6.9044,6.9044,6.9044,6.9044,6.9044,7.0308,7.1559,7.2673,7.4065,7.6979,8.1276,8.1625,8.4115,8.8623,9.0155,9.1565,9.323,9.4453,9.5152,9.5284,9.5284,9.5284,9.5284,9.5284,9.5284,9.5284,9.5284,9.6083,9.72,9.7358,9.825,9.9321,9.9321,9.9295,9.8899,9.7599,9.7116,9.7134,9.716,9.8226,9.969,10.0883,10.1343,10.1866,10.3439,10.3701,10.3832,10.3964,10.403,10.403,10.403,10.403,10.403,10.403,10.403,10.403,10.403,10.403,10.403,10.403,10.403,10.403,10.403,10.403,10.403,10.403,10.403,10.403,10.403,10.403,10.4622,10.5871,10.6068,10.7515,11.0408,11.1855,11.2513,11.2513,11.2513,11.2513,0.0,2.5068,2.7895,0.0,0.0,0.0,0.0,4.4871,0.0,0.0,0.0,0.0,0.0,0.0,0.0,0.0,0.0,0.0,0.0,0.0,0.0,0.0,0.0,0.0,0.0,6.9044,6.9044,6.9044,6.9044,6.9044,6.9044,6.9044,6.9044,6.9044,6.9044,6.9044,6.9044,7.0914,7.2215,7.2736,7.4722,7.7785,8.1595,8.2495,8.4921,8.8623,9.1188,9.2467,9.2914,9.4638,9.5284,9.5284,9.5284,9.5284,9.5284,9.5284,9.5284,9.535,9.6182,9.6842,9.7576,9.9361,10.0359,10.082,10.082,10.0797,10.0456,9.9085,9.8712,9.8602,9.8612,9.9742,10.0939,10.1534,10.2324,10.3176,10.3898,10.403,10.403,10.403,10.3045,10.2128,10.2128,10.1278,10.0885,10.1997,10.2128,10.2586,10.3898,10.403,10.403,10.403,10.403,10.403,10.403,10.403,10.403,10.403,10.403,10.403,10.403,10.4819,10.5542,10.6068,10.7778,10.9225,11.0408,11.1855,11.2513,11.2513,11.2513,11.2973,2.2266,0.0,0.0,0.0,0.0,0.0,0.0,0.0,0.0,0.0,0.0,0.0,0.0,0.0,0.0,0.0,0.0,0.0,0.0,0.0,0.0,0.0,0.0,0.0,0.0,0.0,0.0,0.0,6.9044,6.9044,6.9044,6.9044,6.9044,6.9044,6.9044,6.9044,6.9044,7.1461,7.2638,7.2736,7.5349,7.8359,8.1654,8.3177,8.5706,8.9122,9.1821,9.2853,9.2598,9.3939,9.477,9.5284,9.5284,9.5284,9.5284,9.5284,9.5415,9.593,9.7082,9.7886,9.8893,10.1014,10.1931,10.2324,10.2324,10.2247,10.1997,10.0589,10.0123,10.0081,10.0072,10.1202,10.232,10.2317,10.3109,10.403,10.403,10.3569,10.3104,10.31,10.1451,10.0124,10.0134,9.887,9.8679,10.0645,10.0862,10.1604,10.3701,10.403,10.403,10.403,10.403,10.403,10.403,10.403,10.403,10.403,10.403,10.4161,10.4556,10.5608,10.6463,10.7252,10.9356,11.0606,11.1,11.2052,11.2513,11.2513,11.2513,11.3302,0.0,0.0,0.0,3.7985,3.9961,0.0,5.5969,0.0,0.0,0.0,0.0,0.0,0.0,0.0,0.0,0.0,0.0,0.0,0.0,0.0,0.0,0.0,0.0,0.0,0.0,0.0,0.0,0.0,6.9044,6.9044,6.9044,6.9044,6.9044,6.9044,6.9044,6.9044,6.9044,7.1461,7.2638,7.2736,7.5349,7.8359,8.1654,8.3177,8.6417,9.0954,9.256,9.2897,9.2533,9.2533,9.3677,9.5284,9.5284,9.5284,9.5284,9.5284,9.6182,9.728,9.7346,9.9164,10.1604,10.1604,10.2652,10.3964,10.3964,10.3898,10.3632,10.1987,10.1683,10.1587,10.1537,10.2783,10.3898,10.3898,10.3964,10.403,10.403,10.2435,10.1055,10.1014,9.9398,9.8012,9.8087,9.8069,9.8596,10.0695,10.0909,10.1604,10.3701,10.403,10.403,10.403,10.403,10.403,10.403,10.403,10.403,10.403,10.403,10.4622,10.6003,10.6068,10.7449,11.0211,11.0408,11.1066,11.2447,11.2513,11.2513,11.2513,11.2513,11.3302,2.6852,3.1192,3.6527,4.2619,4.7258,5.2042,5.8079,0.0,0.0,0.0,0.0,0.0,0.0,0.0,0.0,0.0,0.0,0.0,0.0,0.0,0.0,0.0,0.0,0.0,0.0,0.0,0.0,0.0,0.0,0.0,6.9044,6.9044,6.9044,6.9044,6.9044,6.9403,7.0308,7.1882,7.3135,7.4039,7.692,7.9922,8.3052,8.4488,8.7051,9.0565,9.0874,9.2222,9.4366,9.4394,9.4704,9.5284,9.5284,9.5284,9.535,9.6314,9.6896,9.7677,9.9624,10.0883,10.1866,10.2914,10.357,10.403,10.403,10.403,10.3832,10.3299,10.3228,10.3167,10.3176,10.357,10.403,10.403,10.403,10.403,10.403,10.2321,10.0848,10.0929,9.8165,9.6318,9.7782,9.6921,9.704,10.0421,10.0889,10.1604,10.3701,10.403,10.403,10.403,10.403,10.403,10.403,10.403,10.403,10.403,10.4885,10.5608,10.6068,10.7975,10.9422,11.0408,11.1329,11.2052,11.2513,11.2513,11.2513,11.2513,11.2513,11.3302,3.0833,3.5531,4.0745,4.8255,5.3941,5.8708,6.2223,6.6072,0.0,0.0,0.0,0.0,0.0,0.0,0.0,0.0,0.0,0.0,0.0,0.0,0.0,0.0,0.0,0.0,0.0,0.0,0.0,0.0,0.0,6.9044,6.9044,6.9044,6.9044,6.9044,6.9044,6.9646,7.0914,7.2548,7.3774,7.4665,7.7668,8.0751,8.3841,8.5163,8.7713,9.1305,8.9647,9.0938,9.4319,9.4264,9.4901,9.605,9.605,9.6402,9.6887,9.7856,9.844,9.9098,10.108,10.1997,10.2586,10.3636,10.403,10.403,10.403,10.403,10.403,10.403,10.403,10.403,10.403,10.403,10.403,10.403,10.403,10.403,10.403,10.231,10.0837,10.0825,9.8217,9.6456,9.7793,9.6888,9.6995,10.0454,10.0837,10.1604,10.3701,10.403,10.403,10.403,10.403,10.403,10.403,10.403,10.403,10.403,10.5345,10.6331,10.6857,10.9159,11.0671,11.1132,11.2052,11.2513,11.2513,11.2513,11.2513,11.2513,11.2513,11.3631,3.6206,3.9832,4.3648,5.5102,6.0005,6.3337,0.0,0.0,0.0,0.0,0.0,0.0,0.0,0.0,0.0,0.0,0.0,0.0,0.0,0.0,0.0,0.0,0.0,0.0,0.0,0.0,0.0,0.0,6.9044,6.9044,6.9044,6.9044,6.9044,6.9044,6.9044,6.9646,7.0914,7.3369,7.4665,7.4978,7.7785,8.0891,8.4049,8.5205,8.8421,9.3024,8.9137,8.9371,9.2598,9.2783,9.4638,9.7346,9.7479,9.8257,9.9515,9.958,10.0494,10.1604,10.1801,10.2783,10.403,10.403,10.403,10.403,10.403,10.403,10.403,10.403,10.403,10.403,10.403,10.403,10.403,10.403,10.403,10.403,10.403,10.2439,10.0945,10.0907,9.935,9.8056,9.8116,9.8205,9.8865,10.082,10.1016,10.1801,10.3701,10.403,10.403,10.403,10.403,10.403,10.403,10.403,10.403,10.4096,10.5476,10.6923,10.837,10.9751,11.1132,11.2513,11.2513,11.2513,11.2513,11.2513,11.2513,11.2513,11.2513,11.4078,4.1111,4.711,5.2298,6.1124,6.5455,6.8019,7.0404,0.0,7.4811,0.0,0.0,0.0,0.0,0.0,0.0,0.0,0.0,0.0,0.0,0.0,0.0,0.0,0.0,0.0,0.0,0.0,0.0,0.0,6.9044,6.9044,6.9044,6.9044,6.9044,6.9044,6.9044,6.9646,7.0914,7.2442,7.4722,7.8042,8.0062,8.3144,8.7239,8.6082,8.8867,9.4546,9.2193,9.241,9.4704,9.5733,9.6698,9.7545,9.859,9.919,9.958,10.082,10.1408,10.1866,10.298,10.3636,10.403,10.403,10.403,10.403,10.403,10.403,10.403,10.403,10.403,10.403,10.403,10.403,10.403,10.403,10.403,10.403,10.403,10.3564,10.2798,10.122,9.9338,9.8362,9.9802,10.0145,10.0885,10.2914,10.3176,10.3439,10.3964,10.403,10.403,10.403,10.403,10.403,10.403,10.403,10.4424,10.5542,10.6923,10.837,10.9817,11.1263,11.2184,11.2513,11.2513,11.2513,11.2513,11.2513,11.2513,11.2513,11.2513,11.4091,4.1347,4.9747,5.804,6.5245,6.8675,7.0758,7.2186,7.4148,7.5956,7.6639,0.0,0.0,0.0,0.0,0.0,0.0,0.0,0.0,0.0,0.0,0.0,0.0,0.0,0.0,0.0,0.0,0.0,0.0,6.9044,6.9044,6.9044,6.9044,6.9044,6.9044,6.9588,7.0493,7.1764,7.2866,7.5035,7.8042,8.1119,8.464,8.8425,8.7843,9.0045,9.4034,9.2927,9.3102,9.4256,9.6446,9.7764,9.8454,9.9903,10.0885,10.1539,10.239,10.2652,10.2848,10.3636,10.403,10.403,10.403,10.403,10.403,10.403,10.403,10.403,10.403,10.403,10.403,10.403,10.403,10.403,10.403,10.403,10.403,10.403,10.403,10.3622,10.2467,10.1311,10.0951,10.2062,10.2324,10.2586,10.3898,10.403,10.403,10.403,10.403,10.403,10.403,10.403,10.403,10.403,10.403,10.4622,10.6003,10.7515,10.8962,11.0343,11.1789,11.2513,11.2513,11.2513,11.2513,11.2513,11.2513,11.2513,11.2513,11.2513,11.4091,4.0576,5.0335,6.1151,6.7911,7.0713,7.219,7.366,7.5037,7.6411,0.0,7.7924,0.0,0.0,0.0,0.0,0.0,0.0,0.0,0.0,0.0,0.0,0.0,0.0,0.0,0.0,0.0,0.0,0.0,6.9044,6.9044,6.9044,6.9044,6.9044,6.9287,7.0308,7.157,7.2946,7.4395,7.5663,7.692,8.166,8.5588,8.8799,9.0314,9.1641,9.2914,9.2914,9.2979,9.3426,9.6391,9.8513,9.9907,10.1405,10.278,10.403,10.403,10.403,10.403,10.403,10.403,10.403,10.403,10.403,10.403,10.403,10.403,10.403,10.403,10.403,10.403,10.403,10.403,10.403,10.403,10.403,10.403,10.403,10.403,10.403,10.403,10.403,10.403,10.403,10.403,10.403,10.403,10.403,10.403,10.403,10.403,10.403,10.403,10.403,10.403,10.403,10.403,10.4687,10.6266,10.7581,10.9027,11.0606,11.1855,11.2513,11.2513,11.2513,11.2513,11.2513,11.2513,11.2513,11.2513,11.2513,11.4025,4.685,5.3494,6.1302,6.9091,7.2255,7.365,7.5073,7.6546,7.7595,7.7858,7.7924,7.7924,0.0,0.0,0.0,0.0,0.0,0.0,0.0,0.0,0.0,0.0,0.0,0.0,0.0,0.0,0.0,0.0,0.0,6.9044,6.9044,6.9044,6.9403,7.0611,7.0855,7.2053,7.4332,7.5943,7.7352,7.8734,8.2382,8.6423,9.0588,9.3284,9.4518,9.477,9.477,9.5415,9.6644,9.8432,9.9962,10.1474,10.3045,10.3767,10.403,10.403,10.403,10.403,10.403,10.403,10.403,10.403,10.403,10.403,10.403,10.403,10.403,10.403,10.403,10.403,10.403,10.403,10.403,10.403,10.403,10.403,10.403,10.403,10.403,10.403,10.403,10.403,10.403,10.403,10.403,10.403,10.403,10.403,10.403,10.403,10.403,10.403,10.403,10.403,10.403,10.403,10.5148,10.7778,10.8173,10.9488,11.2052,11.2381,11.2513,11.2513,11.2513,11.2513,11.2513,11.2513,11.2513,11.2513,11.2513,11.4048,4.7841,5.3613,6.0318,6.565,7.0422,7.3791,7.4556,7.635,7.7924,7.7924,7.7924,7.7924,7.7924,0.0,0.0,0.0,0.0,0.0,0.0,0.0,0.0,0.0,0.0,0.0,0.0,0.0,0.0,0.0,0.0,6.9287,6.9948,7.0006,7.0611,7.1823,7.3311,7.4784,7.5977,7.8359,7.9851,8.0487,8.3788,8.6774,8.9796,9.2813,9.4518,9.5284,9.6116,9.6764,9.7545,9.9695,10.108,10.1866,10.3439,10.403,10.403,10.403,10.403,10.403,10.403,10.403,10.403,10.403,10.403,10.403,10.403,10.403,10.403,10.403,10.403,10.403,10.403,10.403,10.403,10.403,10.403,10.403,10.403,10.403,10.403,10.403,10.403,10.403,10.403,10.403,10.403,10.403,10.403,10.403,10.403,10.403,10.403,10.403,10.403,10.403,10.403,10.403,10.5213,10.8107,10.8304,10.9553,11.2381,11.2513,11.2513,11.2513,11.2513,11.2513,11.2513,11.2513,11.2513,11.2513,11.3247,11.4793,4.8925,5.3937,5.9867,6.2547,6.7797,7.2574,7.3872,7.6089,7.7924,7.7924,7.7924,7.7924,7.7924,7.7924,0.0,0.0,0.0,0.0,0.0,0.0,0.0,0.0,0.0,0.0,0.0,0.0,0.0,0.0,0.0,0.0,7.0855,7.1001,7.1832,7.3597,7.5933,7.7499,7.813,8.0884,8.2165,8.2247,8.5292,8.7634,8.9083,9.2223,9.419,9.5284,9.6764,9.7545,9.8084,10.0684,10.1866,10.2324,10.3504,10.403,10.403,10.403,10.403,10.403,10.403,10.403,10.403,10.403,10.403,10.403,10.403,10.403,10.403,10.403,10.403,10.403,10.403,10.403,10.403,10.403,10.403,10.403,10.403,10.403,10.403,10.403,10.403,10.403,10.403,10.403,10.403,10.403,10.403,10.403,10.403,10.403,10.403,10.403,10.403,10.403,10.403,10.403,10.5213,10.8041,10.8304,10.9553,11.2381,11.3181,11.3586,11.3586,11.3586,11.3454,11.3049,11.3049,11.2917,11.2578,11.4057,11.5388,5.3846,5.7141,6.1164,6.3985,6.6213,6.9041,7.4439,7.6837,7.7924,7.7924,0.0,7.7924,7.7924,7.7924,0.0,0.0,0.0,0.0,0.0,0.0,0.0,0.0,0.0,0.0,0.0,0.0,0.0,0.0,0.0,0.0,0.0,7.0945,7.273,7.6652,7.706,7.8433,8.1235,8.3082,8.387,8.3984,8.7042,8.9366,9.086,9.3677,9.5152,9.5284,9.6764,9.815,9.9492,10.108,10.2521,10.3832,10.3964,10.403,10.403,10.403,10.403,10.403,10.403,10.403,10.403,10.403,10.403,10.403,10.403,10.403,10.403,10.403,10.403,10.403,10.403,10.403,10.403,10.403,10.403,10.403,10.403,10.403,10.403,10.403,10.403,10.403,10.403,10.403,10.403,10.403,10.403,10.403,10.403,10.403,10.403,10.403,10.403,10.403,10.403,10.403,10.528,10.8048,10.8309,10.9553,11.2381,11.5398,11.7016,11.7016,11.7016,11.6136,11.4661,11.4661,11.3991,11.2578,11.4057,11.5498,4.8877,5.3062,5.8122,5.8335,6.3428,6.9177,7.2452,7.3087,7.371,7.6109,7.7298,7.7628,7.6746,7.7293,0.0,0.0,0.0,0.0,0.0,0.0,0.0,0.0,0.0,0.0,0.0,0.0,0.0,0.0,0.0,0.0,0.0,7.3678,7.5778,7.83,8.0345,8.1979,8.318,8.4856,8.61,8.6976,8.9172,9.089,9.2337,9.4321,9.5284,9.5284,9.6764,9.826,9.9716,10.2057,10.3439,10.403,10.403,10.403,10.403,10.403,10.403,10.403,10.403,10.403,10.403,10.403,10.403,10.403,10.403,10.403,10.403,10.403,10.403,10.403,10.403,10.403,10.4161,10.5082,10.5214,10.5543,10.6334,10.6598,10.6533,10.6598,10.5938,10.5279,10.5279,10.4556,10.403,10.403,10.403,10.4359,10.5146,10.6058,10.657,10.657,10.6597,10.6202,10.528,10.607,10.7392,10.9639,11.0415,11.2334,11.5332,11.6722,11.7431,11.7431,11.7431,11.716,11.6361,11.6447,11.6543,11.695,11.8404,11.9882,4.7176,5.0597,5.4962,5.4809,6.0176,6.6296,6.9504,6.9931,7.0877,7.534,7.6871,7.6971,7.5803,7.6152,0.0,0.0,0.0,0.0,0.0,0.0,0.0,0.0,0.0,0.0,0.0,0.0,0.0,0.0,0.0,0.0,0.0,7.605,7.8208,8.0552,8.2903,8.442,8.4856,8.61,8.7414,8.8864,9.0209,9.1914,9.3808,9.477,9.5284,9.535,9.6776,9.8206,9.9772,10.2313,10.3569,10.403,10.403,10.403,10.403,10.403,10.403,10.403,10.403,10.403,10.403,10.403,10.403,10.403,10.403,10.403,10.403,10.403,10.403,10.403,10.403,10.403,10.4424,10.5741,10.6203,10.6529,10.7985,10.8251,10.8251,10.8312,10.7518,10.6792,10.6792,10.5937,10.5279,10.5279,10.5279,10.5674,10.6723,10.7623,10.8194,10.8259,10.8233,10.7855,10.6785,10.7635,10.9173,11.1087,11.2156,11.4645,11.8708,11.8724,11.8864,11.8864,11.8864,11.8543,11.8125,11.8565,11.9176,11.9781,12.1675,12.3111,5.186,5.1854,5.2676,5.5585,5.6614,5.8681,6.5531,6.8209,7.0938,7.6706,7.6806,7.5795,7.5675,7.4507,0.0,0.0,0.0,0.0,0.0,0.0,0.0,0.0,0.0,0.0,0.0,0.0,0.0,0.0,0.0,0.0,0.0,7.7095,7.9249,8.3961,8.4115,8.4921,8.6604,8.667,8.7414,8.8864,9.0235,9.2467,9.5218,9.5284,9.5284,9.535,9.6731,9.8177,9.969,10.1071,10.2583,10.403,10.403,10.403,10.403,10.403,10.403,10.403,10.403,10.403,10.403,10.403,10.403,10.403,10.403,10.403,10.403,10.403,10.403,10.403,10.403,10.403,10.4424,10.5741,10.6119,10.6513,10.7977,10.8269,10.822,10.822,10.8299,10.8304,10.8304,10.8238,10.8238,10.8238,10.8238,10.8233,10.8155,10.8299,10.8233,10.822,10.8194,10.8309,10.8222,10.8336,10.9514,11.2597,11.2772,11.5495,12.1719,12.1986,12.1986,12.1986,12.1986,12.1247,11.9797,12.1247,12.1247,11.9842,12.2809,12.4132,4.7501,4.9701,5.2345,5.4307,5.7108,6.0519,6.464,6.6879,6.8766,7.1375,7.1636,7.1233,7.13,7.4158,0.0,0.0,0.0,0.0,0.0,0.0,0.0,0.0,0.0,0.0,0.0,0.0,0.0,0.0,0.0,0.0,0.0,8.0231,8.2636,8.4115,8.5292,8.6166,8.667,8.7721,8.8864,9.0253,9.1698,9.3426,9.5284,9.5284,9.581,9.6796,9.8243,9.969,10.1136,10.2649,10.3569,10.403,10.403,10.403,10.403,10.403,10.403,10.403,10.403,10.403,10.403,10.403,10.403,10.403,10.403,10.403,10.403,10.403,10.403,10.4161,10.5148,10.6136,10.7186,10.8711,10.9087,10.951,11.084,11.1254,11.1188,11.1188,11.0474,10.9751,10.9751,10.8962,10.8304,10.8304,10.8304,10.8699,10.9612,10.9817,11.0145,11.1057,11.2184,11.2436,11.1447,11.3238,11.4966,11.5997,11.6956,11.8921,12.1986,12.2083,12.2083,12.2083,12.2083,12.2369,12.3108,12.3634,12.4581,12.6203,12.7167,12.8265,4.8122,5.0286,5.2506,5.5106,5.7438,5.9966,6.3306,6.4078,6.4654,6.663,6.6547,6.6475,6.7651,0.0,7.5526,7.632,0.0,0.0,0.0,0.0,0.0,0.0,0.0,0.0,0.0,0.0,0.0,0.0,0.0,0.0,7.9776,8.2636,8.442,8.5161,8.667,8.748,8.748,8.8864,9.0365,9.1795,9.3193,9.4387,9.5284,9.5284,9.6073,9.7397,9.8966,10.0347,10.1794,10.3372,10.403,10.403,10.403,10.403,10.403,10.403,10.403,10.403,10.403,10.403,10.403,10.403,10.403,10.403,10.403,10.403,10.403,10.403,10.4358,10.5146,10.6598,10.7584,10.8633,11.0026,11.0335,11.0775,11.2315,11.2513,11.2513,11.2513,11.1789,11.1197,11.1197,11.0474,10.9882,10.9882,10.9882,11.0211,11.1132,11.1197,11.1526,11.2447,11.352,11.3903,11.3537,11.5937,11.7739,11.8385,11.9771,12.1123,12.1986,12.2083,12.2083,12.2083,12.2725,12.3608,12.466,12.575,12.7435,12.9297,12.9867,13.0613,5.2169,5.2811,5.3033,5.7184,5.7556,5.7936,6.1813,6.0508,5.9187,6.1945,6.152,6.1502,6.4454,6.7813,7.1881,7.683,0.0,0.0,0.0,0.0,0.0,0.0,0.0,0.0,0.0,0.0,0.0,0.0,0.0,0.0,8.4026,8.4354,8.5227,8.6844,8.8226,8.8997,8.8953,9.0408,9.1861,9.3426,9.4704,9.5284,9.535,9.535,9.6149,9.7601,9.9039,10.0545,10.1925,10.3372,10.403,10.403,10.403,10.403,10.403,10.403,10.403,10.403,10.403,10.403,10.403,10.403,10.403,10.403,10.403,10.403,10.403,10.4096,10.5275,10.6707,10.8102,10.8567,10.8896,11.0284,11.0597,11.0906,11.2315,11.2513,11.2513,11.2513,11.2513,11.2513,11.2513,11.2513,11.2513,11.2513,11.2513,11.2513,11.2513,11.2513,11.2513,11.2513,11.2654,11.3359,11.4902,11.6678,11.8308,11.98,12.1258,12.2083,12.2083,12.2083,12.2083,12.2083,12.3697,12.4652,12.4803,12.7761,12.9368,12.9511,13.0898,13.1645,4.8738,5.129,5.3771,5.4837,5.9049,6.2681,6.2056,5.9571,5.6845,5.4845,5.4857,5.6145,5.8935,6.1503,0.0,7.3308,0.0,0.0,0.0,0.0,0.0,0.0,0.0,0.0,0.0,0.0,0.0,0.0,0.0,0.0,8.4115,8.6472,8.7919,8.8292,8.9745,9.0473,9.0445,9.1843,9.3837,9.6248,9.5601,9.5799,9.6764,9.6764,9.7576,9.9049,10.0545,10.2119,10.3504,10.3832,10.403,10.403,10.403,10.403,10.403,10.403,10.403,10.403,10.403,10.403,10.403,10.403,10.403,10.403,10.403,10.403,10.4161,10.528,10.7515,10.9455,10.9858,11.0794,11.1592,11.1921,11.2052,11.2108,11.2447,11.2513,11.2513,11.2513,11.2513,11.2513,11.2513,11.2513,11.2513,11.2513,11.2513,11.2513,11.2513,11.2513,11.2513,11.2513,11.3567,11.51,11.6675,11.8221,11.9895,12.1391,12.1888,12.2083,12.2083,12.2083,12.2083,12.2083,12.3724,12.5251,12.6421,12.8321,12.9861,13.1074,13.143,13.2249,5.0055,5.3324,5.5637,5.3583,5.7078,6.0294,5.7755,5.5915,5.406,5.1655,5.1308,5.2815,5.7343,5.8879,6.1892,6.9381,0.0,0.0,0.0,0.0,0.0,0.0,0.0,0.0,0.0,0.0,0.0,0.0,0.0,0.0,8.6232,8.86,8.9857,8.9844,9.119,9.1996,9.1956,9.3939,9.5733,9.7148,9.7221,9.745,9.8182,9.8899,9.999,10.16,0.0,10.4184,10.495,10.5001,10.4675,10.403,10.403,10.403,10.403,10.403,10.403,10.403,10.403,10.403,10.403,10.403,10.403,10.403,10.403,10.449,10.5148,10.6004,10.9245,11.277,11.3437,11.4176,11.4845,11.4845,11.4106,11.3567,11.3567,11.3009,11.2513,11.2513,11.2513,11.2513,11.2513,11.2513,11.2513,11.2513,11.2513,11.2513,11.2513,11.2513,11.2729,11.3633,11.4443,11.5861,11.8224,11.9241,12.0458,12.1986,12.2083,12.2083,12.2083,12.2083,12.2083,12.2083,12.4438,12.6079,12.6964,12.9249,13.082,13.1573,13.1573,13.2463,5.2672,5.652,5.8593,5.4845,5.5648,5.6552,5.3392,5.2211,5.1356,4.9956,4.9173,5.0426,5.611,5.71,5.8974,6.4678,0.0,7.2604,0.0,0.0,0.0,0.0,0.0,0.0,0.0,0.0,0.0,0.0,0.0,8.9173,8.9173,9.0563,9.1238,9.1315,9.2598,9.3677,9.4005,9.6314,9.7624,9.7836,9.8787,9.9624,10.0038,10.1277,10.2739,10.4226,0.0,10.6308,10.6201,10.615,10.5433,10.4355,10.4355,10.4418,10.4675,10.4675,10.4675,10.4675,10.4675,10.4675,10.4675,10.4675,10.4675,10.4675,10.4869,10.5854,10.6907,10.7629,11.1821,11.6239,11.7392,11.7677,11.7605,11.7452,11.6345,11.5291,11.5291,11.4176,11.3287,11.3287,11.3287,11.3287,11.3287,11.3148,11.3009,11.3287,11.3009,11.3009,11.3287,11.3287,11.3703,11.5162,11.5548,11.6729,11.9461,11.9964,12.0666,12.1986,12.1869,12.1869,12.2083,12.2083,12.2226,12.2511,12.5437,12.7179,12.7521,13.0382,13.1914,13.2045,13.2129,13.3028,5.208,5.7947,6.3748,6.31,6.2392,6.0804,5.7179,5.3527,4.9961,4.6588,4.6682,4.7735,4.8958,5.2394,5.5989,5.8689,6.4038,0.0,7.8645,8.3184,8.5815,0.0,0.0,0.0,0.0,0.0,0.0,0.0,0.0,9.0653,9.0653,9.1987,9.2826,9.2783,9.419,9.605,9.8315,9.8766,9.9538,10.0623,9.9797,10.059,10.2951,10.3163,10.4264,10.5938,0.0,0.0,10.6136,10.6198,10.6041,10.5783,10.5783,10.6557,10.7648,10.7648,10.7648,10.7648,10.7648,10.7648,10.7648,10.7648,10.7648,10.7898,10.9186,10.9751,11.062,11.409,11.7276,11.9394,11.8734,11.8523,11.838,11.7551,11.7178,11.7041,11.7041,11.6798,11.6675,11.6675,11.6675,11.6675,11.6675,11.542,11.51,11.6429,11.542,11.5032,11.6429,11.6675,11.6798,11.692,11.8224,11.9241,11.9748,12.0943,12.1888,12.2083,12.0799,12.0728,12.2012,12.2083,12.2797,12.4153,12.6008,12.8031,13.0223,13.203,13.3374,13.4166,13.4662,13.5788,5.5517,5.9504,6.3688,6.3365,6.2523,6.1107,5.9059,5.6101,5.3064,5.0428,4.9429,4.9551,5.1766,5.2878,5.5401,6.0918,6.5405,0.0,0.0,0.0,8.6172,8.8469,0.0,0.0,0.0,0.0,0.0,0.0,0.0,9.2087,9.2087,9.419,9.5284,9.5284,9.6698,9.8131,9.9297,10.18,10.2889,10.2512,10.3603,10.4767,10.6065,10.6957,10.774,0.0,11.0038,10.9945,10.8516,10.8516,10.8045,10.7287,10.7332,10.7755,10.8195,10.8234,10.8318,10.8318,10.8318,10.8318,10.8387,10.9213,10.9488,10.9806,11.1449,11.4393,11.7703,12.0484,12.2054,12.2833,12.2332,12.2274,12.2143,12.1723,12.0509,11.9542,11.9542,11.836,11.7402,11.7402,11.7402,11.7402,11.7402,11.6798,11.6552,11.7282,11.6798,11.6552,11.7282,11.7402,11.7758,11.8568,11.9241,12.007,12.0943,12.2736,12.353,12.2971,12.2251,12.1887,12.2083,12.2676,12.369,12.5345,12.8379,13.0428,13.1591,13.3269,13.4687,13.6053,13.6295,13.7718,6.1105,0.0,6.5606,6.5203,6.4501,6.3522,0.0,5.9806,5.759,5.512,5.3187,5.2674,5.5417,5.4573,5.5701,6.2358,6.6106,6.9439,7.2932,0.0,0.0,8.9937,0.0,0.0,0.0,0.0,0.0,0.0,0.0,9.4005,9.4005,9.6314,9.7675,9.7684,10.0062,10.1333,10.1383,10.4899,10.5911,10.4649,10.6983,10.821,10.8652,10.9866,11.0615,0.0,11.2219,11.1868,11.0638,11.0638,10.9817,10.8843,10.8833,10.9048,10.9365,10.9285,10.9289,10.9289,10.9289,10.9742,11.0471,11.1658,11.2355,11.3154,11.4838,11.9229,12.3791,12.5115,12.5696,12.5833,12.5553,12.5483,12.5413,12.5271,12.367,12.2233,12.2233,12.061,11.9181,11.888,11.888,11.8837,11.8568,11.8224,11.8108,11.8524,11.8385,11.8429,11.8768,11.9141,11.9719,12.0894,12.0994,12.1461,12.2625,12.384,12.4462,12.4033,12.367,12.3254,12.2808,12.3892,12.5123,12.6515,13.0388,13.239,13.239,13.4525,13.652,13.7996,13.8508,14.0047,0.0,7.2454,7.4337,7.4247,7.4052,7.2486,6.7361,6.5017,0.0,5.7254,5.6052,5.5758,5.5056,5.5575,5.655,5.768,6.2011,6.6733,0.0,7.6448,0.0,0.0,0.0,0.0,0.0,0.0,0.0,0.0,0.0,0.0,9.683,9.8315,9.9199,9.9175,10.4564,10.7427,10.7503,10.7769,10.7912,10.7716,10.7929,10.8889,11.0276,11.033,11.1203,0.0,0.0,11.1868,0.0,11.0638,11.0568,11.0443,11.0394,11.1287,11.2465,11.2465,11.2394,11.2394,11.2394,11.3981,11.6059,11.6131,11.779,11.9925,12.1461,12.3934,12.6333,12.6407,12.7161,12.7638,12.6663,12.6481,12.6219,12.5342,12.5051,12.4977,12.4977,12.4754,12.4369,12.3372,12.3111,12.2827,12.1915,12.0562,12.007,12.152,12.1292,12.1561,12.3023,12.4051,12.4679,12.4754,12.4754,12.4827,12.4903,12.3585,12.3438,12.4978,12.3585,12.3439,12.4904,12.6369,12.7324,12.7397,13.0626,13.239,13.239,13.6515,13.9027,14.0193,14.2231,14.3374,7.4203,7.629,7.7736,7.7861,7.6971,7.514,7.1165,6.8049,6.4424,5.9469,5.731,5.6223,5.5866,5.6087,5.8151,6.3457,6.6809,7.0745,7.6568,0.0,0.0,0.0,0.0,0.0,0.0,0.0,0.0,0.0,0.0,0.0,9.8488,10.0707,10.2819,10.4718,10.7854,10.9065,10.8071,10.9937,11.0453,10.9529,11.0543,11.1274,11.1862,11.1862,11.2147,0.0,0.0,0.0,0.0,11.1973,11.1911,11.1933,11.1933,11.2219,11.2736,11.2736,11.3111,11.3789,11.4791,11.6164,11.7648,11.8608,12.0217,12.1895,12.2482,12.4961,12.7511,12.7511,12.7743,12.797,12.7638,12.7511,12.7403,12.7047,12.6542,12.6005,12.6005,12.5638,12.5051,12.4675,12.4568,12.4449,12.4095,12.3502,12.3313,12.3878,12.3815,12.3905,12.4521,12.4903,12.5125,12.5125,12.5125,12.5696,12.6931,12.6395,12.607,12.6025,12.5434,12.5538,12.6592,12.7827,12.9423,13.1486,13.3352,13.4792,13.5757,13.7401,13.9482,14.2003,14.3811,14.5196,7.8219,7.943,8.0664,8.0821,8.047,7.8834,7.4281,7.1165,6.7678,6.1957,5.9631,5.8415,5.8144,5.8763,6.1318,6.7647,7.0609,7.4341,8.0863,0.0,0.0,0.0,0.0,0.0,0.0,0.0,0.0,0.0,0.0,0.0,10.0686,10.346,10.6243,10.8729,11.033,11.0615,10.96,11.172,11.2147,11.1203,11.2219,11.2736,11.2736,11.2736,11.2736,0.0,0.0,0.0,0.0,11.2736,11.2736,11.2736,11.2736,11.2736,11.2736,11.3111,11.3519,11.442,11.6411,11.8024,11.9477,12.1064,12.2802,12.4326,12.4326,12.6081,12.8094,12.8094,12.8094,12.8094,12.8094,12.8094,12.8169,12.8742,12.8295,12.7864,12.8447,12.8077,12.7584,12.725,12.7175,12.7087,12.6789,12.6735,12.6739,12.6735,12.6959,12.7172,12.7169,12.7443,12.7429,12.6912,12.6838,12.7419,12.8717,12.8393,12.7818,12.7179,12.77,12.8208,12.8751,13.0522,13.2385,13.4468,13.5806,13.6843,13.7815,13.8339,14.0059,14.29,14.447,14.6116,8.0889,8.2624,8.3981,8.3981,8.54,8.4552,0.0,7.4908,7.2608,6.4804,6.3233,6.2891,6.2,6.3918,6.6218,6.8465,7.212,7.6702,8.2438,8.717,0.0,0.0,0.0,0.0,0.0,0.0,0.0,0.0,0.0,0.0,10.3675,10.6505,10.8854,11.0401,11.1933,11.2736,11.2736,11.2736,11.2736,11.2736,11.2736,11.2736,11.2736,11.2736,11.2736,11.2736,0.0,0.0,0.0,11.2736,11.2736,11.2736,11.2736,11.2736,11.2808,11.3754,11.406,11.4522,11.7062,11.9621,12.2005,12.3711,12.6007,12.8094,12.8094,12.8094,12.8094,12.8094,12.8094,12.8094,12.8094,12.8094,12.8543,13.0088,13.0437,13.096,13.2581,13.2956,13.267,13.1649,13.1441,13.1146,13.0191,13.0043,13.0116,13.0149,13.0852,13.1463,13.1435,13.2302,13.2356,13.0637,13.0412,13.0412,13.0412,12.8991,12.8169,12.8468,13.0137,13.1185,13.1683,13.4801,13.6245,13.5923,13.7516,13.8189,13.7815,13.9535,14.118,14.29,14.447,14.6116,8.4182,8.5069,8.6001,8.6489,8.662,8.5203,0.0,7.6372,7.316,6.6999,6.4363,6.3416,6.4293,6.4971,6.7121,7.2274,7.5974,8.0398,8.654,9.1538,0.0,0.0,0.0,0.0,0.0,0.0,0.0,0.0,0.0,0.0,10.6755,11.0239,11.2485,11.295,11.4129,11.4343,11.3682,11.3682,11.3397,11.2736,11.2736,11.3111,11.3682,11.3682,11.4058,11.4719,11.4719,0.0,0.0,11.3986,11.3682,11.3611,11.295,11.2736,11.2736,11.3022,11.3572,11.4568,11.7647,12.0018,12.2165,12.4901,12.6898,12.8094,12.8094,12.8094,12.8094,12.8094,12.8094,12.8094,12.8094,12.8966,13.0163,13.1784,13.2207,13.238,13.2829,13.2978,13.2873,13.2503,13.2486,13.2451,13.2153,13.2114,13.2072,13.2102,13.2279,13.2507,13.2467,13.2776,13.273,13.2282,13.2207,13.1734,13.0537,12.919,12.8966,13.0163,13.1027,13.2511,13.4892,13.5949,13.6822,13.7644,13.8114,13.8189,13.7815,13.9535,14.118,14.29,14.447,14.6116,8.587,8.6519,8.7307,8.8312,8.8012,8.6473,8.2704,0.0,7.4401,6.966,6.6267,6.4755,6.6605,6.7985,7.075,7.6703,8.0922,8.5509,9.1316,0.0,0.0,0.0,0.0,0.0,0.0,0.0,0.0,0.0,0.0,0.0,11.0989,11.3325,11.4624,11.4668,11.5178,11.5178,11.4667,11.4636,11.4343,11.3754,11.3754,11.4129,11.4647,11.4652,11.4959,11.5469,11.5469,0.0,0.0,11.4449,11.405,11.4058,11.3111,11.2736,11.2736,11.3183,11.3643,11.4649,11.8213,12.0465,12.2269,12.5452,12.7272,12.8094,12.8094,12.8094,12.8094,12.8094,12.8094,12.8094,12.8094,12.9265,13.0986,13.338,13.395,13.4121,13.4719,13.4869,13.4869,13.4869,13.4899,13.4927,13.4927,13.4951,13.4899,13.4899,13.4899,13.4899,13.4951,13.4951,13.4651,13.4002,13.3978,13.358,13.2581,13.126,13.1002,13.2076,13.3162,13.4669,13.6776,13.7307,13.7972,13.8579,13.8496,13.8488,13.8787,14.0507,14.2227,14.3872,14.5443,14.6789,8.6601,8.7347,8.8312,8.9768,8.9618,8.8428,8.6117,0.0,0.0,7.2583,6.8942,6.7015,6.8942,7.2051,7.605,8.1386,8.6475,9.1453,0.0,0.0,0.0,0.0,0.0,0.0,0.0,0.0,0.0,0.0,0.0,0.0,11.5474,11.5546,11.5616,11.562,11.5666,11.5666,11.5591,11.5543,11.5546,11.5474,11.5474,11.5474,11.5572,11.5549,11.5591,11.5666,11.5666,0.0,0.0,11.462,11.4209,11.4058,11.3111,11.2736,11.2808,11.3682,11.4012,11.4538,11.8657,12.0706,12.2119,12.5357,12.7122,12.7945,12.8094,12.8094,12.8094,12.8094,12.8094,12.8094,12.8094,12.9415,13.1435,13.4548,13.5519,13.6117,13.7516,13.7815,13.7815,13.7815,13.7815,13.7815,13.7815,13.7815,13.7815,13.7815,13.7815,13.7815,13.7815,13.7815,13.7292,13.5848,13.5549,13.545,13.5251,13.4228,13.3733,13.394,13.5917,13.7284,13.7663,13.8802,13.9269,13.9024,13.8629,13.9086,14.0358,14.2078,14.3667,14.5218,14.6938,14.7761,8.742,8.8881,9.0481,9.0849,9.1677,9.1533,8.799,8.5299,0.0,0.0,7.2689,7.1772,7.0464,0.0,7.9058,0.0,8.9443,0.0,0.0,0.0,0.0,0.0,0.0,0.0,0.0,0.0,0.0,0.0,0.0,0.0,11.6404,11.6553,11.6521,11.6533,11.7251,11.7251,11.6533,11.6521,11.6127,11.5459,11.5459,11.583,11.6553,11.6523,11.6907,11.7625,11.7625,0.0,11.6459,11.5516,11.4724,11.4058,11.3111,11.2736,11.2736,11.295,11.2991,11.353,11.6881,11.9129,12.1148,12.4422,12.6101,12.6998,12.787,12.8094,12.8094,12.8094,12.8094,12.8094,12.8094,13.0238,13.2607,13.3299,13.5445,13.7441,13.774,13.7815,13.7815,13.7815,13.7815,13.7815,13.7815,13.7815,13.7815,13.7815,13.7815,13.7815,13.7815,13.7815,13.7666,13.7367,13.6199,13.5026,13.3854,13.3828,13.4002,13.4395,13.6221,13.7967,13.9334,13.9713,13.9553,13.8988,13.887,13.9364,14.0337,14.2078,14.3723,14.5218,14.6938,14.7761,8.8093,8.963,9.1304,9.2121,9.2874,9.3213,9.1943,0.0,0.0,0.0,0.0,7.5084,7.485,0.0,0.0,0.0,0.0,0.0,0.0,0.0,0.0,0.0,0.0,0.0,0.0,0.0,0.0,0.0,0.0,11.4844,11.7401,11.7476,11.7476,11.7476,11.7924,11.7924,11.7476,11.7476,11.7251,11.6758,11.6758,11.6982,11.7476,11.7476,11.7775,11.8149,11.8149,0.0,11.7384,11.5992,11.5172,11.4558,11.3254,11.2736,11.2736,11.2736,11.3254,11.4201,11.6615,11.8846,12.1299,12.4229,12.5814,12.6699,12.7795,12.8094,12.8094,12.8094,12.8094,12.8094,12.8094,13.0511,13.2981,13.2926,13.5445,13.7815,13.7815,13.7815,13.7815,13.7815,13.7815,13.7815,13.7815,13.7815,13.7815,13.7815,13.7815,13.7815,13.7815,13.7815,13.7815,13.7815,13.6521,13.5675,13.575,13.5582,13.5853,13.6751,13.7967,13.903,13.9941,13.9809,13.9453,13.899,13.884,13.9236,14.0358,14.122,14.2864,14.5218,14.6059,14.7013,8.8358,8.9883,9.1528,9.3134,9.3696,9.4333,9.5716,9.254,0.0,0.0,0.0,7.8672,7.9726,8.1862,0.0,9.1938,0.0,0.0,0.0,0.0,10.8577,0.0,0.0,0.0,0.0,0.0,0.0,0.0,0.0,11.5935,11.8074,11.8149,11.8149,11.8149,11.8149,11.8149,11.8149,11.8149,11.8149,11.8149,11.8149,11.8149,11.8149,11.8149,11.8149,11.8149,11.8149,0.0,11.786,11.6198,11.5343,11.5076,11.3397,11.2736,11.2736,11.2736,11.354,11.4933,11.6812,11.8895,12.1416,12.4206,12.5708,12.655,12.772,12.8094,12.8094,12.8094,12.8094,12.8094,12.8094,13.0511,13.2981,13.2926,13.5445,13.7815,13.7815,13.7815,13.7815,13.7815,13.7815,13.7815,13.7815,13.7815,13.7815,13.7815,13.7815,13.7815,13.7815,13.7815,13.7815,13.7815,13.6865,13.6774,13.7998,13.7669,13.7891,13.8954,13.9638,13.9941,13.9941,13.9657,13.932,13.9019,13.8671,13.9161,14.0453,14.0417,14.1985,14.5237,14.5237,14.6134,8.8238,8.9883,9.1528,9.3062,9.4594,9.579,9.5977,9.5491,9.3549,8.8549,0.0,8.5218,8.2224,0.0,9.0331,9.4146,0.0,10.5919,10.768,10.9367,10.989,10.8428,10.9741,11.1387,11.2826,11.4395,11.6085,11.77,11.7775,11.785,11.8149,11.8149,11.8149,11.8149,11.8149,11.8149,11.8149,11.8149,11.8149,11.8149,11.8149,11.8149,11.8149,11.8149,11.8149,11.8149,11.8149,11.7775,11.6907,11.5854,11.5063,11.4201,11.3183,11.2736,11.2736,11.2736,11.2879,11.345,11.6451,11.8277,11.9939,12.392,12.5269,12.5727,12.7571,12.8094,12.8094,12.8094,12.8094,12.8094,12.8094,13.0511,13.2981,13.2926,13.5445,13.7815,13.7815,13.7815,13.7815,13.7815,13.7815,13.7815,13.7815,13.7815,13.7815,13.7815,13.7815,13.7815,13.7815,13.7815,13.7815,13.7815,13.7965,13.7726,13.6755,13.819,13.865,13.7739,13.9106,13.9941,13.9941,13.9925,13.9673,13.9294,13.9049,13.9588,14.086,14.0547,14.2042,14.5199,14.5162,14.6134,8.6775,8.9135,9.1268,9.2016,9.3399,9.4894,9.579,9.6014,9.5342,9.2951,9.0712,0.0,0.0,0.0,0.0,0.0,0.0,0.0,10.7958,10.8909,10.9142,0.0,11.0605,0.0,11.323,11.5591,11.7401,0.0,11.8298,11.8298,11.8149,11.8149,11.8149,11.8149,11.8149,11.8149,11.8149,11.8149,11.8149,11.8149,11.8149,11.8149,11.8149,11.8149,11.8149,11.8149,0.0,11.7924,11.7551,11.6608,11.5671,11.479,11.3915,11.3254,11.2736,11.2736,11.3325,11.4415,11.661,11.7685,11.8775,12.2511,12.4388,12.5578,12.7496,12.8094,12.8094,12.8094,12.8094,12.8094,12.8094,12.9789,13.1734,13.2702,13.4794,13.6715,13.7666,13.7815,13.7815,13.7815,13.7815,13.7815,13.7815,13.7815,13.7815,13.7815,13.7815,13.7815,13.7815,13.7815,13.7815,13.7815,13.7516,13.7428,13.7807,13.8119,13.8423,13.8802,13.9562,13.9941,13.9941,13.9941,13.9789,13.941,13.9158,13.9185,13.9514,13.9107,14.0154,14.2526,14.3443,14.4714,8.5653,8.7972,9.0107,9.0934,9.2018,9.3362,9.4968,9.5342,9.5491,9.594,9.3325,9.1272,0.0,0.0,0.0,9.8894,10.2209,0.0,10.8437,10.8941,0.0,10.8428,0.0,11.3524,11.3379,11.6459,0.0,0.0,11.8344,11.8373,11.8224,11.8149,11.8149,11.8149,11.8149,11.8149,11.8149,11.8149,11.8149,11.8149,11.8149,11.8149,11.8149,11.8149,11.8149,11.8149,11.8149,11.8149,11.8074,11.6907,11.6083,11.5367,11.4211,11.3325,11.2736,11.2736,11.3468,11.4719,11.6329,11.7131,11.7946,12.1513,12.3801,12.5578,12.7496,12.8094,12.8094,12.8094,12.8094,12.8094,12.8094,12.9265,13.0836,13.253,13.3897,13.5445,13.7367,13.7516,13.7367,13.774,13.7815,13.7815,13.7815,13.7815,13.7815,13.7815,13.7815,13.7815,13.7815,13.7815,13.789,13.7965,13.7441,13.7654,13.8946,13.8423,13.865,13.9865,13.9941,13.9941,13.9941,13.9941,13.9789,13.9562,13.9182,13.8882,13.8563,13.804,13.8659,14.0398,14.1649,14.3069,8.5653,8.6252,8.7116,9.0336,9.1232,9.1681,9.3286,9.3623,9.4109,9.5716,9.4557,9.381,0.0,0.0,9.7361,10.2337,10.4654,10.6965,11.019,11.0905,11.0456,0.0,0.0,0.0,0.0,0.0,0.0,11.8207,0.0,11.8224,11.8149,11.8149,11.8149,11.8149,11.8149,11.8149,11.8149,11.8149,11.8149,11.8149,11.8149,11.8149,11.8149,11.8149,11.8149,11.8149,11.8149,11.8149,11.8074,11.6234,11.5545,11.5307,11.3471,11.2736,11.2736,11.2736,11.2808,11.3111,11.4719,11.6168,11.7976,12.1466,12.3801,12.5578,12.7496,12.8094,12.8094,12.8094,12.8094,12.8094,12.8094,12.9265,13.0886,13.2581,13.3029,13.3972,13.7142,13.6641,13.6043,13.7516,13.7815,13.7815,13.7815,13.7815,13.7815,13.7815,13.7815,13.7815,13.7815,13.7815,13.7965,13.8339,13.8638,13.8973,13.9326,13.9638,13.9865,13.9941,13.9941,13.9941,13.9941,13.9941,13.9941,13.9941,13.9334,13.8958,13.899,13.8189,13.8659,14.0323,14.0453,14.1405,8.3901,8.4616,8.5404,8.8727,8.9549,8.9958,9.1638,9.2012,9.2461,9.4067,9.3959,9.4034,9.5715,9.5977,9.766,10.2561,10.3941,10.5429,10.8727,10.9292,10.9142,10.8727,11.1763,11.3836,0.0,0.0,0.0,11.8265,11.8314,11.8373,11.8149,11.8149,11.8149,11.8149,11.8149,11.8149,11.8149,11.8149,11.8149,11.8149,11.8149,11.8149,11.8149,11.8149,11.8149,11.8149,11.8149,11.8149,11.8074,11.6832,11.5959,11.5395,11.4167,11.3254,11.2736,11.2736,11.2736,11.2808,11.3397,11.4558,11.6221,11.8089,12.0287,12.2293,12.3612,12.5155,12.6475,12.6475,12.7272,12.8094,12.8094,12.8468,12.934,13.096,13.1334,13.1902,13.4202,13.4301,13.4047,13.457,13.4644,13.4644,13.4644,13.4644,13.5018,13.6117,13.5445,13.5093,13.6192,13.6342,13.679,13.8264,13.8765,13.9112,13.9333,13.9713,13.9941,13.9941,13.9941,13.9941,13.9941,13.9941,13.9941,13.9941,13.9334,13.8958,13.899,13.8189,13.8114,13.8734,13.9834,14.0657,8.0323,0.0,8.347,8.5628,8.7381,8.8945,9.0101,9.0325,9.0774,9.2386,9.2727,9.3437,9.5641,9.5977,9.7472,10.1888,10.3044,10.4383,10.7082,10.7979,10.8652,10.9442,11.2166,0.0,0.0,0.0,0.0,11.8224,11.8298,11.8373,11.8149,11.8149,11.8149,11.8149,11.8149,11.8149,11.8149,11.8149,11.8149,11.8149,11.8149,11.8149,11.8149,11.8149,11.8149,11.8149,11.8149,11.8149,11.8074,11.6832,11.6028,11.5291,11.4129,11.3254,11.2736,11.2736,11.2736,11.2736,11.2736,11.3754,11.5273,11.671,11.8563,12.0596,12.1769,12.3335,12.4729,12.4707,12.5952,12.7272,12.7272,12.7646,12.8468,13.0013,12.9988,13.0236,13.2457,13.2557,13.2305,13.2829,13.2978,13.2978,13.2978,13.2978,13.3352,13.4495,13.3673,13.3374,13.4525,13.5146,13.6267,13.8339,13.8843,13.9106,13.9562,13.9789,13.9941,13.9941,13.9941,13.9941,13.9941,13.941,13.903,13.8954,13.7891,13.7197,13.7142,13.6491,13.6192,13.6245,13.7367,13.8189,7.5437,0.0,8.1089,8.1163,8.4848,8.8387,8.8387,8.8496,8.8951,9.0749,9.116,9.2167,9.5267,9.594,9.7099,10.0278,10.226,10.3941,10.5741,10.7422,10.9217,11.0905,11.3084,11.4848,0.0,11.7415,11.8298,11.8149,11.8074,11.8149,11.8149,11.8149,11.8149,11.8149,11.8149,11.8149,11.8149,11.8149,11.8149,11.8149,11.8149,11.8149,11.8149,11.8149,11.8149,11.8149,11.8149,11.8149,11.8074,11.6234,11.5439,11.5254,11.3486,11.2736,11.2736,11.2736,11.2736,11.2736,11.2736,11.3682,11.5291,11.7278,11.8963,12.0479,12.2325,12.2924,12.2953,12.2988,12.4184,12.5503,12.5578,12.6774,12.8393,12.9938,12.919,12.8966,13.2132,13.1484,13.0886,13.2506,13.2806,13.2806,13.2806,13.2806,13.2831,13.2851,13.2798,13.2829,13.2756,13.4301,13.6342,13.8766,13.8994,13.9258,13.9865,13.9941,13.9865,13.9865,13.9865,13.9789,13.9789,13.8195,13.7208,13.698,13.4929,13.3826,13.3598,13.3172,13.3001,13.2978,13.2955,13.3852,7.9055,0.0,0.0,7.9115,8.1369,8.327,8.3291,8.4237,8.5946,8.8761,9.0338,9.1421,9.2315,9.4408,9.6725,9.8856,10.0503,10.2598,10.5517,10.6415,10.7347,10.9142,11.2069,11.3982,11.4057,11.4614,11.5544,11.6683,11.6533,11.6982,11.8373,11.8298,11.8149,11.8149,11.8149,11.8149,11.8149,11.8149,11.8149,11.8149,11.8149,11.8149,11.8149,11.8149,11.8149,11.8149,11.8149,11.8149,11.8074,11.6234,11.5506,11.524,11.3441,11.2736,11.2736,11.2736,11.2736,11.2736,11.2736,11.3022,11.354,11.479,11.5881,11.6965,11.8221,11.984,12.1382,12.1336,12.2458,12.4001,12.5301,12.5899,12.6722,12.8368,12.8393,12.8319,12.9265,12.9116,12.8891,12.934,12.9415,12.9415,12.9415,12.9415,12.9864,13.0936,13.0188,12.944,12.9415,13.1883,13.5025,13.8616,13.8994,13.9258,13.9865,13.8802,13.8119,13.8119,13.698,13.6297,13.6297,13.5841,13.5461,13.5234,13.4339,13.3801,13.3598,13.315,13.2978,13.2978,13.2955,13.3254,7.4066,0.0,0.0,0.0,7.4862,7.7015,8.049,8.0981,8.1809,8.5749,8.7905,8.9293,8.9965,9.2242,9.4781,0.0,9.8819,10.0839,10.3457,10.5028,10.6599,10.8245,11.0231,11.1695,11.2219,11.3042,11.3941,11.4977,11.5407,11.6182,11.7296,11.785,11.8149,11.8149,11.8149,11.8149,11.8149,11.8149,11.8149,11.8149,11.8149,11.8149,11.8149,11.8149,11.8149,11.8149,11.8149,11.8149,11.8074,11.6234,11.5457,11.531,11.345,11.2736,11.2736,11.2736,11.2736,11.2736,11.2736,11.2736,11.2897,11.4252,11.5029,11.5681,11.699,11.8448,11.969,11.969,12.0858,12.2325,12.3327,12.4029,12.4777,12.5776,12.6524,12.7047,12.7096,12.7571,12.8094,12.8094,12.8094,12.8094,12.8094,12.8094,12.8169,12.8393,12.8244,12.8094,12.8094,13.096,13.3879,13.6192,13.7986,13.8991,13.8877,13.736,13.6448,13.6373,13.5461,13.493,13.493,13.4095,13.3563,13.3335,13.1497,13.0412,13.0236,12.9265,12.8816,12.8816,12.954,12.9465,6.4433,0.0,0.0,6.5106,6.662,6.981,0.0,0.0,7.6163,8.1314,8.3633,8.537,8.7468,8.9331,9.1644,9.4968,9.7024,9.8856,10.0388,10.3343,10.5851,10.7313,10.7796,10.8577,11.0115,11.177,11.2818,11.3042,11.4341,11.532,11.5725,11.7131,11.7999,11.8149,11.8149,11.8149,11.8149,11.8149,11.8149,11.8149,11.8149,11.8149,11.8149,11.8149,11.8149,11.8149,11.8149,11.8149,11.8074,11.6234,11.5493,11.5302,11.3473,11.2736,11.2736,11.2736,11.2736,11.2736,11.2736,11.2736,11.3002,11.487,11.5467,11.5856,11.7618,11.8149,11.8149,11.8149,11.9316,12.0484,12.0708,12.1785,12.286,12.3009,12.4206,12.5301,12.5301,12.6449,12.7571,12.7496,12.7571,12.7571,12.7496,12.772,12.7272,12.5578,12.6699,12.7795,12.7795,13.0661,13.2632,13.2649,13.6117,13.8069,13.7124,13.5689,13.4778,13.4626,13.4246,13.4095,13.4019,13.2196,13.0979,13.0728,12.7443,12.5578,12.5279,12.381,12.3014,12.3089,12.4557,12.4307,0.0,0.0,0.0,0.0,0.0,0.0,0.0,0.0,6.6234,7.2465,7.5108,7.754,8.1875,8.512,8.8176,9.157,9.4595,9.7099,9.8779,10.0612,10.1997,10.2256,10.4723,10.6517,10.6816,10.8353,10.989,11.1429,11.167,11.3021,11.5935,11.616,11.6758,11.8149,11.8149,11.8149,11.8149,11.8149,11.8149,11.8149,11.8149,11.8149,11.8149,11.8149,11.8149,11.8149,11.8149,11.8149,11.8074,11.6234,11.5428,11.5313,11.3422,11.2736,11.2736,11.2736,11.2736,11.2736,11.2736,11.2736,11.3018,11.4887,11.5467,11.5824,11.7666,11.8149,11.8149,11.8149,11.8373,11.9017,12.0363,12.0916,12.1439,12.2757,12.3281,12.3533,12.3511,12.381,12.4034,12.4056,12.4083,12.4083,12.4001,12.5151,12.5503,12.3761,12.4931,12.6101,12.6101,12.8966,13.0936,13.0879,13.3321,13.4829,13.4618,13.3639,13.3032,13.3032,13.045,12.8855,12.8628,12.6957,12.5762,12.5156,12.4421,12.3859,12.3552,12.3186,12.3014,12.3014,12.3362,12.2289,0.0,0.0,0.0,0.0,0.0,0.0,0.0,0.0,0.0,0.0,0.0,7.0189,0.0,0.0,8.3483,8.6909,9.0936,9.4445,9.6911,9.8704,9.975,9.9715,10.1917,10.3744,10.4566,10.5354,10.6592,10.8428,10.9142,11.0713,11.3363,11.4889,11.6085,11.6907,11.7775,11.8149,11.8149,11.8149,11.8149,11.8149,11.8149,11.8149,11.8149,11.8149,11.8149,11.8149,11.8149,11.8149,11.8074,11.6724,11.5565,11.4663,11.3233,11.2736,11.2736,11.2736,11.2736,11.2736,11.2736,11.2736,11.2875,11.3866,11.4213,11.4496,11.6376,11.6952,11.7102,11.7924,11.8149,11.8373,11.9196,11.942,11.9644,12.0438,12.1261,12.1888,12.1888,12.2513,12.3036,12.3009,12.3009,12.3056,12.3074,12.3103,12.286,12.199,12.3234,12.4627,12.5477,12.7694,12.9265,12.9265,13.1334,13.2396,13.1567,13.1376,13.1285,13.1285,12.8779,12.6805,12.5666,12.4645,12.3984,12.3655,12.271,12.2084,12.1876,12.1065,12.0644,12.057,11.7655,11.5879,0.0,0.0,0.0,0.0,0.0,0.0,0.0,0.0,0.0,0.0,0.0,0.0,0.0,0.0,0.0,8.222,8.7244,9.1719,9.4632,9.6275,9.7359,9.8034,9.9452,10.1089,10.2773,10.3262,10.3935,10.5321,10.6633,10.817,11.0156,11.2765,11.4515,11.5188,11.6578,11.7401,11.77,11.7401,11.7401,11.77,0.0,0.0,11.77,11.7999,11.8149,11.8149,11.8149,11.8149,11.8103,11.7234,11.5838,11.414,11.2475,11.1809,11.1809,11.1809,11.1809,11.1809,11.1809,11.1809,11.1873,11.2335,11.2444,11.2842,11.4637,11.5232,0.0,11.7251,11.77,11.7775,11.8074,11.8149,11.8149,11.8149,11.9196,12.0214,12.0214,12.1186,12.2084,12.2084,12.213,12.2101,12.2101,12.1082,12.0064,11.9765,12.1382,12.3074,12.445,12.6321,12.7742,12.8019,12.9789,13.0485,12.9157,12.9052,12.9235,12.9539,12.7464,12.4992,12.226,12.164,12.1307,12.1232,11.9286,11.8613,11.9316,11.7551,11.6653,11.6354,10.8357,10.5708,0.0,0.0,0.0,0.0,0.0,0.0,0.0,0.0,0.0,0.0,0.0,0.0,0.0,0.0,0.0,0.0,8.4711,8.9556,9.1458,9.1866,9.3059,9.5977,9.7772,9.9455,10.0986,10.2523,10.3535,10.3681,10.3866,10.5327,10.8401,0.0,0.0,0.0,0.0,11.4485,11.595,11.4559,11.459,11.5935,11.598,11.595,11.595,11.7521,11.8149,11.8149,11.8149,11.8149,11.8103,11.7234,11.6226,11.4807,11.0297,10.8598,10.8598,10.8598,10.8598,10.8598,10.8598,0.0,0.0,11.0364,11.0896,11.1214,11.3071,11.3587,11.3886,11.5532,11.598,11.6279,11.7775,11.8149,11.8149,11.8149,11.8298,11.8448,11.8448,11.8597,11.8747,11.8747,11.8747,11.8718,11.8718,11.8597,11.7924,11.6459,11.8942,12.1052,12.1247,12.3972,12.6423,12.7945,0.0,0.0,12.9041,12.6894,12.6198,12.7716,12.4736,12.0751,11.5794,11.4005,11.2931,11.2587,11.0638,11.1162,11.4126,11.2453,11.1301,11.0222,9.4011,9.0321,0.0,0.0,0.0,0.0,0.0,0.0,0.0,0.0,0.0,0.0,0.0,0.0,0.0,0.0,0.0,0.0,7.8677,8.3221,8.3853,8.7272,9.059,9.2909,9.4594,9.5865,9.6538,9.7248,9.8108,9.9081,10.0054,10.1588,10.391,10.5855,10.7986,11.0306,11.1312,11.2658,11.4229,11.3662,11.3408,11.3545,11.3494,11.3253,11.2876,11.4069,11.458,11.458,11.4587,11.4563,11.4461,11.3042,11.2252,0.0,0.0,0.0,0.0,0.0,10.5958,10.6814,10.7742,10.7456,10.6709,10.7033,10.6509,10.604,10.7839,10.898,11.0192,11.2229,11.4186,11.5831,11.6504,11.7476,11.8149,11.8149,11.8149,11.8149,11.8149,11.8149,11.8149,11.8149,11.8149,0.0,11.8149,11.8149,11.7924,11.7251,11.8298,11.9615,12.0558,12.2682,12.4478,12.5375,12.6748,12.7665,12.7928,12.7058,0.0,0.0,0.0,12.2337,12.0132,11.7129,0.0,0.0,0.0,0.0,0.0,0.0,0.0,0.0,8.3434,8.216,0.0,0.0,0.0,0.0,0.0,0.0,0.0,0.0,0.0,0.0,0.0,0.0,0.0,0.0,0.0,0.0,0.0,7.7741,7.8072,8.3022,8.7381,8.9549,9.1606,9.2615,9.198,9.2838,9.3921,9.5004,9.6387,9.7845,9.9454,10.2299,10.4619,10.619,10.7911,10.9591,11.1312,11.0616,11.0144,10.999,10.9738,10.9583,10.9474,11.054,11.1282,11.1651,11.1678,11.1661,11.153,11.0072,10.9425,10.906,10.5307,10.3817,10.3675,10.2533,10.289,10.396,10.5102,10.4745,10.3695,10.2906,10.1891,10.1145,10.217,10.3733,10.5615,10.7825,11.0958,11.3737,11.4186,11.5606,11.6878,11.6878,11.6878,11.6878,11.6878,11.6878,11.6952,11.7401,11.7102,11.6878,11.6878,11.6878,11.6878,11.6878,11.7177,0.0,11.9794,12.1813,12.3383,12.4178,12.61,12.7379,12.7711,12.7185,12.7337,12.8552,12.5008,12.2821,12.2759,11.8626,11.559,11.384,10.6059,9.9995,0.0,0.0,0.0,0.0,0.0,0.0,0.0,0.0,0.0,0.0,0.0,0.0,0.0,0.0,0.0,0.0,0.0,0.0,0.0,0.0,0.0,0.0,0.0,0.0,7.6438,7.9406,8.2695,8.5867,8.9257,9.0375,8.8063,9.1271,9.3286,9.2652,9.3286,9.4369,9.6089,9.7809,9.9529,10.1099,10.2745,10.4464,10.6184,10.3798,10.3438,10.4946,10.4234,10.4696,10.6117,10.7794,10.9398,11.0804,11.0868,11.0868,11.074,10.9791,10.9425,10.877,10.1722,9.8965,9.8965,9.8894,9.8894,9.8965,9.9037,9.9037,9.8836,9.7996,9.7757,9.7592,9.6887,9.8323,10.0517,10.2273,10.5543,10.8876,11.0521,11.2167,11.3513,11.3513,11.3513,11.3513,11.3513,11.3513,11.3961,11.5457,11.4485,11.3513,11.3513,11.3513,11.3513,11.3513,11.4784,0.0,11.8074,12.1065,12.3757,12.5675,12.7744,12.911,12.9386,12.6729,12.5059,12.5135,12.1655,11.9705,11.966,11.459,11.0958,10.9142,10.2221,9.5491,8.8911,0.0,0.0,0.0,0.0,0.0,0.0,0.0,0.0,0.0,0.0,0.0,0.0,0.0,0.0,0.0,0.0,0.0,0.0,0.0,0.0,0.0,0.0,0.0,0.0,0.0,7.7532,8.0802,8.2213,8.1617,7.8276,8.1177,8.2987,8.2428,8.6824,8.9884,9.0479,9.3474,9.594,9.766,9.9305,10.095,10.2595,10.2384,10.2299,10.228,10.1571,10.1155,10.1245,10.2312,10.3085,10.3528,10.3528,10.3528,10.3533,10.2685,10.1087,9.8786,9.5334,9.4042,9.3899,9.2829,9.3114,9.4042,9.4042,9.4684,9.533,9.398,9.2904,9.2106,9.2292,9.4063,9.6376,9.8521,10.1997,10.5661,10.8428,11.0372,11.1942,11.3064,11.3363,11.3363,11.3363,11.3363,11.3513,11.4036,11.0148,10.611,10.3941,10.7156,10.8876,10.5586,11.0222,11.4709,11.6279,11.957,12.2486,12.443,12.6474,12.8217,12.969,12.7868,12.6577,12.6426,12.2993,12.0827,12.0558,11.6578,11.3992,11.3363,10.7829,9.8557,8.5396,0.0,0.0,0.0,0.0,0.0,0.0,0.0,0.0,0.0,0.0,0.0,0.0,0.0,0.0,0.0,0.0,0.0,0.0,0.0,0.0,0.0,0.0,0.0,0.0,0.0,0.0,7.7252,7.7752,0.0,7.2212,7.3577,7.4446,7.3726,7.9139,8.2683,8.3053,8.7641,9.1154,9.3025,9.5263,9.6904,9.7907,9.8197,9.7935,9.727,9.6459,9.6133,9.6183,9.6708,9.7279,9.7856,9.8361,9.8288,9.7641,9.6055,9.3471,9.0474,8.9475,8.8405,8.7406,8.7549,8.8191,8.9261,9.0332,9.1402,9.2044,9.1045,8.8191,8.4971,8.4331,8.5126,8.6892,9.017,9.4497,9.9155,10.3642,10.6035,10.768,10.94,10.9774,10.9774,10.9774,10.9325,10.8727,10.8203,10.4614,10.0277,9.579,9.9006,10.1249,9.8632,10.4315,11.0372,11.4335,11.8523,12.1696,12.3049,12.5464,12.7261,12.802,12.764,12.6724,12.5312,12.2889,12.0867,11.9436,11.6952,11.3737,10.9624,10.5212,9.5491,0.0,0.0,0.0,0.0,0.0,0.0,0.0,0.0,0.0,0.0,0.0,0.0,0.0,0.0,0.0,0.0,0.0,0.0,0.0,0.0,0.0,0.0,0.0,0.0,0.0,0.0,0.0,7.4734,7.5319,0.0,0.0,0.0,0.0,6.6913,7.0432,7.312,7.4298,8.0247,8.4745,8.7072,9.0335,9.2115,9.2368,9.1626,9.1002,9.0366,8.9604,9.0046,9.1473,9.1473,9.2258,9.3757,9.5255,9.5041,9.34,9.0046,8.6764,8.391,8.3696,8.1769,7.9558,8.2697,8.3767,8.4195,8.7478,8.8548,8.8477,8.8405,8.3339,7.6561,7.335,7.22,0.0,0.0,8.3294,8.9434,9.6164,9.908,10.08,10.2745,10.3193,10.3193,10.3193,10.1922,10.0202,0.0,9.7734,9.5416,8.8462,0.0,9.078,9.2051,9.6987,10.3492,11.1793,11.7551,12.1052,12.1661,12.4688,12.6122,12.4679,12.5969,12.538,12.186,12.1173,11.9391,11.6234,11.5307,10.9624,9.8482,9.4594,0.0,0.0,0.0,0.0,0.0,0.0,0.0,0.0,0.0,0.0,0.0,0.0,0.0,0.0,0.0,0.0,0.0,0.0,0.0,0.0,0.0,0.0,0.0,0.0,0.0,0.0,6.0222,6.3618,6.7189,6.5972,6.2799,0.0,0.0,0.0,0.0,0.0,0.0,6.7814,7.1914,7.6133,8.0171,8.318,8.6348,8.9859,9.0418,9.0549,9.0438,8.9604,8.9404,8.9832,8.9832,9.0046,9.0474,9.0831,9.076,8.9904,8.3268,7.8701,7.549,7.1923,7.0068,6.9711,7.2922,7.335,7.3064,7.863,7.9772,7.863,7.7417,0.0,7.1495,6.7142,0.0,0.0,0.0,0.0,7.9414,8.7266,9.0556,9.3098,9.8482,9.9753,9.9753,9.9753,9.9454,9.6837,0.0,8.6518,8.2031,7.0515,0.0,0.0,0.0,0.0,9.7959,10.5063,11.2883,11.8804,12.1434,12.263,12.3692,12.4527,12.3634,12.2559,12.1357,11.885,11.6504,11.4186,10.6857,10.0352,9.4893,0.0,0.0,0.0,0.0,0.0,0.0,0.0,0.0,0.0,0.0,0.0,0.0,0.0,0.0,0.0,0.0,0.0,0.0,0.0,0.0,0.0,0.0,0.0,0.0,0.0,0.0,0.0,5.5386,5.9741,6.2709,6.06,5.7404,0.0,0.0,0.0,0.0,0.0,0.0,0.0,0.0,0.0,7.1283,7.4191,7.7247,8.0605,8.2342,8.3367,8.3745,8.4674,8.5123,8.5123,8.5123,8.548,8.6193,8.6907,8.5194,8.1698,7.7274,7.1994,6.6357,0.0,0.0,0.0,0.0,6.4788,6.4788,7.0628,7.1559,0.0,6.9457,0.0,0.0,0.0,0.0,0.0,0.0,0.0,0.0,0.0,0.0,8.9958,9.5117,9.6314,9.6314,9.6314,9.0107,8.2854,0.0,7.4254,6.9394,5.9074,0.0,0.0,0.0,0.0,9.1304,10.0127,11.0264,11.7594,12.0067,12.1337,12.1998,12.1952,12.162,12.0633,11.8792,11.6354,11.254,10.7082,10.0053,9.1677,0.0,0.0,0.0,0.0,0.0,0.0,0.0,0.0,0.0,0.0,0.0,0.0,0.0,0.0,0.0,0.0,0.0,0.0,0.0,0.0,0.0,0.0,0.0,0.0,0.0,0.0,0.0,0.0,0.0,5.725,5.8813,0.0,0.0,0.0,0.0,0.0,0.0,0.0,0.0,0.0,0.0,0.0,0.0,0.0,6.6738,6.8706,7.1255,7.2905,7.3707,7.6632,7.8059,7.8059,7.7997,7.9066,8.0985,8.1341,0.0,7.2137,7.0853,0.0,0.0,0.0,0.0,0.0,0.0,0.0,0.0,0.0,0.0,0.0,0.0,0.0,0.0,0.0,0.0,0.0,0.0,0.0,0.0,0.0,0.0,8.6443,8.9584,9.078,9.093,0.0,7.7096,6.558,6.4683,6.2065,0.0,0.0,0.0,0.0,0.0,0.0,0.0,9.579,10.8394,11.6847,11.8418,12.0467,12.0868,11.87,11.9914,11.9166,11.5606,11.284,10.7156,9.766,9.3173,0.0,0.0,0.0,0.0,0.0,0.0,0.0,0.0,0.0,0.0,0.0,0.0,0.0,0.0,0.0,0.0,0.0,0.0,0.0,0.0,0.0,0.0,0.0,0.0,0.0,0.0,0.0,0.0,0.0,0.0,0.0,0.0,0.0,0.0,0.0,0.0,0.0,0.0,0.0,0.0,0.0,0.0,0.0,0.0,0.0,0.0,0.0,0.0,0.0,0.0,6.7285,6.8141,6.8213,6.7698,7.0096,7.4135,6.7856,6.6571,6.8284,6.0507,0.0,0.0,0.0,0.0,0.0,0.0,0.0,0.0,0.0,0.0,0.0,0.0,0.0,0.0,0.0,0.0,0.0,0.0,0.0,0.0,0.0,0.0,0.0,0.0,7.6423,7.747,0.0,0.0,0.0,0.0,0.0,0.0,0.0,0.0,0.0,0.0,0.0,0.0,8.921,10.4504,11.5576,11.8298,11.921,11.9365,11.8643,11.8597,11.7251,11.3961,10.581,9.7884,0.0,0.0,0.0,0.0,0.0,0.0,0.0,0.0,0.0,0.0,0.0,0.0,0.0,0.0,0.0,0.0,0.0,0.0,0.0,0.0,0.0,0.0,0.0,0.0,0.0,0.0,0.0,0.0,0.0,0.0,0.0,0.0,0.0,0.0,0.0,0.0,0.0,0.0,0.0,0.0,0.0,0.0,0.0,0.0,0.0,0.0,0.0,0.0,0.0,0.0,0.0,0.0,0.0,0.0,0.0,0.0,0.0,0.0,0.0,5.5953,0.0,0.0,0.0,0.0,0.0,0.0,0.0,0.0,0.0,0.0,0.0,0.0,0.0,0.0,0.0,0.0,0.0,0.0,0.0,0.0,0.0,0.0,0.0,0.0,0.0,0.0,0.0,0.0,0.0,0.0,0.0,0.0,0.0,0.0,0.0,0.0,0.0,0.0,0.0,0.0,8.6144,10.2111,11.408,11.7924,11.8597,11.8718,11.8373,11.7476,11.4036,10.7306,9.9188,0.0,0.0,0.0,0.0,0.0,0.0,0.0,0.0,0.0,0.0,0.0,0.0,0.0,0.0,0.0,0.0,0.0,0.0,0.0,0.0,0.0,0.0,0.0,0.0,0.0,0.0,0.0,0.0,0.0,0.0,0.0,0.0,0.0,0.0,0.0,0.0,0.0,0.0,0.0,0.0,0.0,0.0,0.0,0.0,0.0,0.0,0.0,0.0,0.0,0.0,0.0,0.0,0.0,0.0,0.0,0.0,0.0,0.0,0.0,5.2253,0.0,0.0,0.0,0.0,0.0,0.0,0.0,0.0,0.0,0.0,0.0,0.0,0.0,0.0,0.0,0.0,0.0,0.0,0.0,0.0,0.0,0.0,0.0,0.0,0.0,0.0,0.0,0.0,0.0,0.0,0.0,0.0,0.0,0.0,0.0,0.0,0.0,0.0,0.0,0.0,0.0,8.3901,10.0315,11.285,11.7177,11.8224,11.8448,11.8224,11.6653,11.1151,10.0572,9.2802,0.0,0.0,0.0,0.0,0.0,0.0,0.0,0.0,0.0,0.0,0.0,0.0,0.0,0.0,0.0,0.0,0.0,0.0,0.0,0.0,0.0,0.0,0.0,0.0,0.0,0.0,0.0,0.0,0.0,0.0,0.0,0.0,0.0,0.0,0.0,0.0,0.0,0.0,0.0,0.0,0.0,0.0,0.0,0.0,0.0,0.0,0.0,0.0,0.0,0.0,0.0,0.0,0.0,0.0,0.0,0.0,0.0,0.0,0.0,0.0,0.0,0.0,0.0,0.0,0.0,0.0,0.0,0.0,0.0,0.0,0.0,0.0,0.0,0.0,0.0,0.0,0.0,0.0,0.0,0.0,0.0,0.0,0.0,0.0,0.0,0.0,0.0,0.0,0.0,0.0,0.0,0.0,0.0,0.0,0.0,0.0,0.0,0.0,0.0,0.0,0.0,8.0835,9.8969,11.2401,11.5532,11.7476,11.8448,11.8224,11.6653,11.0211,9.7493,0.0,0.0,0.0,0.0,0.0,0.0,0.0,0.0,0.0,0.0,0.0,0.0,0.0,0.0,0.0,0.0,0.0,0.0,0.0,0.0,0.0,0.0,0.0,0.0,0.0,0.0,0.0,0.0,0.0,0.0,0.0,0.0,0.0,0.0,0.0,0.0,0.0,0.0,0.0,0.0,0.0,0.0,0.0,0.0,0.0,0.0,0.0,0.0,0.0,0.0,0.0,0.0,0.0,0.0,0.0,0.0,0.0,0.0,0.0,0.0,0.0,0.0,0.0,0.0,0.0,0.0,0.0,0.0,0.0,0.0,0.0,0.0,0.0,0.0,0.0,0.0,0.0,0.0,0.0,0.0,0.0,0.0,0.0,0.0,0.0,0.0,0.0,0.0,0.0,0.0,0.0,0.0,0.0,0.0,0.0,0.0,0.0,0.0,0.0,0.0,0.0,0.0,8.0311,9.7996,11.1312,11.5232,11.7401,11.8448,11.8224,11.5756,10.782,9.2762,0.0,0.0,0.0,0.0,0.0,0.0,0.0,0.0,0.0,0.0,0.0,0.0,0.0,0.0,0.0,0.0,0.0,0.0,0.0,0.0,0.0,0.0,0.0,0.0,0.0,0.0,0.0,0.0,0.0,0.0,0.0,0.0,0.0,0.0,0.0,0.0,0.0,0.0,0.0,0.0,0.0,0.0,0.0,0.0,0.0,0.0,0.0,0.0,0.0,0.0,0.0,0.0,0.0,0.0,0.0,0.0,0.0,0.0,0.0,0.0,0.0,0.0,0.0,0.0,0.0,0.0,0.0,0.0,0.0,0.0,0.0,0.0,0.0,0.0,0.0,0.0,0.0,0.0,0.0,0.0,0.0,0.0,0.0,0.0,0.0,0.0,0.0,0.0,0.0,0.0,0.0,0.0,0.0,0.0,0.0,0.0,0.0,0.0,0.0,0.0,0.0,0.0,7.9489,9.6987,11.0297,11.4485,11.7027,11.8373,11.8224,11.4859,10.5686,8.9218,0.0,0.0,0.0,0.0,0.0,0.0,0.0,0.0,0.0,0.0,0.0,0.0,0.0,0.0,0.0,0.0,0.0,0.0,0.0,0.0,0.0,0.0,0.0,0.0,0.0,0.0,0.0,0.0,0.0,0.0,0.0,0.0,0.0,0.0,0.0,0.0,0.0,0.0,0.0,0.0,0.0,0.0,0.0,0.0,0.0,0.0,0.0,0.0,0.0,0.0,0.0,0.0,0.0,0.0,0.0,0.0,0.0,0.0,0.0,0.0,0.0,0.0,0.0,0.0,0.0,0.0,0.0,0.0,0.0,0.0,0.0,0.0,0.0,0.0,0.0,0.0,0.0,0.0,0.0,0.0,0.0,0.0,0.0,0.0,0.0,0.0,0.0,0.0,0.0,0.0,0.0,0.0,0.0,0.0,0.0,0.0,0.0,0.0,0.0,0.0,0.0,0.0,7.7918,9.6015,10.9549,11.2989,11.6279,11.8149,11.8149,11.3917,10.4127,0.0,0.0,0.0,0.0,0.0,0.0,0.0,0.0,0.0,0.0,0.0,0.0,0.0,0.0,0.0,0.0,0.0,0.0,0.0,0.0,0.0,0.0,0.0,0.0,0.0,0.0,0.0,0.0,0.0,0.0,0.0,0.0,0.0,0.0,0.0,0.0,0.0,0.0,0.0,0.0,0.0,0.0,0.0,0.0,0.0,0.0,0.0,0.0,0.0,0.0,0.0,0.0,0.0,0.0,0.0,0.0,0.0,0.0,0.0,0.0,0.0,0.0,0.0,0.0,0.0,0.0,0.0,0.0,0.0,0.0,0.0,0.0,0.0,0.0,0.0,0.0,0.0,0.0,0.0,0.0,0.0,0.0,0.0,0.0,0.0,0.0,0.0,0.0,0.0,0.0,0.0,0.0,0.0,0.0,0.0,0.0,0.0,0.0,0.0,0.0,0.0,0.0,0.0,7.732,9.1257,10.3535,0.0,11.5457,11.6773,11.6504,11.3064,10.3984,8.7638,0.0,0.0,0.0,0.0,0.0,0.0,0.0,0.0,0.0,0.0,0.0,0.0,0.0,0.0,0.0,0.0,0.0,0.0,0.0,0.0,0.0,0.0,0.0,0.0,0.0,0.0,0.0,0.0,0.0,0.0,0.0,0.0,0.0,0.0,0.0,0.0,0.0,0.0,0.0,0.0,0.0,0.0,0.0,0.0,0.0,0.0,0.0,0.0,0.0,0.0,0.0,0.0,0.0,0.0,0.0,0.0,0.0,0.0,0.0,0.0,0.0,0.0,0.0,0.0,0.0,0.0,0.0,0.0,0.0,0.0,0.0,0.0,0.0,0.0,0.0,0.0,0.0,0.0,0.0,0.0,0.0,0.0,0.0,0.0,0.0,0.0,0.0,0.0,0.0,0.0,0.0,0.0,0.0,0.0,0.0,0.0,0.0,0.0,0.0,0.0,0.0,0.0,0.0,9.0284,10.2262,0.0,11.3662,11.5008,11.4784,11.1344,10.2711,8.7638,0.0,0.0,0.0,0.0,0.0,0.0,0.0,0.0,0.0,0.0,0.0,0.0,0.0,0.0,0.0,0.0,0.0,0.0,0.0,0.0,0.0,0.0,0.0,0.0,0.0,0.0,0.0,0.0,0.0,0.0,0.0,0.0,0.0,0.0,0.0,0.0,0.0,0.0,0.0,0.0,0.0,0.0,0.0,0.0,0.0,0.0,0.0,0.0,0.0,0.0,0.0,0.0,0.0,0.0,0.0,0.0,0.0,0.0,0.0,0.0,0.0,0.0,0.0,0.0,0.0,0.0,0.0,0.0,0.0,0.0,0.0,0.0,0.0,0.0,0.0,0.0,0.0,0.0,0.0,0.0,0.0,0.0,0.0,0.0,0.0,0.0,0.0,0.0,0.0,0.0,0.0,0.0,0.0,0.0,0.0,0.0,0.0,0.0,0.0,0.0,0.0,0.0,0.0,9.1902,10.4016,10.7829,11.1194,11.3064,11.2989,10.8759,10.0451,8.7127,7.7219,0.0,0.0,0.0,0.0,0.0,0.0,0.0,0.0,0.0,0.0,0.0,0.0,0.0,0.0,0.0,0.0,0.0,0.0,0.0,0.0,0.0,0.0,0.0,0.0,0.0,0.0,0.0,0.0,0.0,0.0,0.0,0.0,0.0,0.0,0.0,0.0,0.0,0.0,0.0,0.0,0.0,0.0,0.0,0.0,0.0,0.0,0.0,0.0,0.0,0.0,0.0,0.0,0.0,0.0,0.0,0.0,0.0,0.0,0.0,0.0,0.0,0.0,0.0,0.0,0.0,0.0,0.0,0.0,0.0,0.0,0.0,0.0,0.0,0.0,0.0,0.0,0.0,0.0,0.0,0.0,0.0,0.0,0.0,0.0,0.0,0.0,0.0,0.0,0.0,0.0,0.0,0.0,0.0,0.0,0.0,0.0,0.0,0.0,0.0,0.0,0.0,0.0,8.906,9.7734,10.7231,11.0148,11.0895,10.9549,10.6184,9.7957,8.363,7.5675,0.0,0.0,0.0,0.0,0.0,0.0,0.0,0.0,0.0,0.0,0.0,0.0,0.0,0.0,0.0,0.0,0.0,0.0,0.0,0.0,0.0,0.0,0.0,0.0,0.0,0.0,0.0,0.0,0.0,0.0,0.0,0.0,0.0,0.0,0.0,0.0,0.0,0.0,0.0,0.0,0.0,0.0,0.0,0.0,0.0,0.0,0.0,0.0,0.0,0.0,0.0,0.0,0.0,0.0,0.0,0.0,0.0,0.0,0.0,0.0,0.0,0.0,0.0,0.0,0.0,0.0,0.0,0.0,0.0,0.0,0.0,0.0,0.0,0.0,0.0,0.0,0.0,0.0,0.0,0.0,0.0,0.0,0.0,0.0,0.0,0.0,0.0,0.0,0.0,0.0,0.0,0.0,0.0,0.0,0.0,0.0,0.0,0.0,0.0,0.0,0.0,0.0,7.7021,8.7116,10.3193,10.7082,10.8203,10.7306,10.4165,9.594,8.1238,7.3271,0.0,0.0,0.0,0.0,0.0,0.0,0.0,0.0,0.0,0.0,0.0,0.0,0.0,0.0,0.0,0.0,0.0,0.0,0.0,0.0,0.0,0.0,0.0,0.0,0.0,0.0,0.0,0.0,0.0,0.0,0.0,0.0,0.0,0.0,0.0,0.0,0.0,0.0,0.0,0.0,0.0,0.0,0.0,0.0,0.0,0.0,0.0,0.0,0.0,0.0,0.0,0.0,0.0,0.0,0.0,0.0,0.0,0.0,0.0,0.0,0.0,0.0,0.0,0.0,0.0,0.0,0.0,0.0,0.0,0.0,0.0,0.0,0.0,0.0,0.0,0.0,0.0,0.0,0.0,0.0,0.0,0.0,0.0,0.0,0.0,0.0,0.0,0.0,0.0,0.0,0.0,0.0,0.0,0.0,0.0,0.0,0.0,0.0,0.0,0.0,0.0,0.0,0.0,7.747,9.6613,10.2819,10.5362,10.4838,10.1997,9.3848,7.9107,0.0,0.0,0.0,0.0,0.0,0.0,0.0,0.0,0.0,0.0,0.0,0.0,0.0,0.0,0.0,0.0,0.0,0.0,0.0,0.0,0.0,0.0,0.0,0.0,0.0,0.0,0.0,0.0,0.0,0.0,0.0,0.0,0.0,0.0,0.0,0.0,0.0,0.0,0.0,0.0,0.0,0.0,0.0,0.0,0.0,0.0,0.0,0.0,0.0,0.0,0.0,0.0,0.0,0.0,0.0,0.0,0.0,0.0,0.0,0.0,0.0,0.0,0.0,0.0,0.0,0.0,0.0,0.0,0.0,0.0,0.0,0.0,0.0,0.0,0.0,0.0,0.0,0.0,0.0,0.0,0.0,0.0,0.0,0.0,0.0,0.0,0.0,0.0,0.0,0.0,0.0,0.0,0.0,0.0,0.0,0.0,0.0,0.0,0.0,0.0,0.0,0.0,0.0,0.0,0.0,8.7415,9.766,10.267,9.9903,9.7884,9.0521,7.578,0.0,0.0,0.0,0.0,0.0,0.0,0.0,0.0,0.0,0.0,0.0,0.0,0.0,0.0]}],[{"header":{"parameterUnit":"kt","parameterCategory":2,"dx":1,"dy":1,"la1":29.285339999999998,"la2":30.599998999999997,"lo1":-89.70041500000002,"lo2":-87.6738589999976,"nx":112,"ny":82,"refTime":"2022-10-03T00:00:00:Z","depth":0,"parameterNumber":2,"parameterNumberName":"V-component_of_WINDS"},"data":[-4.9331,-4.3649,0.0,-3.5837,-2.9632,0.0,-1.9978,0.0,0.0,0.0,0.0,0.0,0.0,0.0,0.0,0.0,0.0,0.0,0.0,0.0,0.0,0.0,0.0,0.0,0.0,0.0,0.0,0.0,0.0,0.0,0.0,0.0,-5.7102,-5.7989,-5.7892,-5.7935,-5.7935,-5.7876,-5.791,-5.788,-5.6425,-5.6509,-5.7836,-5.4663,-5.2017,-4.9901,-4.9919,-5.0039,-5.0039,-5.0039,-5.0039,-5.0039,-5.0039,-5.0039,-4.9925,-4.9984,-5.0003,-5.0335,-5.2486,-5.405,-5.4955,-5.493,-5.5029,-5.5012,-5.5012,-5.5012,-5.5012,-5.5012,-5.5012,-5.5012,-5.5012,-5.5012,-5.5012,-5.5012,-5.5012,-5.5012,-5.5012,-5.5012,-5.5012,-5.5012,-5.5012,-5.4918,-5.5123,-5.4926,-5.6216,-5.9618,-6.0088,-6.0022,-6.0024,-6.0062,-6.0062,-6.0062,-6.0062,-6.0062,-6.0062,-6.0062,-6.0062,-6.0062,-6.0062,-6.0062,-6.0062,-6.0062,-6.0062,-6.0062,-6.0062,-6.0062,-6.0062,-6.0062,-6.0062,-6.0062,-6.0062,-6.0327,0.0,0.0,-3.3175,-3.7546,0.0,0.0,0.0,0.0,0.0,0.0,0.0,0.0,0.0,0.0,0.0,0.0,0.0,0.0,0.0,0.0,0.0,0.0,0.0,0.0,0.0,0.0,0.0,0.0,0.0,0.0,0.0,-5.6415,-5.7941,-5.7845,-5.799,-5.7935,-5.7935,-5.7935,-5.7979,-5.8006,-5.7521,-5.7586,-5.7919,-5.944,-5.6398,-5.0004,-5.0022,-4.9999,-5.0039,-5.0039,-5.0039,-5.0039,-4.9886,-4.9961,-5.0112,-5.1234,-5.1636,-5.1973,-5.4127,-5.5032,-5.5059,-5.5068,-5.5012,-5.5012,-5.5012,-5.5012,-5.5012,-5.5012,-5.5012,-5.5012,-5.5012,-5.5012,-5.5012,-5.5012,-5.5012,-5.5012,-5.5012,-5.4955,-5.5107,-5.5107,-5.5048,-5.4926,-5.5124,-5.6001,-5.7518,-5.982,-5.9984,-6.0062,-6.0062,-6.0062,-6.0062,-6.0062,-6.0062,-6.0062,-6.0062,-6.0062,-6.0062,-6.0062,-6.0062,-6.0062,-6.0062,-6.0062,-6.0062,-6.0062,-6.0062,-6.0062,-6.0062,-6.0062,-6.0062,-6.0062,-6.0631,-6.1314,0.0,0.0,0.0,-4.7944,0.0,0.0,0.0,0.0,-1.4956,0.0,0.0,0.0,0.0,0.0,0.0,0.0,0.0,0.0,0.0,0.0,0.0,0.0,0.0,0.0,0.0,0.0,0.0,0.0,0.0,0.0,-5.7786,-5.7842,-5.7845,-5.7886,-5.7935,-5.7935,-5.7935,-5.7935,-5.7935,-5.7984,-5.6802,-5.6878,-5.8294,-6.247,-5.9269,-5.0488,-5.0082,-4.9914,-5.0039,-4.9849,-4.9887,-4.9925,-4.9991,-5.0059,-5.044,-5.3886,-5.5019,-5.4917,-5.4917,-5.5097,-5.5012,-5.5012,-5.5012,-5.5012,-5.5012,-5.5012,-5.5012,-5.5012,-5.5012,-5.5012,-5.5012,-5.5012,-5.5012,-5.5012,-5.5012,-5.5012,-5.5012,-5.5048,-5.5076,-5.5113,-5.517,-5.5181,-5.5181,-5.7906,-5.9973,-6.0174,-6.0062,-6.0062,-6.0062,-6.0062,-6.0062,-6.0062,-6.0062,-6.0062,-6.0062,-6.0062,-6.0062,-6.0062,-6.0062,-6.0062,-6.0062,-6.0062,-6.0062,-6.0062,-6.0062,-6.0062,-6.0062,-6.0062,-6.01,-6.0138,-6.1808,-6.2985,-3.259,0.0,0.0,0.0,0.0,0.0,0.0,0.0,0.0,0.0,0.0,0.0,0.0,0.0,0.0,0.0,0.0,0.0,0.0,0.0,0.0,0.0,0.0,0.0,0.0,0.0,0.0,0.0,0.0,-5.6727,-5.779,-5.7993,-5.7889,-5.7886,-5.7935,-5.7935,-5.7935,-5.7935,-5.8325,-5.9057,-5.7928,-5.9173,-6.2603,-6.3848,-6.2969,-5.994,-5.3033,-5.0037,-4.9887,-4.9958,-4.9953,-4.9991,-5.004,-5.1486,-5.3744,-5.4586,-5.5007,-5.4953,-5.4953,-5.5068,-5.5012,-5.5012,-5.5012,-5.5012,-5.5012,-5.5012,-5.5012,-5.5012,-5.5012,-5.5012,-5.5012,-5.5012,-5.5012,-5.5012,-5.5012,-5.5012,-5.5012,-5.5048,-5.5689,-5.8214,-5.8662,-5.877,-5.8574,-5.9412,-6.006,-6.0024,-6.0062,-6.0062,-6.0062,-6.0062,-6.0062,-6.0062,-6.0062,-6.0062,-6.0062,-6.0062,-6.0062,-6.0062,-6.0062,-6.0062,-6.0062,-6.0062,-6.0062,-6.0062,-6.0062,-6.0062,-6.0062,-6.0631,-6.0935,-6.0973,-6.2643,-6.3516,0.0,0.0,0.0,0.0,0.0,0.0,-1.5649,0.0,-1.4962,0.0,0.0,0.0,0.0,0.0,0.0,0.0,0.0,0.0,0.0,0.0,0.0,0.0,0.0,0.0,0.0,0.0,0.0,0.0,0.0,-5.7916,-5.7992,-5.7841,-5.7935,-5.7935,-5.7935,-5.7935,-5.7935,-5.7935,-5.8222,-5.8789,-5.9429,-6.1315,-6.4385,-6.4333,-6.2152,-5.8025,-5.2303,-4.9887,-4.9883,-5.0028,-5.0747,-5.2171,-5.2047,-5.3315,-5.493,-5.5068,-5.5012,-5.5012,-5.5012,-5.5012,-5.5012,-5.5012,-5.5012,-5.5012,-5.5012,-5.5012,-5.5012,-5.5012,-5.5012,-5.5012,-5.5012,-5.5012,-5.5012,-5.5012,-5.5012,-5.505,-5.4897,-5.5039,-5.6001,-5.9482,-6.0046,-6.0148,-6.0088,-6.0022,-6.0062,-6.0062,-6.0062,-6.0062,-6.0062,-6.0062,-6.0062,-6.0062,-6.0062,-6.0062,-6.0062,-6.0062,-6.0062,-6.0062,-6.0062,-6.0062,-6.0062,-6.0062,-6.0062,-6.0062,-6.0062,-6.0213,-6.0555,-6.1049,-6.1618,-6.234,-6.3668,-6.4276,0.0,0.0,0.0,0.0,-2.5172,0.0,0.0,0.0,0.0,0.0,0.0,0.0,0.0,0.0,0.0,0.0,0.0,0.0,0.0,0.0,0.0,0.0,0.0,0.0,0.0,0.0,-5.7933,-5.799,-5.7983,-5.7959,-5.7938,-5.7935,-5.7935,-5.7935,-5.7935,-5.7935,-5.7935,-5.7935,-5.8021,-5.8382,-6.113,-6.3084,-6.4305,-6.4382,-5.9127,-5.0009,-4.9927,-5.0037,-5.0021,-5.044,-5.2286,-5.4985,-5.4968,-5.5012,-5.5012,-5.5012,-5.5012,-5.5012,-5.5012,-5.5012,-5.5012,-5.5012,-5.5012,-5.5012,-5.5012,-5.5012,-5.5012,-5.5012,-5.5012,-5.5012,-5.5012,-5.5012,-5.5012,-5.5088,-5.5088,-5.5069,-5.5039,-5.5319,-5.6391,-5.9436,-6.0018,-6.0062,-6.0062,-6.0062,-6.0062,-6.0062,-6.0062,-6.0062,-6.0062,-6.0062,-6.0062,-6.0062,-6.0062,-6.0062,-6.0062,-6.0062,-6.0062,-6.0062,-6.0062,-6.0062,-6.0062,-6.0062,-6.0062,-6.0062,-6.0138,-6.0555,-6.1277,-6.1466,-6.234,-6.3896,-6.4617,-6.4959,0.0,0.0,0.0,0.0,0.0,-1.8003,0.0,0.0,0.0,0.0,0.0,0.0,0.0,0.0,0.0,0.0,0.0,0.0,0.0,0.0,0.0,0.0,0.0,0.0,0.0,-5.7431,-5.7885,-5.7987,-5.7893,-5.7993,-5.7886,-5.7935,-5.7935,-5.7935,-5.7935,-5.7935,-5.7935,-5.7935,-5.8813,-6.0461,-6.2808,-6.4073,-6.4307,-6.4399,-5.9091,-4.9888,-5.0039,-4.9953,-5.0133,-5.2972,-5.4454,-5.5004,-5.4915,-5.5012,-5.5012,-5.5012,-5.5012,-5.5012,-5.5012,-5.5012,-5.5012,-5.5012,-5.5012,-5.5012,-5.5012,-5.5012,-5.5012,-5.5012,-5.5012,-5.5012,-5.5012,-5.5012,-5.4918,-5.4988,-5.5101,-5.5076,-5.5029,-5.7271,-5.9359,-5.9888,-6.0018,-6.0062,-6.0062,-6.0062,-6.0062,-6.0062,-6.0062,-6.0062,-6.0062,-6.0062,-6.0062,-6.0062,-6.0062,-6.0062,-6.0062,-6.0062,-6.0062,-6.0062,-6.0062,-6.0062,-6.0062,-6.0062,-6.0062,-6.0062,-6.0707,-6.1125,-6.1277,-6.2605,-6.3782,-6.4731,-6.4883,-6.4959,0.0,0.0,0.0,-2.8076,0.0,0.0,0.0,0.0,0.0,0.0,0.0,0.0,0.0,0.0,0.0,0.0,0.0,0.0,0.0,0.0,0.0,0.0,0.0,0.0,0.0,-5.7893,-5.7892,-5.7886,-5.7935,-5.7935,-5.7935,-5.7935,-5.7935,-5.7935,-5.7935,-5.7935,-5.7935,-5.7924,-5.8441,-5.9428,-6.2727,-6.4288,-6.4128,-5.9311,-5.4414,-5.0029,-4.9921,-5.0972,-5.2582,-5.4252,-5.5071,-5.4968,-5.5068,-5.5012,-5.5012,-5.5012,-5.5012,-5.5012,-5.5012,-5.5012,-5.505,-5.4935,-5.5048,-5.5048,-5.5048,-5.5048,-5.4973,-5.5088,-5.5012,-5.5012,-5.5012,-5.5031,-5.5123,-5.5001,-5.6279,-5.7608,-5.7603,-5.8947,-6.0042,-6.0165,-6.006,-6.0062,-6.0062,-6.0062,-6.0062,-6.0062,-6.0062,-6.0062,-6.0062,-6.0062,-6.0062,-6.0062,-6.0062,-6.0062,-6.0062,-6.0062,-6.0062,-6.0062,-6.0062,-6.0062,-6.0062,-6.0062,-6.0062,-6.0062,-6.0859,-6.1656,-6.2529,-6.3744,-6.458,-6.4959,-6.4959,-6.4959,0.0,0.0,0.0,0.0,0.0,0.0,0.0,-2.3069,0.0,0.0,0.0,0.0,0.0,0.0,0.0,0.0,0.0,0.0,0.0,0.0,0.0,0.0,0.0,0.0,0.0,-5.7935,-5.7935,-5.7935,-5.7935,-5.7935,-5.7935,-5.7935,-5.7935,-5.7935,-5.7935,-5.7935,-5.7935,-5.7958,-5.8419,-5.9173,-6.2651,-6.4349,-6.3972,-5.4385,-4.9954,-4.9925,-5.0602,-5.2393,-5.5081,-5.5032,-5.4968,-5.5012,-5.5012,-5.5012,-5.5012,-5.5012,-5.5012,-5.5012,-5.5012,-5.5126,-5.5354,-5.5138,-5.5476,-5.5915,-5.5915,-5.5588,-5.4901,-5.4935,-5.5202,-5.524,-5.4993,-5.5274,-5.5626,-5.5851,-5.8092,-6.0007,-6.0004,-6.0119,-6.0088,-6.0174,-6.0062,-6.0062,-6.0062,-6.0062,-6.0062,-6.0062,-6.0062,-6.0062,-6.0062,-6.0062,-6.0062,-6.0062,-6.0062,-6.0062,-6.0062,-6.0062,-6.0062,-6.0062,-6.0062,-6.0062,-6.0062,-6.0062,-6.0138,-6.0289,-6.0935,-6.2074,-6.3744,-6.458,-6.4959,-6.4959,-6.4959,-6.4959,0.0,0.0,0.0,0.0,0.0,0.0,-2.7215,-2.9477,0.0,0.0,0.0,0.0,0.0,0.0,0.0,0.0,0.0,0.0,0.0,0.0,0.0,0.0,0.0,0.0,-5.7886,-5.7935,-5.7935,-5.7935,-5.7935,-5.7935,-5.7935,-5.7935,-5.7935,-5.7935,-5.7935,-5.7935,-5.7935,-5.7958,-5.978,-6.3733,-6.41,-6.4307,-6.4073,-5.4283,-5.0043,-5.014,-5.3105,-5.4746,-5.4917,-5.5083,-5.4936,-5.5012,-5.5012,-5.5012,-5.5012,-5.5012,-5.5012,-5.5012,-5.5012,-5.5753,-5.6401,-5.5363,-5.7011,-5.9383,-5.9383,-5.7328,-5.5103,-5.4938,-5.5788,-5.6363,-5.5251,-5.6141,-5.7556,-5.9129,-5.9695,-6.0004,-6.0022,-6.0174,-5.9948,-6.0024,-6.0062,-6.0062,-6.0062,-6.0062,-6.0062,-6.0062,-6.0062,-6.0062,-6.0062,-6.0062,-6.0062,-6.0062,-6.0062,-6.0062,-6.0062,-6.0062,-6.0062,-6.0062,-6.0062,-6.0062,-6.0062,-6.0062,-6.0403,-6.1125,-6.1239,-6.2074,-6.3744,-6.458,-6.4959,-6.4959,-6.4959,-6.4959,0.0,-2.277,-2.1892,0.0,0.0,0.0,0.0,-3.2154,0.0,0.0,0.0,0.0,0.0,0.0,0.0,0.0,0.0,0.0,0.0,0.0,0.0,0.0,0.0,0.0,0.0,-5.7935,-5.7935,-5.7935,-5.7935,-5.7935,-5.7935,-5.7935,-5.7935,-5.7935,-5.7935,-5.7935,-5.7935,-5.7939,-6.0061,-6.4351,-6.4385,-6.4406,-6.4036,-5.4344,-5.0022,-5.014,-5.3446,-5.5012,-5.5004,-5.4915,-5.5012,-5.5012,-5.5012,-5.5012,-5.5012,-5.5012,-5.5012,-5.505,-5.4973,-5.5349,-5.6052,-5.7366,-5.8821,-5.9982,-5.9982,-5.761,-5.5112,-5.4924,-5.5281,-5.5786,-5.6076,-5.7007,-5.8277,-5.8917,-5.9673,-6.0171,-5.9986,-6.0062,-6.0062,-6.0062,-6.0094,-6.0158,-6.0158,-5.9955,-6.0021,-6.0081,-6.0158,-6.0127,-5.9986,-6.0062,-6.0062,-6.0062,-6.0062,-6.0062,-6.0062,-6.0062,-6.0062,-6.0062,-6.0062,-6.0062,-6.0062,-6.0517,-6.0935,-6.1239,-6.2226,-6.3061,-6.3744,-6.458,-6.4959,-6.4959,-6.4959,-6.5225,-2.3463,0.0,0.0,0.0,0.0,0.0,0.0,0.0,0.0,0.0,0.0,0.0,0.0,0.0,0.0,0.0,0.0,0.0,0.0,0.0,0.0,0.0,0.0,0.0,0.0,0.0,0.0,0.0,-5.7935,-5.7935,-5.7935,-5.7935,-5.7935,-5.7935,-5.7935,-5.7935,-5.7935,-5.7868,-6.0145,-6.4351,-6.4354,-6.4307,-6.4083,-5.4274,-5.0485,-5.1714,-5.7098,-5.7739,-5.509,-5.5059,-5.4991,-5.5012,-5.5012,-5.5012,-5.5012,-5.5012,-5.5088,-5.5107,-5.4926,-5.5664,-5.6809,-5.9205,-6.0042,-5.9973,-5.9973,-5.8439,-5.6248,-5.5185,-5.4929,-5.5476,-5.7196,-5.8429,-5.9075,-5.8775,-5.953,-6.0062,-6.0062,-6.0703,-6.1341,-6.1643,-6.2169,-6.2868,-6.4409,-6.4822,-6.4697,-6.4737,-6.2112,-6.0148,-6.0174,-6.0062,-6.0062,-6.0062,-6.0062,-6.0062,-6.0062,-6.0062,-6.0062,-6.0062,-6.0062,-6.0138,-6.0365,-6.0973,-6.1466,-6.1922,-6.3137,-6.3858,-6.4086,-6.4693,-6.4959,-6.4959,-6.4959,-6.5415,0.0,0.0,0.0,-3.1035,-3.1362,0.0,-4.256,0.0,0.0,0.0,0.0,0.0,0.0,0.0,0.0,0.0,0.0,0.0,0.0,0.0,0.0,0.0,0.0,0.0,0.0,0.0,0.0,0.0,-5.7935,-5.7935,-5.7935,-5.7935,-5.7935,-5.7935,-5.7935,-5.7935,-5.7935,-5.7868,-6.0145,-6.4351,-6.4354,-6.4307,-6.4083,-5.4274,-5.1668,-5.5464,-6.5718,-6.4445,-5.5051,-5.5051,-5.4905,-5.5012,-5.5012,-5.5012,-5.5012,-5.5012,-5.4973,-5.5039,-5.5076,-5.7252,-5.985,-6.0148,-6.0165,-6.0024,-6.0024,-5.9986,-5.923,-5.5952,-5.4922,-5.5733,-5.9214,-5.9941,-5.9986,-5.9986,-6.0024,-6.0062,-6.0062,-6.2159,-6.4379,-6.5286,-6.7045,-7.0234,-7.5606,-7.662,-7.6685,-7.6571,-6.7107,-6.0148,-6.0174,-6.0062,-6.0062,-6.0062,-6.0062,-6.0062,-6.0062,-6.0062,-6.0062,-6.0062,-6.0062,-6.0403,-6.1201,-6.1239,-6.2036,-6.363,-6.3744,-6.4124,-6.4921,-6.4959,-6.4959,-6.4959,-6.4959,-6.5415,-2.0511,-2.4701,-2.9579,-3.125,-3.481,-3.8685,-4.1619,0.0,0.0,0.0,0.0,0.0,0.0,0.0,0.0,0.0,0.0,0.0,0.0,0.0,0.0,0.0,0.0,0.0,0.0,0.0,0.0,0.0,0.0,0.0,-5.7935,-5.7935,-5.7935,-5.7935,-5.7935,-5.7979,-5.7958,-5.795,-6.002,-6.4361,-6.4258,-6.4431,-6.4017,-5.4345,-5.179,-5.5227,-5.8733,-6.2204,-6.4856,-5.7845,-5.4953,-5.5012,-5.5012,-5.5012,-5.505,-5.5048,-5.5101,-5.5263,-5.7518,-5.9129,-6.0004,-6.0018,-6.0098,-6.0062,-6.0062,-6.0062,-5.9948,-5.8741,-5.8404,-5.8666,-5.9869,-6.0098,-6.0062,-6.0062,-6.0062,-6.0062,-6.0062,-6.0875,-6.2711,-6.6803,-7.1321,-7.4914,-7.674,-7.7095,-7.7189,-7.7055,-6.7412,-6.0148,-6.0174,-6.0062,-6.0062,-6.0062,-6.0062,-6.0062,-6.0062,-6.0062,-6.0062,-6.0062,-6.0555,-6.0973,-6.1239,-6.234,-6.3175,-6.3744,-6.4276,-6.4693,-6.4959,-6.4959,-6.4959,-6.4959,-6.4959,-6.5415,-2.1891,-2.8516,-3.5419,-3.3946,-3.7073,-4.0727,-4.1773,-4.3525,0.0,0.0,0.0,0.0,0.0,0.0,0.0,0.0,0.0,0.0,0.0,0.0,0.0,0.0,0.0,0.0,0.0,0.0,0.0,0.0,0.0,-5.7935,-5.7935,-5.7935,-5.7935,-5.7935,-5.7935,-5.7924,-5.7939,-5.9538,-6.163,-6.4335,-6.431,-6.2524,-5.8979,-5.3994,-5.5075,-6.0433,-5.6563,-5.8774,-6.4521,-5.7765,-5.5068,-5.4897,-5.4897,-5.5658,-5.6786,-5.6782,-5.6835,-5.7214,-5.9244,-6.0081,-6.0127,-6.0136,-6.0062,-6.0062,-6.0062,-6.0062,-6.0062,-6.0062,-6.0062,-6.0062,-6.0062,-6.0062,-6.0062,-6.0062,-6.0062,-6.0062,-6.0062,-6.1779,-6.486,-7.0598,-7.4686,-7.7069,-7.7094,-7.3675,-7.112,-7.0994,-6.486,-6.0148,-6.0174,-6.0062,-6.0062,-6.0062,-6.0062,-6.0062,-6.0062,-6.0062,-6.0062,-6.0062,-6.0821,-6.139,-6.1694,-6.3023,-6.3896,-6.4162,-6.4693,-6.4959,-6.4959,-6.4959,-6.4959,-6.4959,-6.4959,-6.5605,-2.4536,-3.2255,-3.9129,-3.9123,-3.8228,-3.8623,0.0,0.0,0.0,0.0,0.0,0.0,0.0,0.0,0.0,0.0,0.0,0.0,0.0,0.0,0.0,0.0,0.0,0.0,0.0,0.0,0.0,0.0,-5.7935,-5.7935,-5.7935,-5.7935,-5.7935,-5.7935,-5.7935,-5.7924,-5.7939,-6.2111,-6.4335,-6.432,-6.4406,-5.9311,-5.0004,-5.3501,-6.077,-7.0099,-6.0124,-5.5574,-5.509,-5.4927,-5.4915,-5.5076,-5.5151,-5.7302,-6.0091,-6.013,-6.0085,-6.0148,-5.9965,-5.9941,-6.0062,-6.0062,-6.0062,-6.0062,-6.0062,-6.0062,-6.0062,-6.0062,-6.0062,-6.0062,-6.0062,-6.0062,-6.0062,-6.0062,-6.0062,-6.0062,-6.0062,-6.4322,-7.0028,-7.6039,-7.6579,-7.6266,-7.6313,-6.7179,-5.9993,-5.9982,-6.0098,-5.9965,-6.0174,-6.0062,-6.0062,-6.0062,-6.0062,-6.0062,-6.0062,-6.0062,-6.0062,-6.01,-6.0897,-6.1732,-6.2567,-6.3365,-6.4162,-6.4959,-6.4959,-6.4959,-6.4959,-6.4959,-6.4959,-6.4959,-6.4959,-6.6195,-2.4459,-3.6641,-4.6883,-4.1229,-3.9524,-3.9668,-4.0853,0.0,-4.3847,0.0,0.0,0.0,0.0,0.0,0.0,0.0,0.0,0.0,0.0,0.0,0.0,0.0,0.0,0.0,0.0,0.0,0.0,0.0,-5.7935,-5.7935,-5.7935,-5.7935,-5.7935,-5.7935,-5.7935,-5.7924,-5.7939,-6.2145,-6.4385,-6.4333,-6.4257,-5.9306,-5.0114,-5.3529,-6.0792,-7.0601,-6.7909,-6.2332,-5.4953,-5.4993,-5.4988,-5.5188,-5.7785,-5.9305,-6.013,-5.9982,-6.0032,-6.0004,-6.0056,-6.0136,-6.0062,-6.0062,-6.0062,-6.0062,-6.0062,-6.0062,-6.0062,-6.0062,-6.0062,-6.0062,-6.0062,-6.0062,-6.0062,-6.0062,-6.0062,-6.0062,-6.0062,-6.1309,-6.5175,-7.5241,-7.0205,-6.4489,-6.4503,-6.1972,-6.0021,-6.0018,-6.0171,-6.0022,-6.0024,-6.0062,-6.0062,-6.0062,-6.0062,-6.0062,-6.0062,-6.0062,-6.0289,-6.0935,-6.1732,-6.2567,-6.3403,-6.4238,-6.4769,-6.4959,-6.4959,-6.4959,-6.4959,-6.4959,-6.4959,-6.4959,-6.4959,-6.587,-2.7367,-3.7317,-4.5346,-4.1166,-4.005,-4.0237,-4.1258,-4.3025,-4.4296,-4.4025,0.0,0.0,0.0,0.0,0.0,0.0,0.0,0.0,0.0,0.0,0.0,0.0,0.0,0.0,0.0,0.0,0.0,0.0,-5.7935,-5.7935,-5.7935,-5.7935,-5.7935,-5.7935,-5.7876,-5.7852,-5.7855,-6.2234,-6.437,-6.4333,-6.0025,-5.5228,-5.0028,-5.3567,-5.8197,-6.3726,-6.3867,-6.0461,-5.4968,-5.5123,-5.5877,-5.7417,-5.8848,-5.9723,-6.011,-6.0012,-6.0165,-5.9979,-6.0136,-6.0062,-6.0062,-6.0062,-6.0062,-6.0062,-6.0062,-6.0062,-6.0062,-6.0062,-6.0062,-6.0062,-6.0062,-6.0062,-6.0062,-6.0062,-6.0062,-6.0062,-6.0062,-6.0062,-6.1955,-6.8466,-6.4542,-6.0059,-6.0119,-5.9973,-6.0127,-5.9986,-6.0062,-6.0062,-6.0062,-6.0062,-6.0062,-6.0062,-6.0062,-6.0062,-6.0062,-6.0062,-6.0403,-6.1201,-6.2074,-6.2909,-6.3706,-6.4542,-6.4959,-6.4959,-6.4959,-6.4959,-6.4959,-6.4959,-6.4959,-6.4959,-6.4959,-6.587,-3.242,-3.6907,-4.0092,-4.0002,-4.0008,-4.0635,-4.2957,-4.3761,-4.4116,0.0,-4.4989,0.0,0.0,0.0,0.0,0.0,0.0,0.0,0.0,0.0,0.0,0.0,0.0,0.0,0.0,0.0,0.0,0.0,-5.7935,-5.7935,-5.7935,-5.7935,-5.7935,-5.7881,-5.7958,-5.8215,-5.8808,-6.2425,-6.4337,-6.4258,-5.5861,-5.1426,-5.0753,-5.3731,-5.5063,-5.5004,-5.5004,-5.5043,-5.5032,-5.5372,-5.7163,-6.003,-5.9138,-5.934,-6.0062,-6.0062,-6.0062,-6.0062,-6.0062,-6.0062,-6.0062,-6.0062,-6.0062,-6.0062,-6.0062,-6.0062,-6.0062,-6.0062,-6.0062,-6.0062,-6.0062,-6.0062,-6.0062,-6.0062,-6.0062,-6.0062,-6.0062,-6.0062,-6.0062,-6.0062,-6.0062,-6.0062,-6.0062,-6.0062,-6.0062,-6.0062,-6.0062,-6.0062,-6.0062,-6.0062,-6.0062,-6.0062,-6.0062,-6.0062,-6.0062,-6.0062,-6.0441,-6.1352,-6.2112,-6.2947,-6.3858,-6.458,-6.4959,-6.4959,-6.4959,-6.4959,-6.4959,-6.4959,-6.4959,-6.4959,-6.4959,-6.5832,-4.0547,-4.1419,-4.0,-4.0091,-4.0052,-4.0825,-4.4001,-4.464,-4.4799,-4.4951,-4.4989,-4.4989,0.0,0.0,0.0,0.0,0.0,0.0,0.0,0.0,0.0,0.0,0.0,0.0,0.0,0.0,0.0,0.0,0.0,-5.7935,-5.7935,-5.7935,-5.7979,-5.7949,-5.7891,-5.9661,-6.3206,-6.4006,-6.4333,-6.4328,-6.2644,-5.912,-5.4162,-5.4675,-5.5121,-5.4991,-5.4991,-5.5088,-5.5236,-5.6544,-5.8296,-6.0071,-5.9793,-5.991,-6.0062,-6.0062,-6.0062,-6.0062,-6.0062,-6.0062,-6.0062,-6.0062,-6.0062,-6.0062,-6.0062,-6.0062,-6.0062,-6.0062,-6.0062,-6.0062,-6.0062,-6.0062,-6.0062,-6.0062,-6.0062,-6.0062,-6.0062,-6.0062,-6.0062,-6.0062,-6.0062,-6.0062,-6.0062,-6.0062,-6.0062,-6.0062,-6.0062,-6.0062,-6.0062,-6.0062,-6.0062,-6.0062,-6.0062,-6.0062,-6.0062,-6.0062,-6.0707,-6.2226,-6.2453,-6.3213,-6.4693,-6.4883,-6.4959,-6.4959,-6.4959,-6.4959,-6.4959,-6.4959,-6.4959,-6.4959,-6.4959,-6.5184,-3.9612,-3.8596,-3.7874,-3.9642,-4.1275,-4.3034,-4.4576,-4.4974,-4.4989,-4.4989,-4.4989,-4.4989,-4.4989,0.0,0.0,0.0,0.0,0.0,0.0,0.0,0.0,0.0,0.0,0.0,0.0,0.0,0.0,0.0,0.0,-5.7881,-5.7917,-5.7966,-5.7949,-5.7902,-6.0165,-6.2197,-6.4319,-6.4307,-6.1827,-5.6883,-5.6782,-5.5281,-5.2367,-5.4127,-5.5121,-5.5012,-5.4935,-5.5025,-5.5188,-5.7849,-5.9244,-6.0004,-6.0022,-6.0062,-6.0062,-6.0062,-6.0062,-6.0062,-6.0062,-6.0062,-6.0062,-6.0062,-6.0062,-6.0062,-6.0062,-6.0062,-6.0062,-6.0062,-6.0062,-6.0062,-6.0062,-6.0062,-6.0062,-6.0062,-6.0062,-6.0062,-6.0062,-6.0062,-6.0062,-6.0062,-6.0062,-6.0062,-6.0062,-6.0062,-6.0062,-6.0062,-6.0062,-6.0062,-6.0062,-6.0062,-6.0062,-6.0062,-6.0062,-6.0062,-6.0062,-6.0062,-6.0745,-6.2415,-6.2529,-6.3251,-6.4883,-6.4959,-6.4959,-6.4959,-6.4959,-6.4959,-6.4959,-6.4959,-6.4959,-6.4959,-6.5054,-6.4947,-3.4577,-3.2891,-3.4044,-3.8894,-4.1954,-4.4039,-4.4387,-4.482,-4.4989,-4.4989,-4.4989,-4.4989,-4.4989,-4.4989,0.0,0.0,0.0,0.0,0.0,0.0,0.0,0.0,0.0,0.0,0.0,0.0,0.0,0.0,0.0,0.0,-5.7891,-5.8789,-5.9214,-5.9332,-6.2594,-6.3319,-6.1317,-6.1227,-5.7533,-4.9909,-4.9991,-5.0341,-5.1173,-5.3783,-5.493,-5.5012,-5.5025,-5.5188,-5.5776,-5.8717,-6.0004,-5.9973,-6.006,-6.0062,-6.0062,-6.0062,-6.0062,-6.0062,-6.0062,-6.0062,-6.0062,-6.0062,-6.0062,-6.0062,-6.0062,-6.0062,-6.0062,-6.0062,-6.0062,-6.0062,-6.0062,-6.0062,-6.0062,-6.0062,-6.0062,-6.0062,-6.0062,-6.0062,-6.0062,-6.0062,-6.0062,-6.0062,-6.0062,-6.0062,-6.0062,-6.0062,-6.0062,-6.0062,-6.0062,-6.0062,-6.0062,-6.0062,-6.0062,-6.0062,-6.0062,-6.0062,-6.0745,-6.2378,-6.2529,-6.3251,-6.4883,-6.5016,-6.492,-6.492,-6.492,-6.4844,-6.494,-6.494,-6.4865,-6.4997,-6.4859,-6.5284,-2.7288,-2.6041,-2.8197,-3.769,-4.0179,-4.1075,-4.2977,-4.4138,-4.4989,-4.4989,0.0,-4.4989,-4.4989,-4.4989,0.0,0.0,0.0,0.0,0.0,0.0,0.0,0.0,0.0,0.0,0.0,0.0,0.0,0.0,0.0,0.0,0.0,-6.1671,-6.3783,-6.3751,-6.409,-6.0184,-5.1255,-5.1162,-5.0893,-4.9965,-5.0001,-5.1595,-5.4594,-5.4905,-5.4936,-5.5012,-5.5025,-5.5814,-5.7442,-5.9244,-6.0088,-5.9948,-6.0024,-6.0062,-6.0062,-6.0062,-6.0062,-6.0062,-6.0062,-6.0062,-6.0062,-6.0062,-6.0062,-6.0062,-6.0062,-6.0062,-6.0062,-6.0062,-6.0062,-6.0062,-6.0062,-6.0062,-6.0062,-6.0062,-6.0062,-6.0062,-6.0062,-6.0062,-6.0062,-6.0062,-6.0062,-6.0062,-6.0062,-6.0062,-6.0062,-6.0062,-6.0062,-6.0062,-6.0062,-6.0062,-6.0062,-6.0062,-6.0062,-6.0062,-6.0062,-6.0062,-6.0477,-6.1755,-6.2217,-6.3251,-6.4883,-6.4957,-6.4863,-6.4863,-6.4863,-6.5039,-6.4872,-6.4872,-6.4822,-6.4997,-6.4859,-6.6012,-3.0393,-3.11,-3.1557,-3.351,-3.699,-4.0545,-4.2465,-4.3482,-4.4509,-4.6411,-4.5759,-4.5498,-4.7261,-4.6213,0.0,0.0,0.0,0.0,0.0,0.0,0.0,0.0,0.0,0.0,0.0,0.0,0.0,0.0,0.0,0.0,0.0,-6.2098,-6.4435,-6.4259,-5.8642,-5.3748,-4.9979,-4.9984,-4.9961,-4.9963,-4.9939,-5.1685,-5.4935,-5.5007,-5.5012,-5.5012,-5.5025,-5.531,-5.613,-5.8923,-6.0022,-6.0062,-6.0062,-6.0062,-6.0062,-6.0062,-6.0062,-6.0062,-6.0062,-6.0062,-6.0062,-6.0062,-6.0062,-6.0062,-6.0062,-6.0062,-6.0062,-6.0062,-6.0062,-6.0062,-6.0062,-6.0062,-6.0138,-6.0059,-6.0135,-6.0018,-6.0161,-6.0003,-6.0273,-6.0926,-6.0856,-6.0783,-6.0783,-6.0365,-6.0062,-6.0062,-6.0062,-6.0251,-6.1013,-6.2162,-6.3088,-6.3088,-6.1234,-6.0086,-6.0172,-6.0011,-6.0759,-6.2031,-6.3428,-6.4204,-6.492,-6.1086,-5.8869,-5.8869,-5.8869,-5.8733,-5.8969,-6.2897,-6.4933,-6.4826,-6.1309,-6.3073,-3.1078,-3.2079,-3.2214,-3.277,-3.6516,-4.0626,-4.2801,-4.4551,-4.6028,-4.7078,-4.5734,-4.5566,-4.8758,-4.7354,0.0,0.0,0.0,0.0,0.0,0.0,0.0,0.0,0.0,0.0,0.0,0.0,0.0,0.0,0.0,0.0,0.0,-6.2691,-6.3049,-6.0151,-5.3581,-4.9975,-4.9984,-4.9961,-4.9961,-5.0021,-5.1038,-5.28,-5.4982,-5.4991,-5.5012,-5.505,-5.5312,-5.5562,-5.5875,-5.8477,-5.9796,-6.0062,-6.0062,-6.0062,-6.0062,-6.0062,-6.0062,-6.0062,-6.0062,-6.0062,-6.0062,-6.0062,-6.0062,-6.0062,-6.0062,-6.0062,-6.0062,-6.0062,-6.0062,-6.0062,-6.0062,-6.0062,-5.9986,-6.013,-6.07,-6.1504,-6.1406,-6.1245,-6.1245,-6.1906,-6.1763,-6.1656,-6.1656,-6.1163,-6.0783,-6.0783,-6.0783,-6.1011,-6.1927,-6.3395,-6.4369,-6.4408,-6.2804,-6.0711,-5.8888,-5.8441,-5.9585,-6.317,-6.3132,-6.1601,-5.8862,-5.4419,-5.1684,-5.1684,-5.1684,-5.1852,-5.1669,-5.6552,-5.8771,-5.8745,-5.5451,-5.9713,-2.5998,-2.5151,-2.7568,-3.7492,-4.0011,-4.0898,-4.4201,-4.8206,-5.0134,-4.5862,-4.4344,-4.487,-4.8676,-4.8385,0.0,0.0,0.0,0.0,0.0,0.0,0.0,0.0,0.0,0.0,0.0,0.0,0.0,0.0,0.0,0.0,0.0,-6.4405,-5.999,-5.0449,-5.0043,-5.0022,-5.0001,-5.0039,-4.9961,-5.0021,-5.3418,-5.5012,-5.4974,-5.5012,-5.5012,-5.505,-5.5847,-5.6683,-5.7556,-5.8353,-5.9226,-6.0062,-6.0062,-6.0062,-6.0062,-6.0062,-6.0062,-6.0062,-6.0062,-6.0062,-6.0062,-6.0062,-6.0062,-6.0062,-6.0062,-6.0062,-6.0062,-6.0062,-6.0062,-6.0062,-6.0062,-6.0062,-5.9986,-6.013,-6.2509,-6.4952,-6.4879,-6.4094,-6.3429,-6.3429,-6.2842,-6.2529,-6.2529,-6.2491,-6.2491,-6.2491,-6.2491,-6.2804,-6.339,-6.2842,-6.2804,-6.3429,-6.4369,-6.2217,-5.6037,-5.431,-5.7009,-6.4355,-6.0594,-5.4163,-4.5206,-4.4701,-4.4701,-4.4701,-4.4701,-4.473,-4.4493,-4.473,-4.473,-4.4807,-4.6835,-5.5917,-2.6602,-2.5051,-2.6384,-3.183,-3.6557,-3.9114,-3.5463,-4.0983,-4.6602,-4.5252,-4.4981,-4.6038,-4.8546,-4.7244,0.0,0.0,0.0,0.0,0.0,0.0,0.0,0.0,0.0,0.0,0.0,0.0,0.0,0.0,0.0,0.0,0.0,-5.8024,-5.3153,-5.0043,-4.9991,-4.9999,-5.0039,-4.9883,-5.0021,-5.0028,-5.3477,-5.5032,-5.5012,-5.5012,-5.5316,-5.5885,-5.6721,-5.7556,-5.8391,-5.9264,-5.9796,-6.0062,-6.0062,-6.0062,-6.0062,-6.0062,-6.0062,-6.0062,-6.0062,-6.0062,-6.0062,-6.0062,-6.0062,-6.0062,-6.0062,-6.0062,-6.0062,-6.0062,-6.0062,-6.0138,-6.0097,-6.0969,-6.1884,-6.1819,-6.3299,-6.4829,-6.4965,-6.4557,-6.4519,-6.4519,-6.3782,-6.3365,-6.3365,-6.2909,-6.2529,-6.2529,-6.2529,-6.2757,-6.3604,-6.3403,-6.3592,-6.4442,-6.4769,-6.2004,-5.4356,-5.4315,-5.5453,-5.7834,-5.516,-5.0785,-4.4701,-4.4435,-4.4435,-4.4435,-4.4435,-4.4539,-4.4504,-4.4389,-4.5344,-4.6872,-4.7546,-5.0202,-2.6264,-2.5071,-2.5893,-2.9146,-3.5026,-3.8571,-3.3131,-3.6623,-4.1388,-4.2244,-4.3216,-4.4838,-4.715,0.0,-4.8347,-4.7228,0.0,0.0,0.0,0.0,0.0,0.0,0.0,0.0,0.0,0.0,0.0,0.0,0.0,0.0,-5.9031,-5.3153,-4.9975,-4.9914,-5.0039,-4.9999,-4.9999,-5.0021,-5.0607,-5.1935,-5.4077,-5.5045,-5.5012,-5.5012,-5.5468,-5.6516,-5.7138,-5.7936,-5.8771,-5.9682,-6.0062,-6.0062,-6.0062,-6.0062,-6.0062,-6.0062,-6.0062,-6.0062,-6.0062,-6.0062,-6.0062,-6.0062,-6.0062,-6.0062,-6.0062,-6.0062,-6.0062,-6.0062,-6.0555,-6.1013,-6.0926,-6.1801,-6.2719,-6.2885,-6.4023,-6.4926,-6.4845,-6.4959,-6.4959,-6.4959,-6.4542,-6.42,-6.42,-6.3782,-6.3441,-6.3441,-6.3441,-6.363,-6.4162,-6.42,-6.439,-6.4921,-6.4882,-6.2489,-5.6299,-5.3755,-5.2729,-5.3329,-5.0532,-4.7407,-4.4701,-4.4435,-4.4435,-4.4435,-4.4668,-4.4685,-4.4451,-4.5459,-4.6382,-4.77,-4.791,-4.7862,-2.5023,-2.5615,-2.6876,-2.9927,-3.527,-3.8895,-3.5688,-3.4758,-3.5213,-3.7405,-3.9382,-4.1484,-4.4298,-5.0179,-5.2465,-4.6393,0.0,0.0,0.0,0.0,0.0,0.0,0.0,0.0,0.0,0.0,0.0,0.0,0.0,0.0,-5.0488,-4.9937,-4.9952,-4.9887,-4.9916,-5.0096,-5.0327,-5.0372,-5.1973,-5.5032,-5.4953,-5.5012,-5.505,-5.505,-5.5792,-5.6919,-5.7468,-5.8049,-5.8847,-5.9682,-6.0062,-6.0062,-6.0062,-6.0062,-6.0062,-6.0062,-6.0062,-6.0062,-6.0062,-6.0062,-6.0062,-6.0062,-6.0062,-6.0062,-6.0062,-6.0062,-6.0062,-6.01,-6.1395,-6.2856,-6.2727,-6.2681,-6.2871,-6.3352,-6.4176,-6.5003,-6.4845,-6.4959,-6.4959,-6.4959,-6.4959,-6.4959,-6.4959,-6.4959,-6.4959,-6.4959,-6.4959,-6.4959,-6.4959,-6.4959,-6.4959,-6.4959,-6.4714,-6.316,-5.9814,-5.2866,-4.9308,-5.0852,-4.685,-4.4435,-4.4435,-4.4435,-4.4435,-4.4435,-4.5328,-4.537,-4.4502,-4.6817,-4.7726,-4.7779,-4.7967,-4.7915,-2.5102,-3.0666,-3.6784,-3.7512,-3.6898,-3.6007,-3.511,-3.3021,-3.1672,-3.3445,-3.5285,-3.7338,-4.0128,-4.5303,0.0,-4.9914,0.0,0.0,0.0,0.0,0.0,0.0,0.0,0.0,0.0,0.0,0.0,0.0,0.0,0.0,-5.0043,-4.9925,-4.9996,-4.9953,-5.0003,-5.1187,-5.3809,-5.383,-5.4177,-5.501,-5.4918,-5.5031,-5.5025,-5.5025,-5.6052,-5.8054,-5.8049,-5.8662,-5.9758,-5.9948,-6.0062,-6.0062,-6.0062,-6.0062,-6.0062,-6.0062,-6.0062,-6.0062,-6.0062,-6.0062,-6.0062,-6.0062,-6.0062,-6.0062,-6.0062,-6.0062,-6.0138,-6.0172,-6.2074,-6.4474,-6.4389,-6.429,-6.4428,-6.4617,-6.4693,-6.5052,-6.4921,-6.4959,-6.4959,-6.4959,-6.4959,-6.4959,-6.4959,-6.4959,-6.4959,-6.4959,-6.4959,-6.4959,-6.4959,-6.4959,-6.4959,-6.4959,-6.2628,-5.9598,-5.6277,-5.2018,-4.8441,-4.6294,-4.4967,-4.4435,-4.4435,-4.4435,-4.4435,-4.4435,-4.5032,-4.5278,-4.539,-4.6388,-4.7265,-4.7707,-4.7837,-4.7808,-2.7319,-3.1254,-3.5616,-3.6655,-3.5321,-3.3594,-3.2843,-3.1314,-3.043,-3.1965,-3.3639,-3.6299,-4.1471,-4.2975,-4.5798,-5.252,0.0,0.0,0.0,0.0,0.0,0.0,0.0,0.0,0.0,0.0,0.0,0.0,0.0,0.0,-5.0037,-4.9872,-5.058,-5.2133,-5.2384,-5.3114,-5.498,-5.5059,-5.4993,-5.4964,-4.9536,-4.9921,-5.4985,-5.5103,-5.6572,-5.8955,0.0,-5.7157,-5.9984,-5.8503,-5.8621,-6.0062,-6.0062,-6.0062,-6.0062,-6.0062,-6.0062,-6.0062,-6.0062,-6.0062,-6.0062,-6.0062,-6.0062,-6.0062,-6.0062,-6.0024,-6.0097,-5.9974,-6.0244,-6.0277,-6.0316,-6.1028,-6.1709,-6.1709,-6.2277,-6.2628,-6.2628,-6.3937,-6.4959,-6.4959,-6.4959,-6.4959,-6.4959,-6.4959,-6.4959,-6.4959,-6.4959,-6.4959,-6.4959,-6.4959,-6.443,-6.2664,-6.085,-5.7766,-5.2946,-5.0615,-4.8058,-4.4701,-4.4435,-4.4435,-4.4435,-4.4435,-4.4435,-4.4435,-4.5292,-4.5889,-4.5898,-4.6724,-4.7292,-4.7889,-4.7889,-4.7886,-2.9952,-3.0528,-3.1483,-3.3445,-3.3437,-3.265,-3.1137,-3.0449,-3.0554,-3.1673,-3.3012,-3.6134,-4.325,-4.1676,-4.2455,-5.2609,0.0,-4.7828,0.0,0.0,0.0,0.0,0.0,0.0,0.0,0.0,0.0,0.0,0.0,-5.0709,-5.0709,-5.0718,-5.2147,-5.4868,-5.509,-5.4905,-5.5097,-5.5048,-5.4114,-5.2295,-4.2442,-4.2802,-5.2354,-5.2441,-5.5203,-5.9872,0.0,-5.5931,-5.978,-5.7036,-5.7245,-5.9342,-5.9342,-5.9077,-5.8621,-5.8621,-5.8621,-5.8621,-5.8621,-5.8621,-5.8621,-5.8621,-5.8621,-5.8621,-5.8429,-5.8374,-5.8348,-5.8134,-5.5144,-5.2362,-5.3498,-5.4874,-5.6095,-5.7285,-5.8325,-5.9061,-5.9061,-6.1349,-6.3444,-6.3444,-6.3444,-6.3444,-6.3444,-6.3691,-6.3937,-6.3444,-6.3937,-6.3937,-6.3444,-6.3444,-6.238,-5.9312,-5.8557,-5.599,-5.0094,-4.9078,-4.7532,-4.4701,-4.4357,-4.4357,-4.4435,-4.4435,-4.4487,-4.4591,-4.5655,-4.5975,-4.5471,-4.6491,-4.6713,-4.6112,-4.6789,-4.7435,-2.9917,-3.3119,-3.6435,-3.6799,-3.6204,-3.546,-3.4868,-3.3124,-3.1523,-3.1277,-3.2084,-3.3892,-3.7228,-3.8593,-4.0492,-4.4628,-4.4632,0.0,-4.5864,-4.8027,-4.9545,0.0,0.0,0.0,0.0,0.0,0.0,0.0,0.0,-5.4201,-5.4201,-5.4184,-5.4406,-5.4927,-5.493,-5.4897,-5.5059,-5.5029,-5.0171,-4.0399,-3.8559,-3.8613,-4.0294,-4.0377,-4.7516,-5.9937,0.0,0.0,-6.0049,-5.9474,-5.7875,-5.595,-5.595,-5.4294,-5.1923,-5.1923,-5.1923,-5.1923,-5.1923,-5.1923,-5.1923,-5.1923,-5.1923,-5.1754,-5.0624,-5.0306,-5.0413,-4.9904,-4.4725,-4.1111,-4.8273,-4.8187,-4.7528,-5.3881,-5.5578,-5.5513,-5.5513,-5.6023,-5.6277,-5.6277,-5.6277,-5.6277,-5.6277,-5.8809,-5.9598,-5.6786,-5.8809,-5.9563,-5.6786,-5.6277,-5.6023,-5.5768,-5.2946,-5.0615,-4.9601,-4.7032,-4.4967,-4.4435,-4.3967,-4.3941,-4.4409,-4.4435,-4.4694,-4.5188,-4.5863,-4.471,-4.1998,-4.2581,-4.1095,-3.8155,-4.1814,-4.3793,-3.1091,-3.2984,-3.5303,-3.6033,-3.628,-3.5995,-3.3926,-3.2064,-3.0946,-3.1206,-3.1793,-3.3266,-3.6079,-3.6342,-3.7898,-4.3653,-4.2882,0.0,0.0,0.0,-4.7521,-5.0564,0.0,0.0,0.0,0.0,0.0,0.0,0.0,-5.5058,-5.5058,-5.493,-5.5012,-5.5012,-5.4988,-5.1903,-4.5777,-4.5591,-4.2881,-3.7819,-3.7708,-3.7615,-3.782,-3.8929,-4.3256,0.0,-4.9858,-5.3624,-6.0151,-6.0151,-5.9275,-5.7647,-5.5279,-5.3432,-5.2187,-5.1046,-5.051,-5.051,-5.051,-5.051,-5.0542,-5.0927,-5.1055,-5.0912,-5.079,-4.5638,-3.9955,-4.0021,-3.7607,-3.5802,-3.9748,-3.9435,-3.9098,-4.2507,-4.6259,-4.8906,-4.8906,-5.208,-5.4745,-5.4745,-5.4745,-5.4745,-5.4745,-5.6023,-5.6532,-5.5001,-5.6023,-5.6532,-5.5001,-5.4745,-5.3976,-5.2171,-5.0615,-4.8817,-4.7032,-4.1663,-3.9245,-4.1444,-4.1201,-4.2267,-4.4435,-4.254,-4.1686,-4.2244,-4.0786,-3.9565,-3.8044,-3.8529,-3.7986,-3.6455,-3.8439,-3.9815,-3.3697,0.0,-3.5436,-3.6329,-3.6493,-3.5756,0.0,-3.1466,-3.046,-3.0869,-3.1486,-3.2914,-3.5817,-3.46,-3.5657,-4.3058,-4.1508,-4.0699,-4.4474,0.0,0.0,-4.9341,0.0,0.0,0.0,0.0,0.0,0.0,0.0,-5.5097,-5.5097,-5.5048,-5.3864,-5.1122,-5.0984,-4.6983,-3.8664,-3.7921,-3.8026,-3.8607,-3.8411,-3.8585,-3.8476,-4.026,-4.1082,0.0,-4.1122,-4.8351,-6.0071,-6.0071,-5.8391,-5.5159,-5.1911,-5.0561,-5.0418,-4.8943,-4.8373,-4.8373,-4.8373,-4.7717,-4.7177,-4.7684,-4.7403,-4.687,-4.7567,-4.0183,-3.1727,-3.2066,-3.1631,-3.1082,-3.1886,-3.216,-3.2434,-3.3274,-3.7515,-4.1492,-4.1492,-4.5996,-4.9977,-5.1075,-5.1075,-5.1364,-5.2171,-5.2946,-5.3204,-5.2461,-5.2399,-5.211,-5.1334,-5.0266,-4.8674,-4.6104,-4.5841,-4.4809,-4.2223,-3.6683,-3.4516,-3.7625,-3.7515,-3.8862,-4.1688,-3.936,-3.7956,-3.8077,-3.616,-3.5164,-3.5164,-3.5104,-3.4355,-3.3767,-3.4855,-3.5893,0.0,-4.0162,-4.0994,-4.1156,-3.8139,-3.5158,-3.4879,-3.3128,0.0,-3.0283,-3.091,-3.2355,-3.4403,-3.3558,-3.4147,-3.9273,-3.8749,-3.9309,0.0,-4.4807,0.0,0.0,0.0,0.0,0.0,0.0,0.0,0.0,0.0,0.0,-5.5063,-5.5059,-5.0,-3.9316,-3.8835,-3.9632,-4.0729,-3.8693,-3.8744,-4.081,-4.0891,-4.0712,-4.0683,-4.0977,-4.1025,0.0,0.0,-4.8351,0.0,-6.0071,-5.3034,-4.2395,-4.21,-4.1885,-4.177,-4.177,-4.1743,-4.1743,-4.1743,-3.9804,-3.743,-3.7453,-3.5451,-3.3258,-3.397,-3.1475,-2.8297,-2.8313,-2.5871,-2.4233,-2.7501,-2.833,-2.914,-3.2707,-3.38,-3.4073,-3.4073,-3.4597,-3.5956,-3.9492,-4.0298,-4.1395,-4.4675,-4.7795,-4.8817,-4.5737,-4.5048,-4.3645,-4.0567,-3.704,-3.487,-3.4597,-3.4597,-3.4618,-3.4345,-3.3404,-3.3075,-3.378,-3.3404,-3.3364,-3.4053,-3.4452,-3.4414,-3.4434,-3.5001,-3.5164,-3.5164,-3.246,-2.9234,-2.5667,-3.0232,-3.2114,-4.2625,-4.1854,-3.9608,-3.5689,-3.5078,-3.5238,-3.5095,-3.2823,-3.1075,-3.1454,-3.1931,-3.2461,-3.3072,-3.2545,-3.3068,-3.6637,-3.7033,-3.7418,-3.9224,0.0,0.0,0.0,0.0,0.0,0.0,0.0,0.0,0.0,0.0,0.0,-4.4624,-4.4312,-4.2852,-3.9936,-3.979,-4.0236,-4.0944,-4.0286,-4.0202,-4.0951,-4.1056,-4.1051,-4.0991,-4.0991,-4.1096,0.0,0.0,0.0,0.0,-4.8107,-4.5499,-4.1017,-4.1017,-4.1122,-4.1033,-4.1033,-4.089,-4.0574,-3.813,-3.6348,-3.5128,-3.401,-3.3057,-3.2377,-3.2533,-2.8849,-2.4497,-2.4497,-2.3676,-2.2853,-2.4233,-2.4497,-2.5053,-2.6426,-3.0088,-3.3468,-3.3468,-3.3371,-3.38,-3.5162,-3.6899,-3.8345,-3.9723,-3.9831,-3.9176,-3.7873,-3.7559,-3.6997,-3.5706,-3.4345,-3.3527,-3.3527,-3.3527,-3.1631,-2.698,-2.6578,-2.7372,-2.9965,-2.9825,-3.1009,-3.3624,-3.1871,-3.0773,-3.0961,-2.9258,-2.8344,-2.8547,-2.7331,-2.6166,-2.5039,-2.6978,-2.8223,-4.4933,-4.1129,-3.6125,-3.1836,-3.2308,-3.387,-3.3656,-3.0944,-2.9252,-3.2597,-3.3224,-3.3218,-3.3232,-3.2909,-3.3467,-3.5968,-3.6366,-3.5858,-3.4533,0.0,0.0,0.0,0.0,0.0,0.0,0.0,0.0,0.0,0.0,0.0,-3.8147,-3.7657,-3.8669,-4.0923,-4.0977,-4.1082,-4.0978,-4.0939,-4.1096,-4.1025,-4.1122,-4.1033,-4.1033,-4.1033,-4.1033,0.0,0.0,0.0,0.0,-4.1033,-4.1033,-4.1033,-4.1033,-4.1033,-4.1033,-4.089,-4.0199,-3.8284,-3.4759,-3.3008,-3.2014,-3.0746,-3.005,-2.9561,-2.9561,-2.6225,-2.2586,-2.2586,-2.2586,-2.2586,-2.2586,-2.2586,-2.26,-2.2411,-2.6393,-3.0108,-2.995,-2.9863,-3.063,-3.2909,-3.4672,-3.5842,-3.6057,-3.4552,-3.3663,-3.4552,-3.3425,-3.2298,-3.2002,-3.0891,-3.0299,-3.0176,-3.0159,-2.7957,-2.2986,-2.2639,-2.369,-2.6164,-2.6271,-2.7544,-3.0317,-2.8339,-2.7235,-2.7663,-2.517,-2.4129,-2.4301,-2.4393,-2.4696,-2.5197,-2.5474,-2.5764,-4.4837,-3.7872,-3.0567,-3.0567,-3.0662,-3.0774,0.0,-2.7079,-2.6069,-3.3376,-3.4871,-3.4861,-3.49,-3.4885,-3.558,-3.7173,-3.6747,-3.4753,-3.1233,-3.6777,0.0,0.0,0.0,0.0,0.0,0.0,0.0,0.0,0.0,0.0,-3.7734,-3.7715,-3.8815,-4.1003,-4.1017,-4.1033,-4.1033,-4.1033,-4.1033,-4.1033,-4.1033,-4.1033,-4.1033,-4.1033,-4.1033,-4.1033,0.0,0.0,0.0,-4.1033,-4.1033,-4.1033,-4.1033,-4.1033,-4.1059,-4.1122,-3.8164,-3.3651,-3.164,-2.8995,-2.6769,-2.7143,-2.5064,-2.2586,-2.2586,-2.2586,-2.2586,-2.2586,-2.2586,-2.2586,-2.2586,-2.2586,-2.2666,-2.2646,-2.2413,-2.2503,-2.2484,-2.2547,-2.4589,-3.191,-3.3382,-3.3307,-3.3367,-3.3329,-3.4257,-3.7012,-3.3536,-3.0049,-2.9138,-2.5717,-2.3338,-2.3035,-2.2995,-2.2995,-2.2995,-2.2745,-2.26,-2.2652,-2.2362,-2.2542,-2.2332,-2.3466,-2.4024,-2.3661,-2.4248,-2.4366,-2.4301,-2.4604,-2.4894,-2.5197,-2.5474,-2.5764,-3.4869,-2.7641,-2.0053,-1.9967,-2.5453,-2.8923,0.0,-2.208,-2.4479,-2.673,-2.7155,-2.7246,-2.7125,-3.1513,-3.4015,-3.0865,-3.1469,-3.1873,-3.0858,-3.3997,0.0,0.0,0.0,0.0,0.0,0.0,0.0,0.0,0.0,0.0,-3.9914,-4.0124,-4.0386,-4.1111,-4.0977,-4.1054,-4.1096,-4.1096,-4.0993,-4.1033,-4.1033,-4.089,-4.1096,-4.1096,-4.0951,-4.0906,-4.0906,0.0,0.0,-4.0925,-4.1096,-4.1071,-4.1111,-4.1033,-4.1033,-4.1137,-3.4181,-2.4875,-2.5007,-2.4418,-2.3746,-2.3996,-2.3233,-2.2586,-2.2586,-2.2586,-2.2586,-2.2586,-2.2586,-2.2586,-2.2586,-2.245,-2.2659,-2.2645,-2.3312,-2.364,-2.372,-2.3747,-2.4327,-2.6657,-2.6353,-2.5746,-2.5688,-2.6279,-2.687,-2.7477,-2.6612,-2.5457,-2.485,-2.401,-2.3404,-2.3325,-2.3312,-2.2932,-2.2724,-2.2489,-2.245,-2.2659,-1.7541,-1.4805,-1.5369,-1.5489,-1.8317,-2.3961,-2.4353,-2.4366,-2.4301,-2.4604,-2.4894,-2.5197,-2.5474,-2.5764,-2.5844,-2.0173,-1.5591,-1.5572,-2.0117,-2.317,-1.7014,0.0,-2.5075,-2.4156,-2.3956,-2.389,-2.3914,-2.8334,-3.0947,-2.7918,-2.5903,-2.4924,-2.5324,0.0,0.0,0.0,0.0,0.0,0.0,0.0,0.0,0.0,0.0,0.0,-4.0946,-4.0967,-3.8631,-3.3151,-3.3027,-3.3027,-3.288,-3.8357,-4.1054,-4.1122,-4.1122,-4.0977,-4.088,-3.5326,-3.2964,-3.2838,-3.2838,0.0,0.0,-3.3088,-3.6234,-4.0951,-4.089,-4.1033,-4.1033,-4.0916,-3.2318,-2.099,-2.2176,-2.4509,-2.6268,-2.3534,-2.2441,-2.2586,-2.2586,-2.2586,-2.2586,-2.2586,-2.2586,-2.2586,-2.2586,-2.2502,-2.2802,-2.3218,-2.392,-2.4253,-2.4361,-2.4388,-2.4388,-2.4388,-2.3786,-2.3185,-2.3185,-2.3492,-2.3786,-2.3786,-2.3786,-2.3786,-2.3492,-2.3492,-2.344,-2.3628,-2.3323,-2.2953,-2.2484,-2.2555,-1.9871,-1.3882,-0.9312,-0.7058,-0.7467,-0.7496,-1.1162,-1.9476,-2.2556,-2.4419,-2.4472,-2.4775,-2.5078,-2.5369,-2.5645,-2.5883,-1.8408,-1.5795,-1.5572,-1.5627,-1.5601,-1.5791,-1.5767,0.0,0.0,-2.4286,-2.3907,-2.3896,-2.3907,-2.6047,-2.7492,-2.6444,-2.0362,-1.6126,0.0,0.0,0.0,0.0,0.0,0.0,0.0,0.0,0.0,0.0,0.0,0.0,-3.9198,-3.9223,-3.3426,-2.1168,-2.0916,-2.0916,-2.0902,-3.3131,-3.9223,-3.9198,-3.9198,-3.9198,-3.867,-2.6411,-2.0902,-2.0916,-2.0916,0.0,0.0,-2.0727,-2.874,-4.0951,-4.089,-4.1033,-4.1059,-4.1096,-3.3232,-2.2783,-2.3872,-2.8701,-3.3007,-2.5219,-2.2415,-2.256,-2.2586,-2.2586,-2.2586,-2.2586,-2.2586,-2.2586,-2.2586,-2.2528,-2.288,-2.4027,-2.4201,-2.4307,-2.4248,-2.4301,-2.4301,-2.4301,-2.4301,-2.4301,-2.4301,-2.4301,-2.4301,-2.4301,-2.4301,-2.4301,-2.4301,-2.4301,-2.4208,-2.3648,-2.3596,-2.3275,-2.2633,-2.2763,-1.6124,-0.0877,0.0,0.0,0.0,0.0,-0.4255,-1.308,-2.0718,-2.4525,-2.4749,-2.5052,-2.5656,-2.5606,-2.5909,-2.6054,-1.9982,-1.7881,-1.5954,-1.5611,-1.6165,-1.6965,-1.6904,-1.8325,0.0,0.0,-2.3969,-2.384,-2.3919,0.0,-2.7415,0.0,-1.7386,0.0,0.0,0.0,0.0,0.0,0.0,0.0,0.0,0.0,0.0,0.0,0.0,0.0,-2.5008,-2.504,-2.3707,-2.081,-2.0675,-2.0675,-2.081,-2.3707,-2.5214,-2.5069,-2.5069,-2.5149,-2.504,-2.2123,-2.0877,-2.0741,-2.0741,0.0,-2.0797,-2.0889,-2.887,-4.0951,-4.089,-4.1033,-4.1033,-4.1111,-3.9182,-3.6614,-3.6852,-3.9283,-3.9949,-2.6731,-2.2519,-2.2679,-2.2547,-2.2586,-2.2586,-2.2586,-2.2586,-2.2586,-2.2586,-2.2672,-2.2786,-2.4104,-2.4187,-2.4235,-2.4287,-2.4301,-2.4301,-2.4301,-2.4301,-2.4301,-2.4301,-2.4301,-2.4301,-2.4301,-2.4301,-2.4301,-2.4301,-2.4301,-2.4274,-2.4221,-2.3403,-2.2596,-2.27,-2.3297,-1.7047,-0.088,0.0,0.0,0.0,0.0,-0.6703,-2.1392,-2.355,-2.426,-2.443,-2.5052,-2.5342,-2.5606,-2.5909,-2.6054,-1.8323,-1.722,-1.6099,-1.5829,-1.6376,-1.7066,-1.7248,0.0,0.0,0.0,0.0,-2.4215,-2.5408,0.0,0.0,0.0,0.0,0.0,0.0,0.0,0.0,0.0,0.0,0.0,0.0,0.0,0.0,0.0,0.0,-2.0767,-2.0701,-2.0714,-2.0714,-2.0714,-2.0793,-2.0793,-2.0714,-2.0714,-2.0675,-2.085,-2.085,-2.089,-2.0714,-2.0714,-2.0767,-2.0833,-2.0833,0.0,-2.1227,-2.7847,-3.4663,-4.113,-4.0941,-4.1033,-4.1033,-4.1033,-4.0941,-4.1002,-4.101,-4.267,-4.3252,-3.5622,-2.818,-2.2626,-2.2534,-2.2586,-2.2586,-2.2586,-2.2586,-2.2586,-2.2586,-2.2426,-2.285,-2.4037,-2.4187,-2.4301,-2.4301,-2.4301,-2.4301,-2.4301,-2.4301,-2.4301,-2.4301,-2.4301,-2.4301,-2.4301,-2.4301,-2.4301,-2.4301,-2.4301,-2.4301,-2.4301,-2.3765,-2.3313,-2.3326,-1.6647,-0.8904,-0.0597,0.0,0.0,0.0,-0.7633,-1.5581,-2.4195,-2.4169,-2.4551,-2.4749,-2.5537,-2.5834,-2.5606,-2.6083,-2.5922,-1.6177,-1.5849,-1.6139,-1.6213,-1.6521,-1.6846,-1.7308,-1.736,0.0,0.0,0.0,-2.3678,-2.6869,-2.6204,0.0,-1.8079,0.0,0.0,0.0,0.0,-1.9145,0.0,0.0,0.0,0.0,0.0,0.0,0.0,0.0,-2.0703,-2.082,-2.0833,-2.0833,-2.0833,-2.0833,-2.0833,-2.0833,-2.0833,-2.0833,-2.0833,-2.0833,-2.0833,-2.0833,-2.0833,-2.0833,-2.0833,-2.0833,0.0,-2.1578,-3.2771,-3.8873,-4.1033,-4.0993,-4.1033,-4.1033,-4.1033,-4.1045,-4.0982,-4.1365,-4.2981,-4.4492,-4.4594,-3.4567,-2.2599,-2.2521,-2.2586,-2.2586,-2.2586,-2.2586,-2.2586,-2.2586,-2.2426,-2.285,-2.4037,-2.4187,-2.4301,-2.4301,-2.4301,-2.4301,-2.4301,-2.4301,-2.4301,-2.4301,-2.4301,-2.4301,-2.4301,-2.4301,-2.4301,-2.4301,-2.4301,-2.4301,-2.4301,-2.4441,-2.3195,-2.0316,-0.7817,0.0,0.0,0.0,0.0,0.0,-1.2833,-2.02,-2.0157,-2.2895,-2.4538,-2.5082,-2.5708,-2.5995,-2.5936,-2.5936,-2.6096,-1.5559,-1.5849,-1.6139,-1.6619,-1.6679,-1.689,-1.7139,-1.7268,-1.7338,-1.7212,0.0,-2.0066,-2.632,0.0,-1.5928,-1.7024,0.0,-1.8915,-1.8987,-1.9038,-1.913,-1.9119,-1.9103,-1.939,-2.0402,-2.0686,-2.073,-2.0754,-2.0767,-2.078,-2.0833,-2.0833,-2.0833,-2.0833,-2.0833,-2.0833,-2.0833,-2.0833,-2.0833,-2.0833,-2.0833,-2.0833,-2.0833,-2.0833,-2.0833,-2.0833,-2.0833,-2.0767,-2.0877,-2.2782,-3.0294,-4.1002,-4.0916,-4.1033,-4.1033,-4.1033,-4.1085,-4.1292,-4.325,-4.4222,-4.4545,-4.4492,-3.4446,-2.2452,-2.2494,-2.2586,-2.2586,-2.2586,-2.2586,-2.2586,-2.2586,-2.2426,-2.285,-2.4037,-2.4187,-2.4301,-2.4301,-2.4301,-2.4301,-2.4301,-2.4301,-2.4301,-2.4301,-2.4301,-2.4301,-2.4301,-2.4301,-2.4301,-2.4301,-2.4301,-2.4301,-2.4301,-2.4327,-1.8438,-0.4477,-0.1206,0.0,0.0,0.0,0.0,0.0,-0.2137,-0.3353,-0.3343,-1.7073,-2.4299,-2.4521,-2.5415,-2.5685,-2.5276,-2.5923,-2.6096,-1.5106,-1.5717,-1.6298,-1.6432,-1.6889,-1.716,-1.7322,-1.7362,-1.7241,-1.7228,-1.7222,0.0,0.0,0.0,0.0,0.0,0.0,0.0,-2.0009,-1.9449,-1.8999,0.0,-1.9005,0.0,-2.073,-2.0902,-2.0701,0.0,-2.0859,-2.0859,-2.0833,-2.0833,-2.0833,-2.0833,-2.0833,-2.0833,-2.0833,-2.0833,-2.0833,-2.0833,-2.0833,-2.0833,-2.0833,-2.0833,-2.0833,-2.0833,0.0,-2.0793,-2.0727,-2.0824,-2.884,-4.0931,-4.09,-4.0941,-4.1033,-4.1033,-4.0967,-4.1079,-4.2155,-4.3416,-4.4408,-4.4591,-3.4496,-2.2425,-2.2481,-2.2586,-2.2586,-2.2586,-2.2586,-2.2586,-2.2586,-2.2593,-2.2932,-2.3996,-2.4375,-2.4414,-2.4274,-2.4301,-2.4301,-2.4301,-2.4301,-2.4301,-2.4301,-2.4301,-2.4301,-2.4301,-2.4301,-2.4301,-2.4301,-2.4301,-2.4301,-2.4301,-2.4248,-1.7788,-0.1503,0.0,0.0,0.0,0.0,0.0,0.0,0.0,0.0,0.0,-0.6989,-1.5243,-2.4286,-2.4841,-2.5028,-2.5131,-2.5616,-2.5843,-1.491,-1.5314,-1.5888,-1.6443,-1.6847,-1.7093,-1.7173,-1.7241,-1.7268,-1.7349,-1.7297,-1.7122,0.0,0.0,0.0,-1.7215,-1.8943,0.0,-2.0342,-1.97,0.0,-1.9119,0.0,-1.9507,-2.0758,-2.0797,0.0,0.0,-1.8744,-2.0872,-2.0846,-2.0833,-2.0833,-2.0833,-2.0833,-2.0833,-2.0833,-2.0833,-2.0833,-2.0833,-2.0833,-2.0833,-2.0833,-2.0833,-2.0833,-2.0833,-2.0833,-2.0833,-2.082,-2.0877,-2.68,-3.6098,-3.9605,-4.0967,-4.1033,-4.1033,-4.1019,-4.0906,-4.0909,-4.2054,-4.3805,-4.4227,-3.4624,-2.2425,-2.2481,-2.2586,-2.2586,-2.2586,-2.2586,-2.2586,-2.2586,-2.2502,-2.2776,-2.3667,-2.4213,-2.4187,-2.4221,-2.4248,-2.4221,-2.4287,-2.4301,-2.4301,-2.4301,-2.4301,-2.4301,-2.4301,-2.4301,-2.4301,-2.4301,-2.4301,-2.4314,-2.4327,-2.4235,-1.7817,-0.1516,0.0,0.0,0.0,0.0,0.0,0.0,0.0,0.0,0.0,0.0,-0.7886,-2.4432,-2.434,-2.4761,-2.5388,-2.5295,-2.5549,-1.491,-1.5015,-1.5361,-1.6335,-1.6498,-1.6579,-1.6659,-1.693,-1.723,-1.7308,-1.7312,-1.7175,0.0,0.0,-1.7167,-1.7355,-1.8218,-1.9102,-1.9182,-1.9057,-1.898,0.0,0.0,0.0,0.0,0.0,0.0,-0.2063,0.0,-2.0846,-2.0833,-2.0833,-2.0833,-2.0833,-2.0833,-2.0833,-2.0833,-2.0833,-2.0833,-2.0833,-2.0833,-2.0833,-2.0833,-2.0833,-2.0833,-2.0833,-2.0833,-2.0833,-2.082,-2.0757,-2.1154,-2.3198,-3.605,-4.1033,-4.1033,-4.1033,-4.1059,-4.089,-4.0906,-4.1137,-4.1488,-4.391,-3.4624,-2.2425,-2.2481,-2.2586,-2.2586,-2.2586,-2.2586,-2.2586,-2.2586,-2.2502,-2.249,-2.2484,-2.3457,-2.4226,-2.4182,-2.4401,-2.4294,-2.4248,-2.4301,-2.4301,-2.4301,-2.4301,-2.4301,-2.4301,-2.4301,-2.4301,-2.4301,-2.4301,-2.4327,-2.4393,-2.4446,-1.768,-0.152,0.0,0.0,0.0,0.0,0.0,0.0,0.0,0.0,0.0,0.0,-0.7891,-2.4195,-2.4366,-2.4761,-2.5375,-2.5082,-2.4933,-1.4794,-1.511,-1.5444,-1.5845,-1.5991,-1.5862,-1.5952,-1.6017,-1.6095,-1.6164,-1.6779,-1.7216,-1.6877,-1.7139,-1.722,-1.7393,-1.8328,-1.9065,-1.9171,-1.9025,-1.8999,-1.9171,-1.1747,-0.6963,0.0,0.0,0.0,-1.3736,-1.7946,-2.0872,-2.0833,-2.0833,-2.0833,-2.0833,-2.0833,-2.0833,-2.0833,-2.0833,-2.0833,-2.0833,-2.0833,-2.0833,-2.0833,-2.0833,-2.0833,-2.0833,-2.0833,-2.0833,-2.082,-2.0864,-2.5973,-3.4182,-3.9032,-4.0941,-4.1033,-4.1033,-4.1033,-4.1059,-4.0993,-4.113,-4.1442,-4.3858,-3.4492,-2.2666,-2.2631,-2.2632,-2.2586,-2.2586,-2.2441,-2.2586,-2.2586,-2.2652,-2.2515,-2.2503,-2.3453,-2.4149,-2.3362,-2.3681,-2.424,-2.4334,-2.4348,-2.4348,-2.4348,-2.4348,-2.4415,-2.4307,-2.4187,-2.4429,-2.4321,-2.4348,-2.4428,-2.438,-1.4891,-0.6378,-0.0608,0.0,0.0,0.0,0.0,0.0,0.0,0.0,0.0,0.0,0.0,-0.7891,-2.4195,-2.4366,-2.4353,-2.4775,-2.4657,-2.4802,-1.4525,0.0,-1.547,-1.5484,-1.5604,-1.5483,-1.5482,-1.5521,-1.5598,-1.6082,-1.6768,-1.7107,-1.6864,-1.7139,-1.7406,-1.7279,-1.8169,-1.8876,-1.8881,-1.904,-1.9158,-1.9051,-1.1542,0.0,0.0,0.0,0.0,-2.0846,-2.0859,-2.0872,-2.0833,-2.0833,-2.0833,-2.0833,-2.0833,-2.0833,-2.0833,-2.0833,-2.0833,-2.0833,-2.0833,-2.0833,-2.0833,-2.0833,-2.0833,-2.0833,-2.0833,-2.0833,-2.082,-2.0864,-2.866,-4.111,-4.0977,-4.0941,-4.1033,-4.1033,-4.1033,-4.1033,-4.1033,-4.1122,-4.1387,-4.2768,-3.6815,-2.7842,-2.3394,-2.2025,-2.1993,-2.2551,-2.2492,-2.2441,-2.2441,-2.2507,-2.2652,-2.2633,-2.3213,-2.3551,-2.276,-2.3075,-2.3627,-2.372,-2.3747,-2.3747,-2.3747,-2.3747,-2.3814,-2.4321,-2.4172,-2.4118,-2.372,-2.4134,-2.4334,-2.4393,-0.9709,0.0,0.0,0.0,0.0,0.0,0.0,0.0,0.0,0.0,0.0,0.0,0.0,-0.8091,-2.4182,-2.4374,-2.4321,-2.4024,-2.4221,-2.4366,-1.3811,0.0,-1.5395,-1.5409,-1.5534,-1.5585,-1.5585,-1.5405,-1.5885,-1.7024,-1.7307,-1.729,-1.7227,-1.7349,-1.734,-1.7231,-1.7801,-1.8328,-1.817,-1.87,-1.9012,-1.9057,-1.8924,-1.8961,0.0,-2.0176,-2.0859,-2.0833,-2.082,-2.0833,-2.0833,-2.0833,-2.0833,-2.0833,-2.0833,-2.0833,-2.0833,-2.0833,-2.0833,-2.0833,-2.0833,-2.0833,-2.0833,-2.0833,-2.0833,-2.0833,-2.0833,-2.0833,-2.082,-2.0757,-2.8515,-4.0531,-4.0746,-4.1033,-4.1033,-4.1033,-4.1033,-4.1033,-4.1033,-4.1096,-4.111,-4.0955,-4.0962,-3.8566,-2.4887,-2.0846,-2.1127,-2.224,-2.2456,-2.2412,-2.2425,-2.2639,-2.2639,-2.2619,-2.2489,-2.245,-2.2408,-2.2593,-2.249,-2.2471,-2.2522,-2.2522,-2.2522,-2.2522,-2.2825,-2.4023,-2.4313,-2.372,-2.2812,-2.3681,-2.4348,-2.4156,-0.9719,0.0,0.0,0.0,0.0,0.0,0.0,0.0,0.0,0.0,0.0,0.0,-0.0589,-0.8478,-2.4159,-2.4382,-2.405,-2.3747,-2.3444,-2.3602,-1.3407,0.0,0.0,-1.395,-1.4714,-1.487,-1.4312,-1.3719,-1.3612,-1.5651,-1.6743,-1.715,-1.6485,-1.6859,-1.7273,-1.6987,-1.727,-1.763,-1.8131,-1.8285,-1.8687,-1.8999,-1.9005,-1.9074,-1.9087,-1.9437,-1.9854,-2.0837,-2.081,-2.089,-2.0872,-2.0859,-2.0833,-2.0833,-2.0833,-2.0833,-2.0833,-2.0833,-2.0833,-2.0833,-2.0833,-2.0833,-2.0833,-2.0833,-2.0833,-2.0833,-2.0833,-2.0833,-2.082,-2.0757,-2.2976,-2.7401,-3.7133,-4.1033,-4.1033,-4.1033,-4.1033,-4.1033,-4.1033,-4.1137,-4.1045,-4.0931,-4.1036,-3.8569,-2.4859,-2.0861,-2.0857,-2.1122,-2.1317,-2.1307,-2.1812,-2.1916,-2.206,-2.2346,-2.2639,-2.2626,-2.2502,-2.2476,-2.2437,-2.2515,-2.2528,-2.2528,-2.2528,-2.2528,-2.2606,-2.3088,-2.2956,-2.2824,-2.2528,-2.2958,-2.3505,-2.413,-0.9719,0.0,0.0,0.0,0.0,0.0,0.0,0.0,0.0,0.0,0.0,0.0,-1.0868,-1.9102,-2.4159,-2.4077,-2.3747,-2.3747,-2.3444,-2.3496,-1.2394,0.0,0.0,0.0,-1.2696,-1.2715,-1.3109,-1.1922,-1.1498,-1.4349,-1.5698,-1.6549,-1.6674,-1.6888,-1.6926,0.0,-1.7202,-1.7554,-1.801,-1.8283,-1.8557,-1.8843,-1.8941,-1.8942,-1.9031,-1.917,-1.9323,-2.0015,-1.5194,-1.4523,-2.0419,-2.078,-2.0833,-2.0833,-2.0833,-2.0833,-2.0833,-2.0833,-2.0833,-2.0833,-2.0833,-2.0833,-2.0833,-2.0833,-2.0833,-2.0833,-2.0833,-2.0833,-2.082,-2.0757,-2.2442,-2.6092,-3.6862,-4.1033,-4.1033,-4.1033,-4.1033,-4.1033,-4.1033,-4.1033,-4.0812,-3.8783,-3.7653,-3.4816,-2.4068,-2.0886,-2.0835,-2.0835,-2.0767,-2.0745,-2.1191,-2.1591,-2.1721,-2.2178,-2.231,-2.2402,-2.2125,-2.2494,-2.2586,-2.2586,-2.2586,-2.2586,-2.2586,-2.2586,-2.26,-2.2639,-2.2613,-2.2586,-2.2586,-2.2503,-2.3005,-2.4321,-1.5721,-0.7284,-0.0606,0.0,0.0,0.0,0.0,0.0,0.0,0.0,0.0,0.0,-1.4982,-2.2995,-2.3551,-2.3375,-2.3294,-2.3294,-2.3133,-2.3119,-1.1072,0.0,0.0,-1.1187,-1.0403,-1.0122,0.0,0.0,-1.0196,-1.3243,-1.4559,-1.563,-1.6804,-1.6758,-1.6779,-1.7173,-1.7326,-1.7431,-1.7927,-1.8222,-1.8426,-1.844,-1.8765,-1.9145,-1.9169,-1.8955,-1.9132,-1.917,-0.8497,-0.7558,-2.0145,-2.0917,-2.0806,-2.0833,-2.0833,-2.0833,-2.0833,-2.0833,-2.0833,-2.0833,-2.0833,-2.0833,-2.0833,-2.0833,-2.0833,-2.0833,-2.0833,-2.0833,-2.082,-2.0757,-2.4549,-3.1165,-3.8243,-4.1033,-4.1033,-4.1033,-4.1033,-4.1033,-4.1033,-4.1033,-4.0294,-3.5394,-3.2565,-2.9962,-2.2863,-2.0833,-2.0833,-2.0833,-2.077,-2.0703,-2.0741,-2.12,-2.1663,-2.169,-2.1901,-2.1812,-2.1812,-2.2296,-2.2494,-2.2481,-2.2494,-2.2494,-2.2481,-2.2521,-2.2441,-2.2425,-2.2626,-2.2534,-2.2534,-2.2452,-2.3088,-2.4286,-2.4307,-1.7565,-0.1496,0.0,0.0,0.0,0.0,0.0,0.0,0.0,-0.0857,-0.2567,-1.5648,-2.2425,-2.2372,-2.2389,-2.2522,-2.2536,-2.2524,-2.2198,0.0,0.0,0.0,0.0,0.0,0.0,0.0,0.0,-1.3025,-1.3594,-1.392,-1.4546,-1.573,-1.6546,-1.714,-1.6765,-1.7106,-1.734,-1.7862,-1.7967,-1.7985,-1.8261,-1.8701,-1.9022,-1.9075,-1.9106,-1.913,-1.9147,-1.6689,-1.6891,-2.0703,-2.0743,-2.085,-2.0833,-2.0833,-2.0833,-2.0833,-2.0833,-2.0833,-2.0833,-2.0833,-2.0833,-2.0833,-2.0833,-2.0833,-2.0833,-2.0833,-2.0833,-2.082,-2.0757,-2.3746,-2.9018,-3.7676,-4.1033,-4.1033,-4.1033,-4.1033,-4.1033,-4.1033,-4.1033,-4.0022,-3.3486,-3.2565,-3.1849,-2.3405,-2.0833,-2.0833,-2.0833,-2.0872,-2.0718,-2.0953,-2.1321,-2.1413,-2.1369,-2.1461,-2.1782,-2.2334,-2.2389,-2.2429,-2.1874,-2.2158,-2.2158,-2.1307,-2.1786,-2.2412,-2.2659,-2.2591,-2.2519,-2.2519,-2.245,-2.3088,-2.4257,-2.4409,-1.7751,-0.1469,0.0,0.0,0.0,0.0,0.0,0.0,0.0,-0.5766,-1.7868,-2.11,-2.2118,-2.123,-2.1998,-2.2522,-2.2522,-2.2307,-2.1838,0.0,0.0,0.0,0.0,0.0,0.0,0.0,0.0,0.0,0.0,0.0,-1.2534,0.0,0.0,-1.6606,-1.6893,-1.6854,-1.7079,-1.7524,-1.7849,-1.8038,-1.7807,-1.843,-1.8994,-1.9144,-1.9051,-1.9035,-1.9119,-1.8999,-1.9273,-1.9989,-2.0517,-2.073,-2.0877,-2.0767,-2.0833,-2.0833,-2.0833,-2.0833,-2.0833,-2.0833,-2.0833,-2.0833,-2.0833,-2.0833,-2.0833,-2.0833,-2.0833,-2.082,-2.2689,-2.668,-3.2338,-3.8713,-4.1033,-4.1033,-4.1033,-4.1033,-4.1033,-4.1033,-4.1033,-3.9971,-3.2919,-3.1406,-3.0947,-2.2885,-2.0622,-2.0648,-2.0793,-2.0833,-2.0872,-2.1017,-2.1057,-2.1097,-2.0966,-2.1109,-2.1492,-2.1492,-2.1878,-2.1972,-2.169,-2.169,-2.1421,-2.0872,-2.1153,-2.1663,-2.1785,-2.1729,-2.1695,-2.2125,-2.2229,-2.2502,-2.3375,-2.3453,-1.9787,-1.1221,-0.4014,0.0,0.0,0.0,0.0,0.0,-0.6805,-1.3852,-2.1526,-2.1637,-2.1252,-2.0668,-2.1347,-2.1544,-2.1531,-2.101,-2.305,0.0,0.0,0.0,0.0,0.0,0.0,0.0,0.0,0.0,0.0,0.0,0.0,0.0,0.0,0.0,-1.6728,-1.6761,-1.6792,-1.7326,-1.7626,-1.7605,-1.7286,-1.7984,-1.8736,-1.8816,-1.8673,-1.8794,-1.8808,-1.8802,-1.883,-1.8928,-1.9883,-2.045,-2.057,-2.0556,-2.0701,-2.0754,-2.0701,-2.0701,-2.0754,0.0,0.0,-2.0754,-2.0806,-2.0833,-2.0833,-2.0833,-2.0833,-2.1091,-2.4385,-2.9419,-3.5441,-3.9278,-4.0695,-4.0695,-4.0695,-4.0695,-4.0695,-4.0695,-4.0695,-3.9616,-3.2743,-3.0392,-2.9183,-2.2283,-2.0319,0.0,-2.0675,-2.0754,-2.0767,-2.082,-2.0833,-2.0833,-2.0833,-2.1017,-2.0927,-2.0927,-2.1096,-2.1252,-2.1252,-2.0986,-2.0707,-2.0707,-2.0806,-2.0901,-2.0848,-2.0857,-2.0872,-2.1384,-2.1706,-2.195,-2.2573,-2.2593,-2.2128,-2.1324,-0.8176,0.0,0.0,-0.2503,-0.4092,-0.4002,-1.4935,-2.0844,-2.0831,-2.0497,-2.0381,-2.077,-2.0727,-2.0569,-2.0516,-2.1554,-2.6111,0.0,0.0,0.0,0.0,0.0,0.0,0.0,0.0,0.0,0.0,0.0,0.0,0.0,0.0,0.0,0.0,-1.6658,-1.7205,-1.7364,-1.6405,-1.62,-1.7139,-1.702,-1.709,-1.8034,-1.7617,-1.7558,-1.8049,-1.8314,-1.8335,-1.8383,0.0,0.0,0.0,0.0,-2.0187,-2.0184,-2.02,-2.0463,-2.0703,-2.045,-2.0184,-2.0184,-2.0458,-2.0833,-2.0833,-2.0833,-2.0833,-2.1091,-2.4385,-2.8172,-3.2109,-3.7441,-3.9526,-3.9526,-3.9526,-3.9526,-3.9526,-3.9526,0.0,0.0,-3.1907,-2.9715,-2.8503,-2.1979,-2.0029,-2.0081,-2.0371,-2.045,-2.0503,-2.0767,-2.0833,-2.0833,-2.0833,-2.0859,-2.0886,-2.0886,-2.0912,-2.0938,-2.0938,-2.0938,-2.0666,-2.0666,-2.0912,-2.0793,-2.0797,-2.0705,-2.0529,-2.029,-2.1024,-2.2007,-2.256,0.0,0.0,-2.2463,-0.8595,0.0,0.0,-1.1736,-1.8585,-1.834,-1.9846,-2.0676,-2.0867,-1.926,-1.9351,-2.0895,-2.0335,-1.9876,-1.9435,-2.6957,-3.1321,0.0,0.0,0.0,0.0,0.0,0.0,0.0,0.0,0.0,0.0,0.0,0.0,0.0,0.0,0.0,0.0,-1.5471,-1.6365,-1.6299,-1.5781,-1.577,-1.6174,-1.6679,-1.6904,-1.7022,-1.6929,-1.6858,-1.7025,-1.7192,-1.7228,-1.7156,-1.7952,-1.8555,-1.8954,-1.9377,-1.9611,-1.9885,-2.0042,-2.1019,-2.3101,-2.3349,-2.4849,-2.6839,-2.5028,-2.4094,-2.4094,-2.3313,-2.3048,-2.3548,-2.8709,-3.1658,0.0,0.0,0.0,0.0,0.0,-3.8565,-3.8877,-3.9215,-3.9111,-3.805,-3.3235,-3.1297,-2.9906,-2.3661,-2.1925,-2.1669,-2.0294,-2.0134,-2.0424,-2.0543,-2.0714,-2.0833,-2.0833,-2.0833,-2.0833,-2.0833,-2.0833,-2.0833,-2.0833,-2.0833,0.0,-2.0833,-2.0833,-2.0793,-2.0675,-2.0859,-2.0822,-2.0716,-2.1356,-2.1669,-2.1825,-2.2349,-1.908,-1.0068,-0.3605,0.0,0.0,0.0,-1.0434,-1.475,-1.4901,0.0,0.0,0.0,0.0,0.0,0.0,0.0,0.0,-2.4714,-2.7491,0.0,0.0,0.0,0.0,0.0,0.0,0.0,0.0,0.0,0.0,0.0,0.0,0.0,0.0,0.0,0.0,0.0,-1.5111,-1.4999,-1.5387,-1.5604,-1.5991,-1.6565,-1.6956,-1.6633,-1.6579,-1.6561,-1.6538,-1.6562,-1.6593,-1.6643,-1.7578,-1.7977,-1.8247,-1.8543,-1.9077,-1.9377,-2.0252,-2.1909,-2.4133,-2.5587,-2.783,-3.0875,-2.8073,-2.6973,-2.7063,-2.6297,-2.6036,-2.6262,-3.1823,-3.4239,-3.4386,-3.6775,-3.7786,-3.7734,-3.7319,-3.7449,-3.7838,-3.8254,-3.8124,-3.723,-3.3436,-3.2126,-3.0682,-2.5237,-2.3235,-2.2449,-2.0715,-2.0065,-2.0055,-2.0134,-2.0385,-2.0609,-2.0609,-2.0609,-2.0609,-2.0609,-2.0609,-2.0622,-2.0701,-2.0648,-2.0609,-2.0609,-2.0609,-2.0609,-2.0609,-2.0661,0.0,-2.1123,-2.1479,-2.1756,-2.1617,-2.0254,-1.4232,-0.1115,0.0,0.0,0.0,-0.3546,-0.805,-1.3173,-1.3254,-1.4961,-1.854,-1.9418,-1.9211,0.0,0.0,0.0,0.0,0.0,0.0,0.0,0.0,0.0,0.0,0.0,0.0,0.0,0.0,0.0,0.0,0.0,0.0,0.0,0.0,0.0,0.0,0.0,0.0,-1.3822,-1.4896,-1.5887,-1.708,-1.6744,-1.6546,-1.652,-1.671,-1.6659,-1.6754,-1.6659,-1.664,-1.6943,-1.7246,-1.755,-1.7827,-1.8117,-1.842,-1.8723,-2.1118,-2.2459,-2.3026,-2.5747,-2.732,-2.8186,-2.838,-2.8547,-2.9172,-2.8931,-2.8931,-2.9414,-3.2782,-3.4239,-3.4295,-3.5523,-3.602,-3.602,-3.5994,-3.5994,-3.602,-3.6046,-3.6046,-3.5486,-3.1841,-3.0588,-2.9837,-2.5961,-2.3379,-2.1595,-2.1739,-2.0516,-1.9198,-1.9488,-1.9778,-2.0015,-2.0015,-2.0015,-2.0015,-2.0015,-2.0015,-2.0094,-2.0358,-2.0187,-2.0015,-2.0015,-2.0015,-2.0015,-2.0015,-2.0239,0.0,-2.082,-2.1347,-2.1822,-2.1877,-1.5685,-0.8462,-0.0565,0.0,0.0,0.0,-1.2786,-2.03,-2.0561,-2.0463,-2.0065,-1.8999,-1.8024,-1.6838,-1.5677,0.0,0.0,0.0,0.0,0.0,0.0,0.0,0.0,0.0,0.0,0.0,0.0,0.0,0.0,0.0,0.0,0.0,0.0,0.0,0.0,0.0,0.0,0.0,0.0,0.0,-1.5774,-1.6073,-1.5981,-1.5865,-1.5925,-1.7625,-1.8588,-1.8651,-1.8455,-1.8287,-1.8408,-1.7324,-1.6917,-1.722,-1.751,-1.78,-1.809,-2.083,-2.3383,-2.5738,-2.8407,-3.1168,-3.3141,-3.128,-3.0291,-3.0666,-3.0666,-3.0666,-3.0914,-3.4109,-3.4807,-3.4256,-3.4228,-3.4228,-3.4177,-3.3787,-3.3891,-3.4228,-3.4228,-3.4462,-3.4462,-3.3049,-3.2216,-3.1266,-2.8216,-2.5644,-2.336,-2.1841,-2.0057,-1.8631,-1.9119,-1.9462,-1.9738,-1.9936,-1.9989,-1.9989,-1.9989,-1.9989,-2.0015,-2.0108,-1.9422,-1.871,-1.8328,-1.8895,-1.9198,-1.8618,-1.9435,-2.0226,-2.0503,-2.1083,-2.1598,-2.194,-1.1065,-0.2798,-0.0283,0.0,0.0,0.0,-0.887,-1.5907,-2.0716,-2.0556,-2.0356,-1.9989,-1.9013,-1.7378,-1.5058,0.0,0.0,0.0,0.0,0.0,0.0,0.0,0.0,0.0,0.0,0.0,0.0,0.0,0.0,0.0,0.0,0.0,0.0,0.0,0.0,0.0,0.0,0.0,0.0,0.0,0.0,-1.4841,-1.4235,0.0,-1.371,-1.648,-1.8734,-2.0273,-1.9365,-1.8899,-1.8984,-1.8629,-1.8132,-1.7661,-1.8086,-1.8398,-1.881,-2.1545,-2.4645,-2.7433,-3.0414,-3.2867,-3.5008,-3.3063,-3.2078,-3.2268,-3.2434,-3.2411,-3.2434,-3.4015,-3.4021,-3.293,-3.2566,-3.2177,-3.1813,-3.1865,-3.2099,-3.2488,-3.2878,-3.3268,-3.3501,-3.3138,-3.2099,-3.0508,-2.8421,-2.5418,-2.2472,-2.1232,-1.9226,-1.7484,-1.8275,-1.8697,-1.8987,-1.929,-1.9356,-1.9356,-1.9356,-1.9277,-1.9171,-1.9079,-1.8446,-1.7682,-1.689,-1.7457,-1.7853,-1.7391,-1.8394,-1.9462,-2.016,-2.0899,-2.0365,-1.8115,-0.7124,0.0,0.0,0.0,-0.1106,-0.3555,-1.0211,-1.6181,-2.0523,-2.0622,-2.0055,-1.933,-1.8552,-1.6838,0.0,0.0,0.0,0.0,0.0,0.0,0.0,0.0,0.0,0.0,0.0,0.0,0.0,0.0,0.0,0.0,0.0,0.0,0.0,0.0,0.0,0.0,0.0,0.0,0.0,0.0,0.0,-1.3851,-1.2266,0.0,0.0,0.0,0.0,-2.1098,-1.9367,-1.84,-1.8697,-2.0567,-2.0737,-1.9104,-1.982,-2.0211,-2.0477,-2.327,-2.588,-2.8276,-3.1072,-3.2774,-3.3294,-3.3294,-3.3579,-3.4125,-3.467,-3.4592,-3.3995,-3.2774,-3.158,-3.0541,-3.0463,-2.9762,-2.8957,-3.0099,-3.0489,-3.0645,-3.1839,-3.2229,-3.2203,-3.2177,-3.0333,-2.7866,-2.6697,-2.2764,0.0,0.0,-1.7895,-1.577,-1.6956,-1.7471,-1.7774,-1.8117,-1.8196,-1.8196,-1.8196,-1.7972,-1.7668,0.0,-1.7233,-1.6824,-1.5598,0.0,-1.6007,-1.6231,-1.7101,-1.8248,-1.9712,-2.0727,-1.8632,-1.1179,-0.4082,0.0,0.0,-0.055,-0.3831,-1.0661,-1.7299,-2.0783,-2.0757,-2.0332,-1.933,-1.7365,-1.6679,0.0,0.0,0.0,0.0,0.0,0.0,0.0,0.0,0.0,0.0,0.0,0.0,0.0,0.0,0.0,0.0,0.0,0.0,0.0,0.0,0.0,0.0,0.0,0.0,0.0,0.0,-1.2115,-1.2943,-1.367,-1.9229,-1.95,0.0,0.0,0.0,0.0,0.0,0.0,-1.7696,-1.7265,-1.7227,-1.7957,-1.9778,-2.1529,-2.2821,-2.5714,-2.7684,-2.8298,-3.1072,-3.254,-3.2696,-3.2696,-3.2774,-3.293,-3.306,-3.3034,-3.2722,-3.0307,-2.8645,-2.7476,-2.6178,-2.5503,-2.5373,-2.6541,-2.6697,-2.6593,-2.8619,-2.9034,-2.8619,-2.8177,0.0,-2.6022,-2.4438,0.0,0.0,0.0,0.0,-1.4003,-1.5387,-1.5967,-1.6416,-1.7365,-1.7589,-1.7589,-1.7589,-1.7536,-1.7075,0.0,-1.5255,-1.4464,-1.2434,0.0,0.0,0.0,0.0,-1.7273,-1.8525,-1.965,-1.7755,-1.1158,-0.4282,0.0,0.0,-0.9459,-1.6135,-1.8137,-1.9889,-2.0543,-2.0134,-1.8842,-1.7695,-1.6732,0.0,0.0,0.0,0.0,0.0,0.0,0.0,0.0,0.0,0.0,0.0,0.0,0.0,0.0,0.0,0.0,0.0,0.0,0.0,0.0,0.0,0.0,0.0,0.0,0.0,0.0,0.0,-1.4195,-1.7272,-1.6803,-2.1311,-2.0328,0.0,0.0,0.0,0.0,0.0,0.0,0.0,0.0,0.0,-1.6293,-1.8498,-2.0338,-2.1598,-2.4391,-2.6486,-2.8021,-2.9985,-3.0982,-3.0982,-3.0982,-3.1112,-3.1372,-3.1631,-3.1008,-2.9736,-2.8126,-2.6204,-2.4152,0.0,0.0,0.0,0.0,-2.3581,-2.3581,-2.4837,-2.5165,0.0,-2.3577,0.0,0.0,0.0,0.0,0.0,0.0,0.0,0.0,0.0,0.0,-1.5862,-1.6772,-1.6983,-1.6983,-1.6983,-1.5888,-1.4609,0.0,-1.3093,-1.2236,-1.0416,0.0,0.0,0.0,0.0,-1.6099,-1.7655,-1.9195,-1.8625,-1.5274,-0.6094,-0.2396,-0.8528,-1.6282,-2.0729,-2.0679,-2.0516,-1.9844,-1.8881,-1.7642,-1.6165,0.0,0.0,0.0,0.0,0.0,0.0,0.0,0.0,0.0,0.0,0.0,0.0,0.0,0.0,0.0,0.0,0.0,0.0,0.0,0.0,0.0,0.0,0.0,0.0,0.0,0.0,0.0,0.0,0.0,-2.0979,-1.9252,0.0,0.0,0.0,0.0,0.0,0.0,0.0,0.0,0.0,0.0,0.0,0.0,0.0,-1.8195,-1.9054,-2.1445,-2.404,-2.6827,-2.7892,-2.8411,-2.8411,-2.8581,-2.8973,-2.9476,-2.9606,0.0,-2.6256,-2.5788,0.0,0.0,0.0,0.0,0.0,0.0,0.0,0.0,0.0,0.0,0.0,0.0,0.0,0.0,0.0,0.0,0.0,0.0,0.0,0.0,0.0,0.0,-1.5242,-1.5796,-1.6007,-1.6033,0.0,-1.3594,-1.1564,-1.1405,-1.0944,0.0,0.0,0.0,0.0,0.0,0.0,0.0,-1.689,-1.8869,-2.0341,-2.0614,-1.001,-0.7657,-1.9864,-2.0875,-2.0744,-2.0385,-1.9897,-1.8895,-1.722,-1.6429,0.0,0.0,0.0,0.0,0.0,0.0,0.0,0.0,0.0,0.0,0.0,0.0,0.0,0.0,0.0,0.0,0.0,0.0,0.0,0.0,0.0,0.0,0.0,0.0,0.0,0.0,0.0,0.0,0.0,0.0,0.0,0.0,0.0,0.0,0.0,0.0,0.0,0.0,0.0,0.0,0.0,0.0,0.0,0.0,0.0,0.0,0.0,0.0,0.0,0.0,-2.449,-2.4801,-2.4827,-2.5987,-2.6732,-2.6983,-2.4697,-2.423,-2.4853,-2.2023,0.0,0.0,0.0,0.0,0.0,0.0,0.0,0.0,0.0,0.0,0.0,0.0,0.0,0.0,0.0,0.0,0.0,0.0,0.0,0.0,0.0,0.0,0.0,0.0,-1.3475,-1.366,0.0,0.0,0.0,0.0,0.0,0.0,0.0,0.0,0.0,0.0,0.0,0.0,-1.573,-1.8192,-2.0119,-2.0859,-1.8615,-1.8106,-2.0653,-2.0912,-2.0675,-2.0094,-1.8657,-1.726,0.0,0.0,0.0,0.0,0.0,0.0,0.0,0.0,0.0,0.0,0.0,0.0,0.0,0.0,0.0,0.0,0.0,0.0,0.0,0.0,0.0,0.0,0.0,0.0,0.0,0.0,0.0,0.0,0.0,0.0,0.0,0.0,0.0,0.0,0.0,0.0,0.0,0.0,0.0,0.0,0.0,0.0,0.0,0.0,0.0,0.0,0.0,0.0,0.0,0.0,0.0,0.0,0.0,0.0,0.0,0.0,0.0,0.0,0.0,-2.1199,0.0,0.0,0.0,0.0,0.0,0.0,0.0,0.0,0.0,0.0,0.0,0.0,0.0,0.0,0.0,0.0,0.0,0.0,0.0,0.0,0.0,0.0,0.0,0.0,0.0,0.0,0.0,0.0,0.0,0.0,0.0,0.0,0.0,0.0,0.0,0.0,0.0,0.0,0.0,0.0,-1.5189,-1.7775,-1.9859,-2.0793,-2.0912,-2.0666,-2.0872,-2.0714,-2.0108,-1.8921,-1.816,0.0,0.0,0.0,0.0,0.0,0.0,0.0,0.0,0.0,0.0,0.0,0.0,0.0,0.0,0.0,0.0,0.0,0.0,0.0,0.0,0.0,0.0,0.0,0.0,0.0,0.0,0.0,0.0,0.0,0.0,0.0,0.0,0.0,0.0,0.0,0.0,0.0,0.0,0.0,0.0,0.0,0.0,0.0,0.0,0.0,0.0,0.0,0.0,0.0,0.0,0.0,0.0,0.0,0.0,0.0,0.0,0.0,0.0,0.0,-2.0452,0.0,0.0,0.0,0.0,0.0,0.0,0.0,0.0,0.0,0.0,0.0,0.0,0.0,0.0,0.0,0.0,0.0,0.0,0.0,0.0,0.0,0.0,0.0,0.0,0.0,0.0,0.0,0.0,0.0,0.0,0.0,0.0,0.0,0.0,0.0,0.0,0.0,0.0,0.0,0.0,0.0,-1.4794,-1.7463,-1.9391,-2.0661,-2.0846,-2.0886,-2.0846,-2.0569,-1.9849,-1.8186,-1.72,0.0,0.0,0.0,0.0,0.0,0.0,0.0,0.0,0.0,0.0,0.0,0.0,0.0,0.0,0.0,0.0,0.0,0.0,0.0,0.0,0.0,0.0,0.0,0.0,0.0,0.0,0.0,0.0,0.0,0.0,0.0,0.0,0.0,0.0,0.0,0.0,0.0,0.0,0.0,0.0,0.0,0.0,0.0,0.0,0.0,0.0,0.0,0.0,0.0,0.0,0.0,0.0,0.0,0.0,0.0,0.0,0.0,0.0,0.0,0.0,0.0,0.0,0.0,0.0,0.0,0.0,0.0,0.0,0.0,0.0,0.0,0.0,0.0,0.0,0.0,0.0,0.0,0.0,0.0,0.0,0.0,0.0,0.0,0.0,0.0,0.0,0.0,0.0,0.0,0.0,0.0,0.0,0.0,0.0,0.0,0.0,0.0,0.0,0.0,0.0,0.0,-1.4253,-1.7228,-1.9314,-2.0371,-2.0714,-2.0886,-2.0846,-2.0569,-1.9929,-1.8951,0.0,0.0,0.0,0.0,0.0,0.0,0.0,0.0,0.0,0.0,0.0,0.0,0.0,0.0,0.0,0.0,0.0,0.0,0.0,0.0,0.0,0.0,0.0,0.0,0.0,0.0,0.0,0.0,0.0,0.0,0.0,0.0,0.0,0.0,0.0,0.0,0.0,0.0,0.0,0.0,0.0,0.0,0.0,0.0,0.0,0.0,0.0,0.0,0.0,0.0,0.0,0.0,0.0,0.0,0.0,0.0,0.0,0.0,0.0,0.0,0.0,0.0,0.0,0.0,0.0,0.0,0.0,0.0,0.0,0.0,0.0,0.0,0.0,0.0,0.0,0.0,0.0,0.0,0.0,0.0,0.0,0.0,0.0,0.0,0.0,0.0,0.0,0.0,0.0,0.0,0.0,0.0,0.0,0.0,0.0,0.0,0.0,0.0,0.0,0.0,0.0,0.0,-1.4161,-1.7059,-1.9377,-2.0319,-2.0701,-2.0886,-2.0846,-2.0411,-1.9497,-1.7821,0.0,0.0,0.0,0.0,0.0,0.0,0.0,0.0,0.0,0.0,0.0,0.0,0.0,0.0,0.0,0.0,0.0,0.0,0.0,0.0,0.0,0.0,0.0,0.0,0.0,0.0,0.0,0.0,0.0,0.0,0.0,0.0,0.0,0.0,0.0,0.0,0.0,0.0,0.0,0.0,0.0,0.0,0.0,0.0,0.0,0.0,0.0,0.0,0.0,0.0,0.0,0.0,0.0,0.0,0.0,0.0,0.0,0.0,0.0,0.0,0.0,0.0,0.0,0.0,0.0,0.0,0.0,0.0,0.0,0.0,0.0,0.0,0.0,0.0,0.0,0.0,0.0,0.0,0.0,0.0,0.0,0.0,0.0,0.0,0.0,0.0,0.0,0.0,0.0,0.0,0.0,0.0,0.0,0.0,0.0,0.0,0.0,0.0,0.0,0.0,0.0,0.0,-1.4016,-1.7101,-1.9448,-2.0187,-2.0635,-2.0872,-2.0846,-2.0253,-1.9349,-1.7747,0.0,0.0,0.0,0.0,0.0,0.0,0.0,0.0,0.0,0.0,0.0,0.0,0.0,0.0,0.0,0.0,0.0,0.0,0.0,0.0,0.0,0.0,0.0,0.0,0.0,0.0,0.0,0.0,0.0,0.0,0.0,0.0,0.0,0.0,0.0,0.0,0.0,0.0,0.0,0.0,0.0,0.0,0.0,0.0,0.0,0.0,0.0,0.0,0.0,0.0,0.0,0.0,0.0,0.0,0.0,0.0,0.0,0.0,0.0,0.0,0.0,0.0,0.0,0.0,0.0,0.0,0.0,0.0,0.0,0.0,0.0,0.0,0.0,0.0,0.0,0.0,0.0,0.0,0.0,0.0,0.0,0.0,0.0,0.0,0.0,0.0,0.0,0.0,0.0,0.0,0.0,0.0,0.0,0.0,0.0,0.0,0.0,0.0,0.0,0.0,0.0,0.0,-1.3739,-1.693,-1.9316,-1.9923,-2.0503,-2.0833,-2.0833,-2.0343,-2.024,0.0,0.0,0.0,0.0,0.0,0.0,0.0,0.0,0.0,0.0,0.0,0.0,0.0,0.0,0.0,0.0,0.0,0.0,0.0,0.0,0.0,0.0,0.0,0.0,0.0,0.0,0.0,0.0,0.0,0.0,0.0,0.0,0.0,0.0,0.0,0.0,0.0,0.0,0.0,0.0,0.0,0.0,0.0,0.0,0.0,0.0,0.0,0.0,0.0,0.0,0.0,0.0,0.0,0.0,0.0,0.0,0.0,0.0,0.0,0.0,0.0,0.0,0.0,0.0,0.0,0.0,0.0,0.0,0.0,0.0,0.0,0.0,0.0,0.0,0.0,0.0,0.0,0.0,0.0,0.0,0.0,0.0,0.0,0.0,0.0,0.0,0.0,0.0,0.0,0.0,0.0,0.0,0.0,0.0,0.0,0.0,0.0,0.0,0.0,0.0,0.0,0.0,0.0,-1.3634,-1.5476,-1.7558,0.0,-2.0358,-2.0328,-2.0543,-1.9936,-1.7634,-1.3098,0.0,0.0,0.0,0.0,0.0,0.0,0.0,0.0,0.0,0.0,0.0,0.0,0.0,0.0,0.0,0.0,0.0,0.0,0.0,0.0,0.0,0.0,0.0,0.0,0.0,0.0,0.0,0.0,0.0,0.0,0.0,0.0,0.0,0.0,0.0,0.0,0.0,0.0,0.0,0.0,0.0,0.0,0.0,0.0,0.0,0.0,0.0,0.0,0.0,0.0,0.0,0.0,0.0,0.0,0.0,0.0,0.0,0.0,0.0,0.0,0.0,0.0,0.0,0.0,0.0,0.0,0.0,0.0,0.0,0.0,0.0,0.0,0.0,0.0,0.0,0.0,0.0,0.0,0.0,0.0,0.0,0.0,0.0,0.0,0.0,0.0,0.0,0.0,0.0,0.0,0.0,0.0,0.0,0.0,0.0,0.0,0.0,0.0,0.0,0.0,0.0,0.0,0.0,-1.5311,-1.7342,0.0,-2.0042,-2.0279,-2.0239,-1.9633,-1.7418,-1.3098,0.0,0.0,0.0,0.0,0.0,0.0,0.0,0.0,0.0,0.0,0.0,0.0,0.0,0.0,0.0,0.0,0.0,0.0,0.0,0.0,0.0,0.0,0.0,0.0,0.0,0.0,0.0,0.0,0.0,0.0,0.0,0.0,0.0,0.0,0.0,0.0,0.0,0.0,0.0,0.0,0.0,0.0,0.0,0.0,0.0,0.0,0.0,0.0,0.0,0.0,0.0,0.0,0.0,0.0,0.0,0.0,0.0,0.0,0.0,0.0,0.0,0.0,0.0,0.0,0.0,0.0,0.0,0.0,0.0,0.0,0.0,0.0,0.0,0.0,0.0,0.0,0.0,0.0,0.0,0.0,0.0,0.0,0.0,0.0,0.0,0.0,0.0,0.0,0.0,0.0,0.0,0.0,0.0,0.0,0.0,0.0,0.0,0.0,0.0,0.0,0.0,0.0,0.0,-1.6205,-1.8341,-1.9013,-1.9607,-1.9936,-1.9923,-1.9422,-1.8844,-1.8122,-1.2403,0.0,0.0,0.0,0.0,0.0,0.0,0.0,0.0,0.0,0.0,0.0,0.0,0.0,0.0,0.0,0.0,0.0,0.0,0.0,0.0,0.0,0.0,0.0,0.0,0.0,0.0,0.0,0.0,0.0,0.0,0.0,0.0,0.0,0.0,0.0,0.0,0.0,0.0,0.0,0.0,0.0,0.0,0.0,0.0,0.0,0.0,0.0,0.0,0.0,0.0,0.0,0.0,0.0,0.0,0.0,0.0,0.0,0.0,0.0,0.0,0.0,0.0,0.0,0.0,0.0,0.0,0.0,0.0,0.0,0.0,0.0,0.0,0.0,0.0,0.0,0.0,0.0,0.0,0.0,0.0,0.0,0.0,0.0,0.0,0.0,0.0,0.0,0.0,0.0,0.0,0.0,0.0,0.0,0.0,0.0,0.0,0.0,0.0,0.0,0.0,0.0,0.0,-1.5704,-1.7233,-1.8908,-1.9422,-1.9554,-1.9316,-1.8723,-1.7714,-1.6256,-1.3344,0.0,0.0,0.0,0.0,0.0,0.0,0.0,0.0,0.0,0.0,0.0,0.0,0.0,0.0,0.0,0.0,0.0,0.0,0.0,0.0,0.0,0.0,0.0,0.0,0.0,0.0,0.0,0.0,0.0,0.0,0.0,0.0,0.0,0.0,0.0,0.0,0.0,0.0,0.0,0.0,0.0,0.0,0.0,0.0,0.0,0.0,0.0,0.0,0.0,0.0,0.0,0.0,0.0,0.0,0.0,0.0,0.0,0.0,0.0,0.0,0.0,0.0,0.0,0.0,0.0,0.0,0.0,0.0,0.0,0.0,0.0,0.0,0.0,0.0,0.0,0.0,0.0,0.0,0.0,0.0,0.0,0.0,0.0,0.0,0.0,0.0,0.0,0.0,0.0,0.0,0.0,0.0,0.0,0.0,0.0,0.0,0.0,0.0,0.0,0.0,0.0,0.0,-1.3581,-1.5361,-1.8196,-1.8881,-1.9079,-1.8921,-1.8367,-1.7349,-1.5424,-1.3415,0.0,0.0,0.0,0.0,0.0,0.0,0.0,0.0,0.0,0.0,0.0,0.0,0.0,0.0,0.0,0.0,0.0,0.0,0.0,0.0,0.0,0.0,0.0,0.0,0.0,0.0,0.0,0.0,0.0,0.0,0.0,0.0,0.0,0.0,0.0,0.0,0.0,0.0,0.0,0.0,0.0,0.0,0.0,0.0,0.0,0.0,0.0,0.0,0.0,0.0,0.0,0.0,0.0,0.0,0.0,0.0,0.0,0.0,0.0,0.0,0.0,0.0,0.0,0.0,0.0,0.0,0.0,0.0,0.0,0.0,0.0,0.0,0.0,0.0,0.0,0.0,0.0,0.0,0.0,0.0,0.0,0.0,0.0,0.0,0.0,0.0,0.0,0.0,0.0,0.0,0.0,0.0,0.0,0.0,0.0,0.0,0.0,0.0,0.0,0.0,0.0,0.0,0.0,-1.366,-1.7035,-1.813,-1.8578,-1.8486,-1.7985,-1.697,-1.484,0.0,0.0,0.0,0.0,0.0,0.0,0.0,0.0,0.0,0.0,0.0,0.0,0.0,0.0,0.0,0.0,0.0,0.0,0.0,0.0,0.0,0.0,0.0,0.0,0.0,0.0,0.0,0.0,0.0,0.0,0.0,0.0,0.0,0.0,0.0,0.0,0.0,0.0,0.0,0.0,0.0,0.0,0.0,0.0,0.0,0.0,0.0,0.0,0.0,0.0,0.0,0.0,0.0,0.0,0.0,0.0,0.0,0.0,0.0,0.0,0.0,0.0,0.0,0.0,0.0,0.0,0.0,0.0,0.0,0.0,0.0,0.0,0.0,0.0,0.0,0.0,0.0,0.0,0.0,0.0,0.0,0.0,0.0,0.0,0.0,0.0,0.0,0.0,0.0,0.0,0.0,0.0,0.0,0.0,0.0,0.0,0.0,0.0,0.0,0.0,0.0,0.0,0.0,0.0,0.0,-1.5414,-1.722,-1.8103,-1.7616,-1.726,-1.6165,-1.4045,0.0,0.0,0.0,0.0,0.0,0.0,0.0,0.0,0.0,0.0,0.0,0.0,0.0,0.0]}]]]